<?xml version='1.0' encoding='UTF-8'?><gpx version="1.1" creator="JPX - https://github.com/jenetics/jpx" xmlns="http://www.topografix.com/GPX/1/1"><trk><trkseg><trkpt lat="40.6236954310011" lon="9.684621642077774"><ele>46.5</ele><time>2026-05-03T13:37:23.001Z</time></trkpt><trkpt lat="40.62362174168566" lon="9.684726259717403"><ele>48.0</ele><time>2026-05-03T13:37:25.001Z</time></trkpt><trkpt lat="40.62354505736477" lon="9.684884861255913"><ele>49.5</ele><time>2026-05-03T13:37:26.001Z</time></trkpt><trkpt lat="40.6234785852032" lon="9.685044512725677"><ele>51.0</ele><time>2026-05-03T13:37:27.001Z</time></trkpt><trkpt lat="40.62340108680391" lon="9.685233590899841"><ele>53.66666666666667</ele><time>2026-05-03T13:37:28.001Z</time></trkpt><trkpt lat="40.623320232915596" lon="9.685420623873899"><ele>56.333333333333336</ele><time>2026-05-03T13:37:29.001Z</time></trkpt><trkpt lat="40.623243548581506" lon="9.685638087436576"><ele>59.0</ele><time>2026-05-03T13:37:30.001Z</time></trkpt><trkpt lat="40.62317732782824" lon="9.685887380425028"><ele>61.66666666666667</ele><time>2026-05-03T13:37:31.001Z</time></trkpt><trkpt lat="40.62311751691503" lon="9.686143720984237"><ele>64.33333333333333</ele><time>2026-05-03T13:37:32Z</time></trkpt><trkpt lat="40.62308637567716" lon="9.686396282977817"><ele>67.0</ele><time>2026-05-03T13:37:33Z</time></trkpt><trkpt lat="40.623040323617325" lon="9.686504369129349"><ele>67.0</ele><time>2026-05-03T13:37:34Z</time></trkpt><trkpt lat="40.622992859582176" lon="9.686566065166408"><ele>67.0</ele><time>2026-05-03T13:37:35Z</time></trkpt><trkpt lat="40.622923024162574" lon="9.686659784608741"><ele>67.0</ele><time>2026-05-03T13:37:36Z</time></trkpt><trkpt lat="40.62280602768919" lon="9.686760550725323"><ele>67.0</ele><time>2026-05-03T13:37:37Z</time></trkpt><trkpt lat="40.622693421647675" lon="9.686864973971325"><ele>67.0</ele><time>2026-05-03T13:37:38Z</time></trkpt><trkpt lat="40.62262070013873" lon="9.686976379277045"><ele>70.75</ele><time>2026-05-03T13:37:39Z</time></trkpt><trkpt lat="40.62255891545025" lon="9.687035451224533"><ele>74.5</ele><time>2026-05-03T13:37:40Z</time></trkpt><trkpt lat="40.62247594553242" lon="9.68712132948944"><ele>78.25</ele><time>2026-05-03T13:37:41Z</time></trkpt><trkpt lat="40.62235442673981" lon="9.6871868982802"><ele>82.0</ele><time>2026-05-03T13:37:42Z</time></trkpt><trkpt lat="40.622240369870426" lon="9.68729960085885"><ele>82.0</ele><time>2026-05-03T13:37:43Z</time></trkpt><trkpt lat="40.622101993642175" lon="9.687421173535556"><ele>82.0</ele><time>2026-05-03T13:37:44Z</time></trkpt><trkpt lat="40.62195344125474" lon="9.68760998432015"><ele>82.0</ele><time>2026-05-03T13:37:45Z</time></trkpt><trkpt lat="40.621801508626724" lon="9.687805886720263"><ele>90.66666666666666</ele><time>2026-05-03T13:37:46Z</time></trkpt><trkpt lat="40.62164082025555" lon="9.687963451795845"><ele>99.33333333333333</ele><time>2026-05-03T13:37:47Z</time></trkpt><trkpt lat="40.62155457436247" lon="9.688079016763654"><ele>108.0</ele><time>2026-05-03T13:37:48Z</time></trkpt><trkpt lat="40.621456689718784" lon="9.68819015677275"><ele>108.0</ele><time>2026-05-03T13:37:49Z</time></trkpt><trkpt lat="40.621396896823" lon="9.688276473463386"><ele>108.00000000000001</ele><time>2026-05-03T13:37:50Z</time></trkpt><trkpt lat="40.62142964859803" lon="9.688409748832374"><ele>108.00000000000001</ele><time>2026-05-03T13:37:52Z</time></trkpt><trkpt lat="40.62150163348815" lon="9.688470817559516"><ele>108.0</ele><time>2026-05-03T13:37:53Z</time></trkpt><trkpt lat="40.62159092750419" lon="9.688443295828813"><ele>108.0</ele><time>2026-05-03T13:37:54Z</time></trkpt><trkpt lat="40.62170187473875" lon="9.688421193188423"><ele>108.0</ele><time>2026-05-03T13:37:55Z</time></trkpt><trkpt lat="40.62186633523564" lon="9.688426553151572"><ele>108.0</ele><time>2026-05-03T13:37:56Z</time></trkpt><trkpt lat="40.622027086001545" lon="9.688452050569047"><ele>108.0</ele><time>2026-05-03T13:37:57Z</time></trkpt><trkpt lat="40.62213503418818" lon="9.688507359952256"><ele>108.0</ele><time>2026-05-03T13:37:58Z</time></trkpt><trkpt lat="40.62222846806441" lon="9.688578034530067"><ele>105.80000000000001</ele><time>2026-05-03T13:37:59Z</time></trkpt><trkpt lat="40.622271827099276" lon="9.688651773343505"><ele>103.60000000000001</ele><time>2026-05-03T13:38:00Z</time></trkpt><trkpt lat="40.622267736396786" lon="9.68884884638165"><ele>101.4</ele><time>2026-05-03T13:38:02Z</time></trkpt><trkpt lat="40.62226079280907" lon="9.68898838582452"><ele>99.19999999999999</ele><time>2026-05-03T13:38:03Z</time></trkpt><trkpt lat="40.622217229779764" lon="9.689093475303222"><ele>97.0</ele><time>2026-05-03T13:38:04Z</time></trkpt><trkpt lat="40.62211080690195" lon="9.689227123136488"><ele>97.0</ele><time>2026-05-03T13:38:05Z</time></trkpt><trkpt lat="40.621982443124715" lon="9.689405418697687"><ele>97.0</ele><time>2026-05-03T13:38:06Z</time></trkpt><trkpt lat="40.621870018256814" lon="9.689622287357963"><ele>97.0</ele><time>2026-05-03T13:38:07Z</time></trkpt><trkpt lat="40.62175974807393" lon="9.689841004016012"><ele>106.0</ele><time>2026-05-03T13:38:08Z</time></trkpt><trkpt lat="40.62168497443392" lon="9.69001780577751"><ele>115.0</ele><time>2026-05-03T13:38:09Z</time></trkpt><trkpt lat="40.621639398681836" lon="9.690220059908306"><ele>124.0</ele><time>2026-05-03T13:38:10Z</time></trkpt><trkpt lat="40.62157512032271" lon="9.690381691443928"><ele>124.0</ele><time>2026-05-03T13:38:11Z</time></trkpt><trkpt lat="40.62157962448729" lon="9.690480202719922"><ele>124.0</ele><time>2026-05-03T13:38:12Z</time></trkpt><trkpt lat="40.62156328076731" lon="9.690373762628287"><ele>124.0</ele><time>2026-05-03T13:38:16Z</time></trkpt><trkpt lat="40.62159337766946" lon="9.690192808406932"><ele>124.0</ele><time>2026-05-03T13:38:17Z</time></trkpt><trkpt lat="40.621618340589905" lon="9.69000351082906"><ele>124.0</ele><time>2026-05-03T13:38:18Z</time></trkpt><trkpt lat="40.621619042550336" lon="9.68977527864753"><ele>124.0</ele><time>2026-05-03T13:38:19Z</time></trkpt><trkpt lat="40.62161357572588" lon="9.68956210356775"><ele>124.0</ele><time>2026-05-03T13:38:20Z</time></trkpt><trkpt lat="40.621661351629676" lon="9.689370404578632"><ele>124.0</ele><time>2026-05-03T13:38:21Z</time></trkpt><trkpt lat="40.62167044846648" lon="9.689252481215911"><ele>124.0</ele><time>2026-05-03T13:38:22Z</time></trkpt><trkpt lat="40.62164380487997" lon="9.689120999392335"><ele>124.00000000000001</ele><time>2026-05-03T13:38:24Z</time></trkpt><trkpt lat="40.62158507002079" lon="9.689084406957797"><ele>124.0</ele><time>2026-05-03T13:38:25Z</time></trkpt><trkpt lat="40.62151589878435" lon="9.689091997183217"><ele>124.0</ele><time>2026-05-03T13:38:26Z</time></trkpt><trkpt lat="40.621435996835366" lon="9.689124980075816"><ele>124.0</ele><time>2026-05-03T13:38:27Z</time></trkpt><trkpt lat="40.621341541273566" lon="9.689176050273817"><ele>124.00000000000001</ele><time>2026-05-03T13:38:28Z</time></trkpt><trkpt lat="40.621237142999135" lon="9.689228480124656"><ele>124.0</ele><time>2026-05-03T13:38:29Z</time></trkpt><trkpt lat="40.62112599510142" lon="9.68929053589178"><ele>128.0</ele><time>2026-05-03T13:38:30Z</time></trkpt><trkpt lat="40.62097019992857" lon="9.689385873072283"><ele>132.0</ele><time>2026-05-03T13:38:31Z</time></trkpt><trkpt lat="40.62078984919108" lon="9.68947022515463"><ele>136.0</ele><time>2026-05-03T13:38:32Z</time></trkpt><trkpt lat="40.620593237546785" lon="9.689555888811494"><ele>144.66666666666669</ele><time>2026-05-03T13:38:33Z</time></trkpt><trkpt lat="40.62039198946859" lon="9.689593450218155"><ele>153.33333333333334</ele><time>2026-05-03T13:38:34Z</time></trkpt><trkpt lat="40.62017244378826" lon="9.689593394727547"><ele>162.0</ele><time>2026-05-03T13:38:35Z</time></trkpt><trkpt lat="40.61998799907735" lon="9.68957291337096"><ele>159.25</ele><time>2026-05-03T13:38:35.999Z</time></trkpt><trkpt lat="40.61983912562368" lon="9.689537116842088"><ele>156.5</ele><time>2026-05-03T13:38:36.999Z</time></trkpt><trkpt lat="40.61972570173776" lon="9.689494213949489"><ele>153.75</ele><time>2026-05-03T13:38:37.999Z</time></trkpt><trkpt lat="40.619598545091094" lon="9.689423042717303"><ele>151.0</ele><time>2026-05-03T13:38:38.999Z</time></trkpt><trkpt lat="40.61948696096751" lon="9.689394619776557"><ele>161.75</ele><time>2026-05-03T13:38:39.999Z</time></trkpt><trkpt lat="40.61937493506732" lon="9.689492389766217"><ele>172.5</ele><time>2026-05-03T13:38:41.999Z</time></trkpt><trkpt lat="40.61927628207716" lon="9.689585273862804"><ele>183.25</ele><time>2026-05-03T13:38:42.999Z</time></trkpt><trkpt lat="40.61917466861251" lon="9.689671923664056"><ele>194.0</ele><time>2026-05-03T13:38:43.999Z</time></trkpt><trkpt lat="40.61905910942422" lon="9.689723777827304"><ele>194.0</ele><time>2026-05-03T13:38:44.999Z</time></trkpt><trkpt lat="40.61895667036727" lon="9.689762791848493"><ele>194.0</ele><time>2026-05-03T13:38:45.999Z</time></trkpt><trkpt lat="40.61890712612081" lon="9.68969755103847"><ele>194.0</ele><time>2026-05-03T13:38:46.999Z</time></trkpt><trkpt lat="40.61882907162164" lon="9.689552903835038"><ele>194.0</ele><time>2026-05-03T13:38:48.999Z</time></trkpt><trkpt lat="40.618777191449226" lon="9.689677405137749"><ele>194.0</ele><time>2026-05-03T13:38:50.999Z</time></trkpt><trkpt lat="40.61878416857258" lon="9.689767835284892"><ele>194.0</ele><time>2026-05-03T13:38:51.999Z</time></trkpt><trkpt lat="40.618782697364935" lon="9.689888066928503"><ele>194.0</ele><time>2026-05-03T13:38:52.999Z</time></trkpt><trkpt lat="40.61881419090741" lon="9.690041739234053"><ele>194.0</ele><time>2026-05-03T13:38:53.999Z</time></trkpt><trkpt lat="40.61884839981825" lon="9.69016298623401"><ele>194.0</ele><time>2026-05-03T13:38:54.999Z</time></trkpt><trkpt lat="40.61888144788633" lon="9.690259563692708"><ele>194.0</ele><time>2026-05-03T13:38:56.999Z</time></trkpt><trkpt lat="40.61882543342606" lon="9.690307144825681"><ele>194.0</ele><time>2026-05-03T13:38:58.999Z</time></trkpt><trkpt lat="40.61876806752248" lon="9.69019638426703"><ele>194.0</ele><time>2026-05-03T13:39:00.999Z</time></trkpt><trkpt lat="40.61869870617456" lon="9.690068719973093"><ele>194.0</ele><time>2026-05-03T13:39:01.999Z</time></trkpt><trkpt lat="40.61827111592429" lon="9.690232298907837"><ele>201.25</ele><time>2026-05-03T13:39:02.999Z</time></trkpt><trkpt lat="40.61824529921629" lon="9.69012504681485"><ele>208.5</ele><time>2026-05-03T13:39:03.999Z</time></trkpt><trkpt lat="40.61830759726196" lon="9.689979471665945"><ele>215.75</ele><time>2026-05-03T13:39:05.001Z</time></trkpt><trkpt lat="40.61836118998356" lon="9.689835506551372"><ele>223.0</ele><time>2026-05-03T13:39:06.001Z</time></trkpt><trkpt lat="40.61838122861163" lon="9.689610158303887"><ele>223.0</ele><time>2026-05-03T13:39:07.001Z</time></trkpt><trkpt lat="40.618357743290154" lon="9.689451212072903"><ele>223.0</ele><time>2026-05-03T13:39:09.001Z</time></trkpt><trkpt lat="40.61831508324046" lon="9.689373358650483"><ele>223.0</ele><time>2026-05-03T13:39:10Z</time></trkpt><trkpt lat="40.618260778212985" lon="9.689293760885448"><ele>223.0</ele><time>2026-05-03T13:39:11Z</time></trkpt><trkpt lat="40.618181896194365" lon="9.689260050121497"><ele>223.0</ele><time>2026-05-03T13:39:12Z</time></trkpt><trkpt lat="40.61807813163059" lon="9.689258546908603"><ele>220.16666666666666</ele><time>2026-05-03T13:39:13Z</time></trkpt><trkpt lat="40.61801223505808" lon="9.689215271656348"><ele>217.33333333333331</ele><time>2026-05-03T13:39:14Z</time></trkpt><trkpt lat="40.61793191179024" lon="9.689216179329575"><ele>214.5</ele><time>2026-05-03T13:39:15Z</time></trkpt><trkpt lat="40.6178062635679" lon="9.689211674104449"><ele>211.66666666666669</ele><time>2026-05-03T13:39:17Z</time></trkpt><trkpt lat="40.61774195252112" lon="9.689198204907925"><ele>208.83333333333334</ele><time>2026-05-03T13:39:18Z</time></trkpt><trkpt lat="40.61770632458008" lon="9.689084813941792"><ele>206.0</ele><time>2026-05-03T13:39:19Z</time></trkpt><trkpt lat="40.61765186667597" lon="9.688922377490448"><ele>209.0</ele><time>2026-05-03T13:39:20Z</time></trkpt><trkpt lat="40.61760109676225" lon="9.68880583179823"><ele>212.0</ele><time>2026-05-03T13:39:21Z</time></trkpt><trkpt lat="40.61782754287244" lon="9.688101787701463"><ele>212.0</ele><time>2026-05-03T13:39:22Z</time></trkpt><trkpt lat="40.61789310009178" lon="9.688032868996752"><ele>212.0</ele><time>2026-05-03T13:39:23Z</time></trkpt><trkpt lat="40.61801112648602" lon="9.687959673720922"><ele>212.0</ele><time>2026-05-03T13:39:24Z</time></trkpt><trkpt lat="40.61812195275778" lon="9.687907979745033"><ele>212.0</ele><time>2026-05-03T13:39:25Z</time></trkpt><trkpt lat="40.61820281150973" lon="9.687815841334949"><ele>212.0</ele><time>2026-05-03T13:39:26Z</time></trkpt><trkpt lat="40.61823078204788" lon="9.687718440104458"><ele>214.8</ele><time>2026-05-03T13:39:27Z</time></trkpt><trkpt lat="40.61824418700992" lon="9.687578100837392"><ele>217.6</ele><time>2026-05-03T13:39:28Z</time></trkpt><trkpt lat="40.61819285511416" lon="9.687456542982165"><ele>220.40000000000003</ele><time>2026-05-03T13:39:30Z</time></trkpt><trkpt lat="40.61813584565134" lon="9.687393896057403"><ele>223.20000000000002</ele><time>2026-05-03T13:39:31Z</time></trkpt><trkpt lat="40.618025808010806" lon="9.687315308812954"><ele>226.0</ele><time>2026-05-03T13:39:32Z</time></trkpt><trkpt lat="40.61794952168585" lon="9.68723378301335"><ele>226.0</ele><time>2026-05-03T13:39:33Z</time></trkpt><trkpt lat="40.61782525566832" lon="9.68725819881518"><ele>226.00000000000003</ele><time>2026-05-03T13:39:35Z</time></trkpt><trkpt lat="40.61774274966489" lon="9.68733293175583"><ele>226.00000000000003</ele><time>2026-05-03T13:39:36Z</time></trkpt><trkpt lat="40.61768937353086" lon="9.687413293652309"><ele>226.0</ele><time>2026-05-03T13:39:37Z</time></trkpt><trkpt lat="40.61758175934791" lon="9.687455502282694"><ele>226.0</ele><time>2026-05-03T13:39:38Z</time></trkpt><trkpt lat="40.61747829131691" lon="9.687410140116764"><ele>230.16666666666666</ele><time>2026-05-03T13:39:39Z</time></trkpt><trkpt lat="40.61738865584874" lon="9.6873674068069"><ele>234.33333333333331</ele><time>2026-05-03T13:39:40Z</time></trkpt><trkpt lat="40.61732486085036" lon="9.687335999025667"><ele>238.5</ele><time>2026-05-03T13:39:41Z</time></trkpt><trkpt lat="40.61725960106122" lon="9.68733670476455"><ele>242.66666666666669</ele><time>2026-05-03T13:39:42Z</time></trkpt><trkpt lat="40.617164636040265" lon="9.687368931775229"><ele>246.83333333333334</ele><time>2026-05-03T13:39:43Z</time></trkpt><trkpt lat="40.61705492306886" lon="9.687441154633172"><ele>251.0</ele><time>2026-05-03T13:39:44Z</time></trkpt><trkpt lat="40.616991067133156" lon="9.687548383885378"><ele>254.4</ele><time>2026-05-03T13:39:45Z</time></trkpt><trkpt lat="40.61692874426898" lon="9.687578454972046"><ele>257.8</ele><time>2026-05-03T13:39:46Z</time></trkpt><trkpt lat="40.616873502286275" lon="9.687515351852351"><ele>261.20000000000005</ele><time>2026-05-03T13:39:47Z</time></trkpt><trkpt lat="40.61682583591452" lon="9.687419875760517"><ele>264.6</ele><time>2026-05-03T13:39:48Z</time></trkpt><trkpt lat="40.61677875439707" lon="9.687275494655252"><ele>268.0</ele><time>2026-05-03T13:39:49Z</time></trkpt><trkpt lat="40.61670452229883" lon="9.687076034493098"><ele>264.0</ele><time>2026-05-03T13:39:50Z</time></trkpt><trkpt lat="40.61663450669028" lon="9.686894913823956"><ele>260.0</ele><time>2026-05-03T13:39:51Z</time></trkpt><trkpt lat="40.61660103271749" lon="9.686675322463692"><ele>256.0</ele><time>2026-05-03T13:39:52Z</time></trkpt><trkpt lat="40.616585157249695" lon="9.686522266845708"><ele>252.0</ele><time>2026-05-03T13:39:53Z</time></trkpt><trkpt lat="40.61654087298374" lon="9.68641147896047"><ele>252.0</ele><time>2026-05-03T13:39:55Z</time></trkpt><trkpt lat="40.61645531852147" lon="9.686490762274891"><ele>252.0</ele><time>2026-05-03T13:39:57Z</time></trkpt><trkpt lat="40.61641475518722" lon="9.686555523254324"><ele>252.0</ele><time>2026-05-03T13:39:58Z</time></trkpt><trkpt lat="40.61636626515083" lon="9.686651632487033"><ele>252.0</ele><time>2026-05-03T13:39:59Z</time></trkpt><trkpt lat="40.61631021254549" lon="9.686788597172002"><ele>252.0</ele><time>2026-05-03T13:40:00Z</time></trkpt><trkpt lat="40.61622777595762" lon="9.68693079328148"><ele>260.0</ele><time>2026-05-03T13:40:01Z</time></trkpt><trkpt lat="40.61608801942433" lon="9.687013570728995"><ele>268.0</ele><time>2026-05-03T13:40:02Z</time></trkpt><trkpt lat="40.61594448186022" lon="9.687091139392288"><ele>276.0</ele><time>2026-05-03T13:40:03Z</time></trkpt><trkpt lat="40.615853323683766" lon="9.687185767568145"><ele>284.0</ele><time>2026-05-03T13:40:04Z</time></trkpt><trkpt lat="40.615791824061965" lon="9.68731049743999"><ele>284.0</ele><time>2026-05-03T13:40:06Z</time></trkpt><trkpt lat="40.615712145738144" lon="9.687201144675003"><ele>284.0</ele><time>2026-05-03T13:40:08Z</time></trkpt><trkpt lat="40.61569535831156" lon="9.687071149088796"><ele>284.0</ele><time>2026-05-03T13:40:09Z</time></trkpt><trkpt lat="40.615683346218795" lon="9.68691806667313"><ele>284.0</ele><time>2026-05-03T13:40:10Z</time></trkpt><trkpt lat="40.61565600744806" lon="9.68679295805429"><ele>284.0</ele><time>2026-05-03T13:40:11Z</time></trkpt><trkpt lat="40.6156007880134" lon="9.686719315418225"><ele>285.2</ele><time>2026-05-03T13:40:12Z</time></trkpt><trkpt lat="40.61552237162675" lon="9.68667744848036"><ele>286.4</ele><time>2026-05-03T13:40:13Z</time></trkpt><trkpt lat="40.615417506561684" lon="9.686665736605152"><ele>287.6</ele><time>2026-05-03T13:40:14Z</time></trkpt><trkpt lat="40.615281369128446" lon="9.686677829301935"><ele>288.8</ele><time>2026-05-03T13:40:15Z</time></trkpt><trkpt lat="40.615170579689035" lon="9.686674123020204"><ele>290.0</ele><time>2026-05-03T13:40:16Z</time></trkpt><trkpt lat="40.615121831677186" lon="9.68654807196285"><ele>290.0</ele><time>2026-05-03T13:40:18Z</time></trkpt><trkpt lat="40.615156402296385" lon="9.686434491643839"><ele>290.0</ele><time>2026-05-03T13:40:19Z</time></trkpt><trkpt lat="40.61519018188578" lon="9.686293924110892"><ele>290.0</ele><time>2026-05-03T13:40:20Z</time></trkpt><trkpt lat="40.61517697814555" lon="9.68619343998471"><ele>290.0</ele><time>2026-05-03T13:40:21Z</time></trkpt><trkpt lat="40.61511313472103" lon="9.686172554909797"><ele>290.0</ele><time>2026-05-03T13:40:22Z</time></trkpt><trkpt lat="40.61504364949688" lon="9.686152337713358"><ele>290.0</ele><time>2026-05-03T13:40:23Z</time></trkpt><trkpt lat="40.6149414727575" lon="9.686166972135066"><ele>290.0</ele><time>2026-05-03T13:40:24Z</time></trkpt><trkpt lat="40.61481663567077" lon="9.686208443262274"><ele>290.0</ele><time>2026-05-03T13:40:25Z</time></trkpt><trkpt lat="40.61469690435859" lon="9.686232644377053"><ele>290.0</ele><time>2026-05-03T13:40:26Z</time></trkpt><trkpt lat="40.614618239665795" lon="9.686184460744695"><ele>290.0</ele><time>2026-05-03T13:40:26.999Z</time></trkpt><trkpt lat="40.61458560960679" lon="9.686097943119972"><ele>290.0</ele><time>2026-05-03T13:40:27.999Z</time></trkpt><trkpt lat="40.6145729900113" lon="9.686000486996704"><ele>290.6</ele><time>2026-05-03T13:40:28.999Z</time></trkpt><trkpt lat="40.61455258704363" lon="9.68590965392647"><ele>291.2</ele><time>2026-05-03T13:40:29.999Z</time></trkpt><trkpt lat="40.61446682671259" lon="9.685868188136551"><ele>291.8</ele><time>2026-05-03T13:40:31.999Z</time></trkpt><trkpt lat="40.61436667954569" lon="9.685899437632365"><ele>292.4</ele><time>2026-05-03T13:40:32.999Z</time></trkpt><trkpt lat="40.61424139746632" lon="9.68593564150042"><ele>293.0</ele><time>2026-05-03T13:40:33.999Z</time></trkpt><trkpt lat="40.61415647601157" lon="9.685923363561"><ele>293.0</ele><time>2026-05-03T13:40:34.999Z</time></trkpt><trkpt lat="40.61407962279281" lon="9.685772338386501"><ele>293.0</ele><time>2026-05-03T13:40:36.999Z</time></trkpt><trkpt lat="40.61402253574337" lon="9.685643233556371"><ele>293.0</ele><time>2026-05-03T13:40:37.999Z</time></trkpt><trkpt lat="40.61393688139461" lon="9.685543070323469"><ele>293.0</ele><time>2026-05-03T13:40:38.999Z</time></trkpt><trkpt lat="40.613864445582294" lon="9.685468352472835"><ele>293.0</ele><time>2026-05-03T13:40:39.999Z</time></trkpt><trkpt lat="40.613836435002725" lon="9.685361549141323"><ele>293.0</ele><time>2026-05-03T13:40:40.999Z</time></trkpt><trkpt lat="40.61385111445036" lon="9.68518910528978"><ele>293.0</ele><time>2026-05-03T13:40:41.999Z</time></trkpt><trkpt lat="40.613848180995035" lon="9.685045926514253"><ele>293.0</ele><time>2026-05-03T13:40:42.999Z</time></trkpt><trkpt lat="40.6137714844427" lon="9.684988430045097"><ele>293.0</ele><time>2026-05-03T13:40:44.999Z</time></trkpt><trkpt lat="40.613702345322196" lon="9.684982671318568"><ele>295.6</ele><time>2026-05-03T13:40:45.999Z</time></trkpt><trkpt lat="40.61361850468978" lon="9.685007685003436"><ele>298.20000000000005</ele><time>2026-05-03T13:40:53.999Z</time></trkpt><trkpt lat="40.61352097574885" lon="9.685034349836057"><ele>300.8</ele><time>2026-05-03T13:40:55.999Z</time></trkpt><trkpt lat="40.61342768204139" lon="9.685055749103531"><ele>303.40000000000003</ele><time>2026-05-03T13:40:57.999Z</time></trkpt><trkpt lat="40.61332313279474" lon="9.685068729105836"><ele>306.0</ele><time>2026-05-03T13:40:59.999Z</time></trkpt><trkpt lat="40.61320103368008" lon="9.685059257492183"><ele>306.0</ele><time>2026-05-03T13:41:01.999Z</time></trkpt><trkpt lat="40.613143078469335" lon="9.685024712372828"><ele>306.0</ele><time>2026-05-03T13:41:02.999Z</time></trkpt><trkpt lat="40.61307914596125" lon="9.684951176149685"><ele>306.0</ele><time>2026-05-03T13:41:03.999Z</time></trkpt><trkpt lat="40.61301801761571" lon="9.68484727922238"><ele>306.0</ele><time>2026-05-03T13:41:04.999Z</time></trkpt><trkpt lat="40.612978727821016" lon="9.684747782846276"><ele>306.0</ele><time>2026-05-03T13:41:05.999Z</time></trkpt><trkpt lat="40.61298262881737" lon="9.684660634261148"><ele>306.0</ele><time>2026-05-03T13:41:06.999Z</time></trkpt><trkpt lat="40.61302410523458" lon="9.684528080683245"><ele>303.40000000000003</ele><time>2026-05-03T13:41:07.999Z</time></trkpt><trkpt lat="40.61306600502811" lon="9.684417763973508"><ele>300.8</ele><time>2026-05-03T13:41:08.999Z</time></trkpt><trkpt lat="40.613053064345166" lon="9.684323132573555"><ele>298.20000000000005</ele><time>2026-05-03T13:41:11Z</time></trkpt><trkpt lat="40.61296286643804" lon="9.684257918704912"><ele>295.6</ele><time>2026-05-03T13:41:12Z</time></trkpt><trkpt lat="40.61283334726361" lon="9.684184667239688"><ele>293.0</ele><time>2026-05-03T13:41:13Z</time></trkpt><trkpt lat="40.61271639624449" lon="9.684099960918083"><ele>302.75</ele><time>2026-05-03T13:41:14Z</time></trkpt><trkpt lat="40.612664880652446" lon="9.683999914904755"><ele>312.5</ele><time>2026-05-03T13:41:15Z</time></trkpt><trkpt lat="40.61267819840131" lon="9.683884806487649"><ele>322.25</ele><time>2026-05-03T13:41:16Z</time></trkpt><trkpt lat="40.61268204271905" lon="9.683732961359151"><ele>332.0</ele><time>2026-05-03T13:41:17Z</time></trkpt><trkpt lat="40.61271017920389" lon="9.683518571223695"><ele>332.0</ele><time>2026-05-03T13:41:18Z</time></trkpt><trkpt lat="40.61277748706675" lon="9.683331192932284"><ele>332.0</ele><time>2026-05-03T13:41:19Z</time></trkpt><trkpt lat="40.612864654203534" lon="9.683169710209057"><ele>332.0</ele><time>2026-05-03T13:41:20Z</time></trkpt><trkpt lat="40.612925846056264" lon="9.682978178426298"><ele>327.0</ele><time>2026-05-03T13:41:21Z</time></trkpt><trkpt lat="40.61302059473351" lon="9.6828077083739"><ele>322.0</ele><time>2026-05-03T13:41:22Z</time></trkpt><trkpt lat="40.613078106373386" lon="9.682742736902567"><ele>317.0</ele><time>2026-05-03T13:41:23Z</time></trkpt><trkpt lat="40.613094049813625" lon="9.682661602650036"><ele>312.0</ele><time>2026-05-03T13:41:24Z</time></trkpt><trkpt lat="40.61308284085471" lon="9.682549176664942"><ele>307.0</ele><time>2026-05-03T13:41:25Z</time></trkpt><trkpt lat="40.61304990866434" lon="9.682393195214619"><ele>307.0</ele><time>2026-05-03T13:41:26Z</time></trkpt><trkpt lat="40.61301128245419" lon="9.68223275761559"><ele>307.0</ele><time>2026-05-03T13:41:27Z</time></trkpt><trkpt lat="40.61296723491269" lon="9.682108955818343"><ele>307.0</ele><time>2026-05-03T13:41:28Z</time></trkpt><trkpt lat="40.6128781489972" lon="9.68201595478705"><ele>307.0</ele><time>2026-05-03T13:41:29Z</time></trkpt><trkpt lat="40.61277173073014" lon="9.682018624564101"><ele>310.75</ele><time>2026-05-03T13:41:31Z</time></trkpt><trkpt lat="40.61269072866722" lon="9.681977044142561"><ele>314.5</ele><time>2026-05-03T13:41:33Z</time></trkpt><trkpt lat="40.61269169005184" lon="9.681799440382047"><ele>318.25</ele><time>2026-05-03T13:41:35Z</time></trkpt><trkpt lat="40.61271976509791" lon="9.68165370703264"><ele>322.0</ele><time>2026-05-03T13:41:36Z</time></trkpt><trkpt lat="40.61274379583258" lon="9.681486016536061"><ele>322.0</ele><time>2026-05-03T13:41:37Z</time></trkpt><trkpt lat="40.61274875432939" lon="9.681313857370776"><ele>322.0</ele><time>2026-05-03T13:41:38Z</time></trkpt><trkpt lat="40.61272961227137" lon="9.681195611284712"><ele>322.0</ele><time>2026-05-03T13:41:39Z</time></trkpt><trkpt lat="40.61259189872264" lon="9.681132247599686"><ele>322.0</ele><time>2026-05-03T13:41:41Z</time></trkpt><trkpt lat="40.61247110761605" lon="9.681128370745046"><ele>319.75</ele><time>2026-05-03T13:41:42Z</time></trkpt><trkpt lat="40.61235341323928" lon="9.681062789103958"><ele>317.5</ele><time>2026-05-03T13:41:43Z</time></trkpt><trkpt lat="40.61225268415403" lon="9.680962038900057"><ele>315.25</ele><time>2026-05-03T13:41:44Z</time></trkpt><trkpt lat="40.61211855925086" lon="9.68086242454617"><ele>313.0</ele><time>2026-05-03T13:41:45Z</time></trkpt><trkpt lat="40.611974310699075" lon="9.680766550245579"><ele>312.25</ele><time>2026-05-03T13:41:46Z</time></trkpt><trkpt lat="40.61188881680503" lon="9.68064077488339"><ele>311.5</ele><time>2026-05-03T13:41:47Z</time></trkpt><trkpt lat="40.61181545727523" lon="9.680494470670004"><ele>310.75</ele><time>2026-05-03T13:41:48Z</time></trkpt><trkpt lat="40.61175706460242" lon="9.680365459564602"><ele>310.0</ele><time>2026-05-03T13:41:49Z</time></trkpt><trkpt lat="40.61171070086074" lon="9.680181844662208"><ele>309.25</ele><time>2026-05-03T13:41:50Z</time></trkpt><trkpt lat="40.61166034647747" lon="9.68002425941155"><ele>308.5</ele><time>2026-05-03T13:41:51Z</time></trkpt><trkpt lat="40.61161234240149" lon="9.679880933381241"><ele>307.75</ele><time>2026-05-03T13:41:52Z</time></trkpt><trkpt lat="40.61156925135036" lon="9.679718003952784"><ele>307.0</ele><time>2026-05-03T13:41:53Z</time></trkpt><trkpt lat="40.61151900741249" lon="9.679517943681661"><ele>304.25</ele><time>2026-05-03T13:41:54Z</time></trkpt><trkpt lat="40.611471332955865" lon="9.679355947355118"><ele>301.5</ele><time>2026-05-03T13:41:55Z</time></trkpt><trkpt lat="40.61140139246196" lon="9.679201205423384"><ele>298.75</ele><time>2026-05-03T13:41:56Z</time></trkpt><trkpt lat="40.611297292297444" lon="9.679046583275964"><ele>296.0</ele><time>2026-05-03T13:41:57Z</time></trkpt><trkpt lat="40.611200903429136" lon="9.678923446972856"><ele>295.0</ele><time>2026-05-03T13:41:58Z</time></trkpt><trkpt lat="40.61109724780707" lon="9.678811613011543"><ele>294.0</ele><time>2026-05-03T13:41:59Z</time></trkpt><trkpt lat="40.611001267455755" lon="9.678675152294545"><ele>293.0</ele><time>2026-05-03T13:42:00Z</time></trkpt><trkpt lat="40.61089814160993" lon="9.678497717633594"><ele>292.0</ele><time>2026-05-03T13:42:01Z</time></trkpt><trkpt lat="40.61078771662436" lon="9.678344245645842"><ele>292.0</ele><time>2026-05-03T13:42:02Z</time></trkpt><trkpt lat="40.61073151416987" lon="9.678193405195275"><ele>292.0</ele><time>2026-05-03T13:42:03Z</time></trkpt><trkpt lat="40.6107213592454" lon="9.677994103016726"><ele>292.0</ele><time>2026-05-03T13:42:04Z</time></trkpt><trkpt lat="40.61072710937711" lon="9.677782177688092"><ele>292.0</ele><time>2026-05-03T13:42:05Z</time></trkpt><trkpt lat="40.61076145055143" lon="9.677599848314967"><ele>291.16666666666663</ele><time>2026-05-03T13:42:06Z</time></trkpt><trkpt lat="40.61079178003088" lon="9.677471693187913"><ele>290.3333333333333</ele><time>2026-05-03T13:42:07Z</time></trkpt><trkpt lat="40.61078184231468" lon="9.677360237187731"><ele>289.5</ele><time>2026-05-03T13:42:08Z</time></trkpt><trkpt lat="40.610760228650996" lon="9.677245472516942"><ele>288.6666666666667</ele><time>2026-05-03T13:42:09Z</time></trkpt><trkpt lat="40.610726751214955" lon="9.677139472882848"><ele>287.83333333333337</ele><time>2026-05-03T13:42:10Z</time></trkpt><trkpt lat="40.61069543964313" lon="9.677043388201021"><ele>287.0</ele><time>2026-05-03T13:42:11Z</time></trkpt><trkpt lat="40.61060265966092" lon="9.67696693266868"><ele>287.0</ele><time>2026-05-03T13:42:13Z</time></trkpt><trkpt lat="40.61050755068034" lon="9.677024401725307"><ele>287.0</ele><time>2026-05-03T13:42:14Z</time></trkpt><trkpt lat="40.61035688873569" lon="9.677072191375823"><ele>287.0</ele><time>2026-05-03T13:42:15Z</time></trkpt><trkpt lat="40.610171944091356" lon="9.677095834060909"><ele>287.0</ele><time>2026-05-03T13:42:16Z</time></trkpt><trkpt lat="40.6099644072977" lon="9.677097038857141"><ele>285.33333333333337</ele><time>2026-05-03T13:42:17Z</time></trkpt><trkpt lat="40.609740247247466" lon="9.677109158114797"><ele>283.6666666666667</ele><time>2026-05-03T13:42:18Z</time></trkpt><trkpt lat="40.60954297330916" lon="9.677141586109718"><ele>282.0</ele><time>2026-05-03T13:42:19Z</time></trkpt><trkpt lat="40.609422446936755" lon="9.677152324048201"><ele>285.4</ele><time>2026-05-03T13:42:20Z</time></trkpt><trkpt lat="40.609341162875346" lon="9.677139858518268"><ele>288.79999999999995</ele><time>2026-05-03T13:42:21Z</time></trkpt><trkpt lat="40.60923967763613" lon="9.677141250519325"><ele>292.2</ele><time>2026-05-03T13:42:22Z</time></trkpt><trkpt lat="40.609147061466786" lon="9.677145082546533"><ele>295.59999999999997</ele><time>2026-05-03T13:42:23Z</time></trkpt><trkpt lat="40.609067950780634" lon="9.677132644740645"><ele>299.0</ele><time>2026-05-03T13:42:24Z</time></trkpt><trkpt lat="40.60896403510047" lon="9.67714858217294"><ele>299.0</ele><time>2026-05-03T13:42:25Z</time></trkpt><trkpt lat="40.6088338041028" lon="9.677175215767557"><ele>299.0</ele><time>2026-05-03T13:42:26Z</time></trkpt><trkpt lat="40.608713616353526" lon="9.677182037734813"><ele>299.0</ele><time>2026-05-03T13:42:27Z</time></trkpt><trkpt lat="40.608639836955476" lon="9.677144750495469"><ele>299.0</ele><time>2026-05-03T13:42:28Z</time></trkpt><trkpt lat="40.60858411493992" lon="9.677093732687455"><ele>299.0</ele><time>2026-05-03T13:42:28.999Z</time></trkpt><trkpt lat="40.608503585689284" lon="9.677016433224512"><ele>300.33333333333337</ele><time>2026-05-03T13:42:29.999Z</time></trkpt><trkpt lat="40.60844810086698" lon="9.676971650498238"><ele>301.6666666666667</ele><time>2026-05-03T13:42:30.999Z</time></trkpt><trkpt lat="40.6083648128627" lon="9.676848853341124"><ele>303.0</ele><time>2026-05-03T13:42:32.999Z</time></trkpt><trkpt lat="40.608332621820736" lon="9.676776726383245"><ele>304.3333333333333</ele><time>2026-05-03T13:42:33.999Z</time></trkpt><trkpt lat="40.608305042966315" lon="9.67668057438186"><ele>305.66666666666663</ele><time>2026-05-03T13:42:34.999Z</time></trkpt><trkpt lat="40.60826853484909" lon="9.676582229138523"><ele>307.0</ele><time>2026-05-03T13:42:35.999Z</time></trkpt><trkpt lat="40.608226581696805" lon="9.676487188459278"><ele>307.5</ele><time>2026-05-03T13:42:36.999Z</time></trkpt><trkpt lat="40.608159377830816" lon="9.676352748472068"><ele>308.0</ele><time>2026-05-03T13:42:37.999Z</time></trkpt><trkpt lat="40.608080294170584" lon="9.67620487581613"><ele>308.5</ele><time>2026-05-03T13:42:38.999Z</time></trkpt><trkpt lat="40.60803304087881" lon="9.676043318658317"><ele>309.0</ele><time>2026-05-03T13:42:39.999Z</time></trkpt><trkpt lat="40.60801805507486" lon="9.675951155941135"><ele>308.8</ele><time>2026-05-03T13:42:40.999Z</time></trkpt><trkpt lat="40.607980541976936" lon="9.675820659833182"><ele>308.59999999999997</ele><time>2026-05-03T13:42:42.999Z</time></trkpt><trkpt lat="40.60793032493192" lon="9.675744541821489"><ele>308.4</ele><time>2026-05-03T13:42:43.999Z</time></trkpt><trkpt lat="40.60786107058558" lon="9.675629683295405"><ele>308.2</ele><time>2026-05-03T13:42:44.999Z</time></trkpt><trkpt lat="40.60778561784234" lon="9.675496196878951"><ele>308.0</ele><time>2026-05-03T13:42:45.999Z</time></trkpt><trkpt lat="40.60771346201557" lon="9.675337654628747"><ele>307.75</ele><time>2026-05-03T13:42:46.999Z</time></trkpt><trkpt lat="40.60765038505297" lon="9.675153915446534"><ele>307.5</ele><time>2026-05-03T13:42:47.999Z</time></trkpt><trkpt lat="40.60762364604835" lon="9.675005416775507"><ele>307.25</ele><time>2026-05-03T13:42:48.999Z</time></trkpt><trkpt lat="40.6076136546541" lon="9.674886089616296"><ele>307.0</ele><time>2026-05-03T13:42:49.999Z</time></trkpt><trkpt lat="40.607630389752295" lon="9.674770240449828"><ele>307.0</ele><time>2026-05-03T13:42:50.999Z</time></trkpt><trkpt lat="40.607589520950334" lon="9.674601514867478"><ele>307.0</ele><time>2026-05-03T13:42:52.999Z</time></trkpt><trkpt lat="40.60752389106817" lon="9.67447822355113"><ele>307.0</ele><time>2026-05-03T13:42:53.999Z</time></trkpt><trkpt lat="40.60744595843513" lon="9.674323251278869"><ele>307.0</ele><time>2026-05-03T13:42:54.999Z</time></trkpt><trkpt lat="40.60739175054885" lon="9.674219113699595"><ele>306.25</ele><time>2026-05-03T13:42:55.999Z</time></trkpt><trkpt lat="40.607355160640054" lon="9.674099357296976"><ele>305.5</ele><time>2026-05-03T13:42:56.999Z</time></trkpt><trkpt lat="40.60733926197975" lon="9.67393112162013"><ele>304.75</ele><time>2026-05-03T13:42:57.999Z</time></trkpt><trkpt lat="40.607343144386896" lon="9.673742604753967"><ele>304.0</ele><time>2026-05-03T13:42:58.999Z</time></trkpt><trkpt lat="40.60735640644598" lon="9.673575847835481"><ele>304.0</ele><time>2026-05-03T13:42:59.999Z</time></trkpt><trkpt lat="40.60740913376219" lon="9.673413477204077"><ele>304.0</ele><time>2026-05-03T13:43:00.999Z</time></trkpt><trkpt lat="40.60747597189687" lon="9.673297235527595"><ele>304.0</ele><time>2026-05-03T13:43:01.999Z</time></trkpt><trkpt lat="40.607501276816905" lon="9.673201773855501"><ele>304.0</ele><time>2026-05-03T13:43:02.999Z</time></trkpt><trkpt lat="40.607520636502855" lon="9.673086288477197"><ele>304.0</ele><time>2026-05-03T13:43:03.999Z</time></trkpt><trkpt lat="40.60750327355263" lon="9.672970936773863"><ele>304.0</ele><time>2026-05-03T13:43:04.999Z</time></trkpt><trkpt lat="40.60748538039857" lon="9.672835014107763"><ele>304.0</ele><time>2026-05-03T13:43:05.999Z</time></trkpt><trkpt lat="40.60745805067278" lon="9.672701680666721"><ele>304.0</ele><time>2026-05-03T13:43:06.999Z</time></trkpt><trkpt lat="40.60744572004412" lon="9.672569157268263"><ele>304.0</ele><time>2026-05-03T13:43:07.999Z</time></trkpt><trkpt lat="40.60743956874738" lon="9.67245492726804"><ele>304.0</ele><time>2026-05-03T13:43:08.999Z</time></trkpt><trkpt lat="40.60742768119819" lon="9.672337502426577"><ele>303.4</ele><time>2026-05-03T13:43:09.999Z</time></trkpt><trkpt lat="40.60742084606635" lon="9.67221722177104"><ele>302.79999999999995</ele><time>2026-05-03T13:43:10.999Z</time></trkpt><trkpt lat="40.60736968360608" lon="9.672087290421556"><ele>302.20000000000005</ele><time>2026-05-03T13:43:12.999Z</time></trkpt><trkpt lat="40.60729017893328" lon="9.67206902712434"><ele>301.6</ele><time>2026-05-03T13:43:13.999Z</time></trkpt><trkpt lat="40.60719669247588" lon="9.672023087430004"><ele>301.0</ele><time>2026-05-03T13:43:14.999Z</time></trkpt><trkpt lat="40.60710485505212" lon="9.671895709329634"><ele>300.0</ele><time>2026-05-03T13:43:15.999Z</time></trkpt><trkpt lat="40.607060492252685" lon="9.67179082581993"><ele>299.0</ele><time>2026-05-03T13:43:17Z</time></trkpt><trkpt lat="40.607060197330995" lon="9.671683341600362"><ele>298.0</ele><time>2026-05-03T13:43:18Z</time></trkpt><trkpt lat="40.607063567708444" lon="9.671550007693453"><ele>297.0</ele><time>2026-05-03T13:43:19Z</time></trkpt><trkpt lat="40.60706394752636" lon="9.671454884669364"><ele>296.0</ele><time>2026-05-03T13:43:20Z</time></trkpt><trkpt lat="40.60706382678763" lon="9.671320658279932"><ele>295.0</ele><time>2026-05-03T13:43:22Z</time></trkpt><trkpt lat="40.6070848931253" lon="9.671168074927236"><ele>295.3333333333333</ele><time>2026-05-03T13:43:24Z</time></trkpt><trkpt lat="40.60708246521187" lon="9.67107833552524"><ele>295.66666666666663</ele><time>2026-05-03T13:43:25Z</time></trkpt><trkpt lat="40.60705799600451" lon="9.670978068968667"><ele>296.0</ele><time>2026-05-03T13:43:26Z</time></trkpt><trkpt lat="40.60703254459021" lon="9.670893032073938"><ele>296.3333333333333</ele><time>2026-05-03T13:43:27Z</time></trkpt><trkpt lat="40.606998662192375" lon="9.670752061499261"><ele>296.6666666666667</ele><time>2026-05-03T13:43:29Z</time></trkpt><trkpt lat="40.6069651964706" lon="9.670659198696214"><ele>297.0</ele><time>2026-05-03T13:43:30Z</time></trkpt><trkpt lat="40.60692597040924" lon="9.670576186271342"><ele>297.0</ele><time>2026-05-03T13:43:31Z</time></trkpt><trkpt lat="40.606883782324765" lon="9.670466934634346"><ele>297.0</ele><time>2026-05-03T13:43:32Z</time></trkpt><trkpt lat="40.60682525845793" lon="9.67034098980686"><ele>297.0</ele><time>2026-05-03T13:43:33Z</time></trkpt><trkpt lat="40.60677653733948" lon="9.67016627154326"><ele>297.0</ele><time>2026-05-03T13:43:34Z</time></trkpt><trkpt lat="40.606712595573335" lon="9.669947204165467"><ele>294.5</ele><time>2026-05-03T13:43:35Z</time></trkpt><trkpt lat="40.60664464816068" lon="9.669754146097517"><ele>292.0</ele><time>2026-05-03T13:43:36Z</time></trkpt><trkpt lat="40.606571601978395" lon="9.669565221155324"><ele>289.5</ele><time>2026-05-03T13:43:37Z</time></trkpt><trkpt lat="40.606515800086726" lon="9.669446665518445"><ele>287.0</ele><time>2026-05-03T13:43:38Z</time></trkpt><trkpt lat="40.60645132378891" lon="9.669326796277902"><ele>285.8</ele><time>2026-05-03T13:43:39Z</time></trkpt><trkpt lat="40.60640241987274" lon="9.669220601091737"><ele>284.6</ele><time>2026-05-03T13:43:40Z</time></trkpt><trkpt lat="40.60634754705561" lon="9.669129778847907"><ele>283.40000000000003</ele><time>2026-05-03T13:43:41Z</time></trkpt><trkpt lat="40.60633726964787" lon="9.668971788559018"><ele>282.2</ele><time>2026-05-03T13:43:43Z</time></trkpt><trkpt lat="40.60631665930326" lon="9.668824843679012"><ele>281.0</ele><time>2026-05-03T13:43:45Z</time></trkpt><trkpt lat="40.60628769084877" lon="9.66871726166568"><ele>279.40000000000003</ele><time>2026-05-03T13:43:46Z</time></trkpt><trkpt lat="40.606267554856494" lon="9.668579068921208"><ele>277.8</ele><time>2026-05-03T13:43:47Z</time></trkpt><trkpt lat="40.60627358156248" lon="9.668446627157488"><ele>276.20000000000005</ele><time>2026-05-03T13:43:48Z</time></trkpt><trkpt lat="40.60627721579546" lon="9.668299268764128"><ele>274.6</ele><time>2026-05-03T13:43:49Z</time></trkpt><trkpt lat="40.60627553508023" lon="9.668169971345316"><ele>273.0</ele><time>2026-05-03T13:43:50Z</time></trkpt><trkpt lat="40.606268127999066" lon="9.668074945192329"><ele>273.0</ele><time>2026-05-03T13:43:51Z</time></trkpt><trkpt lat="40.60625813076006" lon="9.667966831610638"><ele>273.0</ele><time>2026-05-03T13:43:52Z</time></trkpt><trkpt lat="40.60627743640578" lon="9.667808943915892"><ele>273.0</ele><time>2026-05-03T13:43:53Z</time></trkpt><trkpt lat="40.60630651801092" lon="9.667667423411466"><ele>273.0</ele><time>2026-05-03T13:43:54Z</time></trkpt><trkpt lat="40.606323357235" lon="9.667551203936812"><ele>273.0</ele><time>2026-05-03T13:43:55Z</time></trkpt><trkpt lat="40.60631299798585" lon="9.66742342057295"><ele>273.57142857142856</ele><time>2026-05-03T13:43:56Z</time></trkpt><trkpt lat="40.60633508080928" lon="9.667314870641812"><ele>274.1428571428571</ele><time>2026-05-03T13:43:57Z</time></trkpt><trkpt lat="40.60636343970174" lon="9.667202968976635"><ele>274.7142857142857</ele><time>2026-05-03T13:43:58Z</time></trkpt><trkpt lat="40.606389403772255" lon="9.667115011434658"><ele>275.2857142857143</ele><time>2026-05-03T13:43:59Z</time></trkpt><trkpt lat="40.60640047999668" lon="9.667032494590114"><ele>275.85714285714283</ele><time>2026-05-03T13:44:00Z</time></trkpt><trkpt lat="40.60641295734024" lon="9.666944414895495"><ele>276.42857142857144</ele><time>2026-05-03T13:44:01Z</time></trkpt><trkpt lat="40.606423428242806" lon="9.666852534672445"><ele>277.0</ele><time>2026-05-03T13:44:02Z</time></trkpt><trkpt lat="40.60642536500474" lon="9.66671718145884"><ele>279.8</ele><time>2026-05-03T13:44:03Z</time></trkpt><trkpt lat="40.60642351251652" lon="9.666513552022915"><ele>282.6</ele><time>2026-05-03T13:44:04Z</time></trkpt><trkpt lat="40.606422473261034" lon="9.66636882738744"><ele>285.40000000000003</ele><time>2026-05-03T13:44:05Z</time></trkpt><trkpt lat="40.60642446596027" lon="9.666246231906147"><ele>288.2</ele><time>2026-05-03T13:44:06Z</time></trkpt><trkpt lat="40.60645680129019" lon="9.666137666869151"><ele>291.0</ele><time>2026-05-03T13:44:07Z</time></trkpt><trkpt lat="40.606469030489684" lon="9.666009896530502"><ele>292.3333333333333</ele><time>2026-05-03T13:44:08Z</time></trkpt><trkpt lat="40.606485117146256" lon="9.665905079621927"><ele>293.6666666666667</ele><time>2026-05-03T13:44:09Z</time></trkpt><trkpt lat="40.6064944686996" lon="9.665812306211308"><ele>295.0</ele><time>2026-05-03T13:44:10Z</time></trkpt><trkpt lat="40.6064252657859" lon="9.665739314254541"><ele>296.33333333333337</ele><time>2026-05-03T13:44:12Z</time></trkpt><trkpt lat="40.60635290874052" lon="9.665683500731735"><ele>297.6666666666667</ele><time>2026-05-03T13:44:13Z</time></trkpt><trkpt lat="40.606234445974714" lon="9.66563611901715"><ele>299.0</ele><time>2026-05-03T13:44:14Z</time></trkpt><trkpt lat="40.60609560639294" lon="9.665607604131534"><ele>303.25</ele><time>2026-05-03T13:44:15Z</time></trkpt><trkpt lat="40.60597254312139" lon="9.665569506392881"><ele>307.5</ele><time>2026-05-03T13:44:16Z</time></trkpt><trkpt lat="40.605861851473904" lon="9.665528211573722"><ele>311.75</ele><time>2026-05-03T13:44:17Z</time></trkpt><trkpt lat="40.605731112010695" lon="9.665469949949832"><ele>316.0</ele><time>2026-05-03T13:44:18Z</time></trkpt><trkpt lat="40.60561204307882" lon="9.665430236659704"><ele>316.0</ele><time>2026-05-03T13:44:19Z</time></trkpt><trkpt lat="40.605523939825815" lon="9.665414610308455"><ele>316.0</ele><time>2026-05-03T13:44:20Z</time></trkpt><trkpt lat="40.60544152174868" lon="9.665396421419835"><ele>316.0</ele><time>2026-05-03T13:44:20.999Z</time></trkpt><trkpt lat="40.60537736906888" lon="9.66539258947645"><ele>316.0</ele><time>2026-05-03T13:44:21.999Z</time></trkpt><trkpt lat="40.605264597275806" lon="9.665368264318541"><ele>316.0</ele><time>2026-05-03T13:44:23.999Z</time></trkpt><trkpt lat="40.605191605196794" lon="9.665361605656539"><ele>316.0</ele><time>2026-05-03T13:44:24.999Z</time></trkpt><trkpt lat="40.605118670504666" lon="9.665314458145335"><ele>321.8</ele><time>2026-05-03T13:44:26.999Z</time></trkpt><trkpt lat="40.60503856726319" lon="9.6652310352294"><ele>327.6</ele><time>2026-05-03T13:44:28.999Z</time></trkpt><trkpt lat="40.60498048897426" lon="9.665155858301807"><ele>333.4</ele><time>2026-05-03T13:44:29.999Z</time></trkpt><trkpt lat="40.604937754498636" lon="9.665061522643981"><ele>339.2</ele><time>2026-05-03T13:44:30.999Z</time></trkpt><trkpt lat="40.60490514224496" lon="9.664953952442085"><ele>345.0</ele><time>2026-05-03T13:44:31.999Z</time></trkpt><trkpt lat="40.604872098241685" lon="9.6648073347071"><ele>345.0</ele><time>2026-05-03T13:44:32.999Z</time></trkpt><trkpt lat="40.60486612330252" lon="9.664677207276426"><ele>345.0</ele><time>2026-05-03T13:44:33.999Z</time></trkpt><trkpt lat="40.60488673804081" lon="9.664572132208784"><ele>345.0</ele><time>2026-05-03T13:44:34.999Z</time></trkpt><trkpt lat="40.60490015923633" lon="9.664464249078875"><ele>345.0</ele><time>2026-05-03T13:44:35.999Z</time></trkpt><trkpt lat="40.6049060735046" lon="9.664346839713048"><ele>345.0</ele><time>2026-05-03T13:44:36.999Z</time></trkpt><trkpt lat="40.604909137229015" lon="9.664237417016306"><ele>345.0</ele><time>2026-05-03T13:44:37.999Z</time></trkpt><trkpt lat="40.60489855534404" lon="9.664124185713172"><ele>345.4</ele><time>2026-05-03T13:44:38.999Z</time></trkpt><trkpt lat="40.604891367193034" lon="9.664012755101869"><ele>345.8</ele><time>2026-05-03T13:44:39.999Z</time></trkpt><trkpt lat="40.604906436265374" lon="9.663915347155525"><ele>346.20000000000005</ele><time>2026-05-03T13:44:40.999Z</time></trkpt><trkpt lat="40.604876607699936" lon="9.663762877098787"><ele>346.6</ele><time>2026-05-03T13:44:42.999Z</time></trkpt><trkpt lat="40.604844812768505" lon="9.663636644575073"><ele>347.0</ele><time>2026-05-03T13:44:43.999Z</time></trkpt><trkpt lat="40.60481326921645" lon="9.663512457628165"><ele>347.8</ele><time>2026-05-03T13:44:44.999Z</time></trkpt><trkpt lat="40.60481559764931" lon="9.663370884918097"><ele>348.6</ele><time>2026-05-03T13:44:46.999Z</time></trkpt><trkpt lat="40.60485660624634" lon="9.663248921164575"><ele>349.40000000000003</ele><time>2026-05-03T13:44:47.999Z</time></trkpt><trkpt lat="40.60489489785027" lon="9.663109167656852"><ele>350.20000000000005</ele><time>2026-05-03T13:44:48.999Z</time></trkpt><trkpt lat="40.604864545574635" lon="9.66298499667605"><ele>351.0</ele><time>2026-05-03T13:44:50.999Z</time></trkpt><trkpt lat="40.604815298593174" lon="9.662888495938104"><ele>351.0</ele><time>2026-05-03T13:44:51.999Z</time></trkpt><trkpt lat="40.60475107632441" lon="9.662793290261583"><ele>351.0</ele><time>2026-05-03T13:44:52.999Z</time></trkpt><trkpt lat="40.60468336999464" lon="9.66269784474341"><ele>351.0</ele><time>2026-05-03T13:44:53.999Z</time></trkpt><trkpt lat="40.604624199033445" lon="9.662595518170063"><ele>351.0</ele><time>2026-05-03T13:44:54.999Z</time></trkpt><trkpt lat="40.604580127144786" lon="9.6625069708253"><ele>351.0</ele><time>2026-05-03T13:44:55.999Z</time></trkpt><trkpt lat="40.604513222561735" lon="9.66240576808697"><ele>355.5</ele><time>2026-05-03T13:44:56.999Z</time></trkpt><trkpt lat="40.60445853290178" lon="9.662304022101546"><ele>360.0</ele><time>2026-05-03T13:44:57.999Z</time></trkpt><trkpt lat="40.60441376809038" lon="9.662190383914396"><ele>364.5</ele><time>2026-05-03T13:44:58.999Z</time></trkpt><trkpt lat="40.604389434038566" lon="9.662086953490675"><ele>369.0</ele><time>2026-05-03T13:44:59.999Z</time></trkpt><trkpt lat="40.60439137534594" lon="9.661983232865245"><ele>373.5</ele><time>2026-05-03T13:45:00.999Z</time></trkpt><trkpt lat="40.6044071026135" lon="9.661882675642062"><ele>378.0</ele><time>2026-05-03T13:45:01.999Z</time></trkpt><trkpt lat="40.60446252303823" lon="9.661772514941246"><ele>375.3333333333333</ele><time>2026-05-03T13:45:03.999Z</time></trkpt><trkpt lat="40.60455654241039" lon="9.661722399603503"><ele>372.6666666666667</ele><time>2026-05-03T13:45:05.999Z</time></trkpt><trkpt lat="40.60462779377104" lon="9.661725483646022"><ele>370.0</ele><time>2026-05-03T13:45:08.999Z</time></trkpt><trkpt lat="40.604674298409435" lon="9.661647498840921"><ele>367.33333333333337</ele><time>2026-05-03T13:45:10.999Z</time></trkpt><trkpt lat="40.6047227137564" lon="9.661479594754551"><ele>364.6666666666667</ele><time>2026-05-03T13:45:11.999Z</time></trkpt><trkpt lat="40.60473436073101" lon="9.661396046725184"><ele>362.0</ele><time>2026-05-03T13:45:12.999Z</time></trkpt><trkpt lat="40.60477201733393" lon="9.661276428145731"><ele>362.0</ele><time>2026-05-03T13:45:14.999Z</time></trkpt><trkpt lat="40.60481519922354" lon="9.661194188475347"><ele>362.0</ele><time>2026-05-03T13:45:16.999Z</time></trkpt><trkpt lat="40.604901153773966" lon="9.661187158039127"><ele>362.0</ele><time>2026-05-03T13:45:18.999Z</time></trkpt><trkpt lat="40.60496695851813" lon="9.661202006785626"><ele>362.0</ele><time>2026-05-03T13:45:20.999Z</time></trkpt><trkpt lat="40.60503700889373" lon="9.661183882257301"><ele>362.0</ele><time>2026-05-03T13:45:25Z</time></trkpt><trkpt lat="40.60513469448104" lon="9.661120395217045"><ele>362.0</ele><time>2026-05-03T13:45:28Z</time></trkpt><trkpt lat="40.605227600493436" lon="9.661093667915118"><ele>362.0</ele><time>2026-05-03T13:45:30Z</time></trkpt><trkpt lat="40.60529998605786" lon="9.661159661721058"><ele>362.0</ele><time>2026-05-03T13:45:33Z</time></trkpt><trkpt lat="40.605402469395585" lon="9.66111786297285"><ele>362.0</ele><time>2026-05-03T13:45:35Z</time></trkpt><trkpt lat="40.60551136596864" lon="9.661126165491483"><ele>362.0</ele><time>2026-05-03T13:45:37Z</time></trkpt><trkpt lat="40.60557452969525" lon="9.661121460770334"><ele>362.0</ele><time>2026-05-03T13:45:38Z</time></trkpt><trkpt lat="40.60568884812509" lon="9.661097547204122"><ele>355.5</ele><time>2026-05-03T13:45:40Z</time></trkpt><trkpt lat="40.605792279274276" lon="9.661096647815002"><ele>349.0</ele><time>2026-05-03T13:45:42Z</time></trkpt><trkpt lat="40.605871614050685" lon="9.661115869670091"><ele>342.5</ele><time>2026-05-03T13:45:44Z</time></trkpt><trkpt lat="40.60593722814641" lon="9.66113810371208"><ele>336.0</ele><time>2026-05-03T13:45:47Z</time></trkpt><trkpt lat="40.60601179141765" lon="9.661117320959004"><ele>329.5</ele><time>2026-05-03T13:45:50Z</time></trkpt><trkpt lat="40.606086674696996" lon="9.66101412721201"><ele>323.0</ele><time>2026-05-03T13:45:52Z</time></trkpt><trkpt lat="40.60613890833536" lon="9.660951709934292"><ele>317.4</ele><time>2026-05-03T13:45:54Z</time></trkpt><trkpt lat="40.606234353307585" lon="9.660917634199619"><ele>311.79999999999995</ele><time>2026-05-03T13:45:58Z</time></trkpt><trkpt lat="40.60633966250024" lon="9.660808861716452"><ele>306.2</ele><time>2026-05-03T13:46:01Z</time></trkpt><trkpt lat="40.6064423088427" lon="9.660698064659002"><ele>300.6</ele><time>2026-05-03T13:46:03Z</time></trkpt><trkpt lat="40.60649401433206" lon="9.66064555466205"><ele>295.0</ele><time>2026-05-03T13:46:04Z</time></trkpt><trkpt lat="40.60660459293887" lon="9.66058131299193"><ele>295.0</ele><time>2026-05-03T13:46:06Z</time></trkpt><trkpt lat="40.60672220223284" lon="9.660531316674088"><ele>295.0</ele><time>2026-05-03T13:46:08Z</time></trkpt><trkpt lat="40.60678296609703" lon="9.660504025899884"><ele>295.0</ele><time>2026-05-03T13:46:09Z</time></trkpt><trkpt lat="40.606881609012895" lon="9.660426420417096"><ele>295.0</ele><time>2026-05-03T13:46:11Z</time></trkpt><trkpt lat="40.60696803455479" lon="9.660351005322608"><ele>295.0</ele><time>2026-05-03T13:46:13Z</time></trkpt><trkpt lat="40.60705397839875" lon="9.660279794606522"><ele>292.2</ele><time>2026-05-03T13:46:15Z</time></trkpt><trkpt lat="40.60716219002976" lon="9.6602447367927"><ele>289.4</ele><time>2026-05-03T13:46:17Z</time></trkpt><trkpt lat="40.60728668091306" lon="9.6602224837774"><ele>286.6</ele><time>2026-05-03T13:46:19Z</time></trkpt><trkpt lat="40.607361974632255" lon="9.660206728881699"><ele>283.8</ele><time>2026-05-03T13:46:20Z</time></trkpt><trkpt lat="40.60743365082123" lon="9.660194120143327"><ele>281.0</ele><time>2026-05-03T13:46:21Z</time></trkpt><trkpt lat="40.60750187039636" lon="9.660186122640223"><ele>281.0</ele><time>2026-05-03T13:46:22Z</time></trkpt><trkpt lat="40.60755829408521" lon="9.66013743798408"><ele>281.0</ele><time>2026-05-03T13:46:23Z</time></trkpt><trkpt lat="40.60762674704451" lon="9.660081914281896"><ele>281.0</ele><time>2026-05-03T13:46:24Z</time></trkpt><trkpt lat="40.60770822762883" lon="9.660031059946183"><ele>281.0</ele><time>2026-05-03T13:46:25Z</time></trkpt><trkpt lat="40.60776805772589" lon="9.659997935392283"><ele>281.0</ele><time>2026-05-03T13:46:26Z</time></trkpt><trkpt lat="40.60787692546274" lon="9.659890160415786"><ele>281.0</ele><time>2026-05-03T13:46:28Z</time></trkpt><trkpt lat="40.60794693062243" lon="9.659803790434973"><ele>276.6666666666667</ele><time>2026-05-03T13:46:29Z</time></trkpt><trkpt lat="40.608033186122896" lon="9.659746488035891"><ele>272.33333333333337</ele><time>2026-05-03T13:46:29.999Z</time></trkpt><trkpt lat="40.60812081268274" lon="9.659682393292199"><ele>268.0</ele><time>2026-05-03T13:46:30.999Z</time></trkpt><trkpt lat="40.60819043089074" lon="9.65961230666906"><ele>263.6666666666667</ele><time>2026-05-03T13:46:31.999Z</time></trkpt><trkpt lat="40.60827322839785" lon="9.659570622693002"><ele>259.3333333333333</ele><time>2026-05-03T13:46:32.999Z</time></trkpt><trkpt lat="40.60834529804061" lon="9.659540665597083"><ele>255.0</ele><time>2026-05-03T13:46:33.999Z</time></trkpt><trkpt lat="40.60841718474752" lon="9.659500786152723"><ele>256.3333333333333</ele><time>2026-05-03T13:46:34.999Z</time></trkpt><trkpt lat="40.608486441568004" lon="9.659438636953631"><ele>257.6666666666667</ele><time>2026-05-03T13:46:35.999Z</time></trkpt><trkpt lat="40.6085571958104" lon="9.659379685397834"><ele>259.0</ele><time>2026-05-03T13:46:36.999Z</time></trkpt><trkpt lat="40.60862786384595" lon="9.659330103025024"><ele>260.33333333333337</ele><time>2026-05-03T13:46:37.999Z</time></trkpt><trkpt lat="40.60871571880289" lon="9.659280810684034"><ele>261.6666666666667</ele><time>2026-05-03T13:46:38.999Z</time></trkpt><trkpt lat="40.60880661361212" lon="9.659263530610376"><ele>263.0</ele><time>2026-05-03T13:46:39.999Z</time></trkpt><trkpt lat="40.60888222090913" lon="9.659260439409676"><ele>259.6666666666667</ele><time>2026-05-03T13:46:40.999Z</time></trkpt><trkpt lat="40.60895126346513" lon="9.659256318259056"><ele>256.33333333333337</ele><time>2026-05-03T13:46:41.999Z</time></trkpt><trkpt lat="40.6090105117113" lon="9.659221937602265"><ele>253.0</ele><time>2026-05-03T13:46:42.999Z</time></trkpt><trkpt lat="40.60907080668148" lon="9.659163736083675"><ele>249.66666666666669</ele><time>2026-05-03T13:46:43.999Z</time></trkpt><trkpt lat="40.6091389461159" lon="9.659131817695723"><ele>246.33333333333334</ele><time>2026-05-03T13:46:44.999Z</time></trkpt><trkpt lat="40.609260354936836" lon="9.659133084627339"><ele>243.0</ele><time>2026-05-03T13:46:45.999Z</time></trkpt><trkpt lat="40.60944015609108" lon="9.659127442240553"><ele>239.8</ele><time>2026-05-03T13:46:46.999Z</time></trkpt><trkpt lat="40.609572895566366" lon="9.659104088715651"><ele>236.60000000000002</ele><time>2026-05-03T13:46:47.999Z</time></trkpt><trkpt lat="40.60965222069877" lon="9.659078276387277"><ele>233.39999999999998</ele><time>2026-05-03T13:46:48.999Z</time></trkpt><trkpt lat="40.609775131563886" lon="9.65910589488807"><ele>230.2</ele><time>2026-05-03T13:46:50.999Z</time></trkpt><trkpt lat="40.60984225242785" lon="9.659130081102612"><ele>227.0</ele><time>2026-05-03T13:46:51.999Z</time></trkpt><trkpt lat="40.60995120205394" lon="9.659156178109585"><ele>227.00000000000003</ele><time>2026-05-03T13:46:53.999Z</time></trkpt><trkpt lat="40.61001420857039" lon="9.659172365278822"><ele>227.0</ele><time>2026-05-03T13:46:54.999Z</time></trkpt><trkpt lat="40.61009933627587" lon="9.65920829327051"><ele>227.0</ele><time>2026-05-03T13:46:55.999Z</time></trkpt><trkpt lat="40.61018381428639" lon="9.659219209347206"><ele>227.0</ele><time>2026-05-03T13:46:56.999Z</time></trkpt><trkpt lat="40.61026849680741" lon="9.659221421401194"><ele>227.00000000000003</ele><time>2026-05-03T13:46:57.999Z</time></trkpt><trkpt lat="40.61036794349078" lon="9.65925073382593"><ele>227.0</ele><time>2026-05-03T13:46:58.999Z</time></trkpt><trkpt lat="40.6105274016017" lon="9.659288183381637"><ele>225.75</ele><time>2026-05-03T13:46:59.999Z</time></trkpt><trkpt lat="40.610648031171976" lon="9.659302469781998"><ele>224.5</ele><time>2026-05-03T13:47:00.999Z</time></trkpt><trkpt lat="40.61076911396151" lon="9.659319311952316"><ele>223.25</ele><time>2026-05-03T13:47:01.999Z</time></trkpt><trkpt lat="40.61088400674907" lon="9.659337830757304"><ele>222.0</ele><time>2026-05-03T13:47:02.999Z</time></trkpt><trkpt lat="40.611018248779864" lon="9.659373740749244"><ele>222.0</ele><time>2026-05-03T13:47:03.999Z</time></trkpt><trkpt lat="40.61112181996132" lon="9.65940270015999"><ele>222.0</ele><time>2026-05-03T13:47:04.999Z</time></trkpt><trkpt lat="40.61121935264625" lon="9.659433601211882"><ele>222.0</ele><time>2026-05-03T13:47:05.999Z</time></trkpt><trkpt lat="40.61132076695617" lon="9.659481500908088"><ele>222.0</ele><time>2026-05-03T13:47:06.999Z</time></trkpt><trkpt lat="40.61139295296103" lon="9.659517936920503"><ele>222.0</ele><time>2026-05-03T13:47:07.999Z</time></trkpt><trkpt lat="40.61148358576389" lon="9.659552501548275"><ele>220.0</ele><time>2026-05-03T13:47:08.999Z</time></trkpt><trkpt lat="40.611595664651645" lon="9.659612124733421"><ele>218.0</ele><time>2026-05-03T13:47:09.999Z</time></trkpt><trkpt lat="40.61171786256124" lon="9.659666776302586"><ele>216.0</ele><time>2026-05-03T13:47:10.999Z</time></trkpt><trkpt lat="40.61185402050436" lon="9.659704589282539"><ele>214.0</ele><time>2026-05-03T13:47:11.999Z</time></trkpt><trkpt lat="40.61201170570559" lon="9.659768597843714"><ele>214.0</ele><time>2026-05-03T13:47:12.999Z</time></trkpt><trkpt lat="40.61216774559494" lon="9.65986763958223"><ele>213.99999999999997</ele><time>2026-05-03T13:47:13.999Z</time></trkpt><trkpt lat="40.612281376876915" lon="9.659948872070071"><ele>213.99999999999997</ele><time>2026-05-03T13:47:14.999Z</time></trkpt><trkpt lat="40.61235178322633" lon="9.659970346576314"><ele>214.0</ele><time>2026-05-03T13:47:15.999Z</time></trkpt><trkpt lat="40.61242392716508" lon="9.65998318540874"><ele>214.0</ele><time>2026-05-03T13:47:16.999Z</time></trkpt><trkpt lat="40.6125067023446" lon="9.659988251335875"><ele>213.99999999999997</ele><time>2026-05-03T13:47:17.999Z</time></trkpt><trkpt lat="40.6125958850472" lon="9.659994586369312"><ele>214.0</ele><time>2026-05-03T13:47:18.999Z</time></trkpt><trkpt lat="40.61267778303064" lon="9.65999863886857"><ele>214.0</ele><time>2026-05-03T13:47:19.999Z</time></trkpt><trkpt lat="40.612755839248614" lon="9.65999906379983"><ele>214.0</ele><time>2026-05-03T13:47:20.999Z</time></trkpt><trkpt lat="40.61281412051353" lon="9.659941929627452"><ele>213.99999999999997</ele><time>2026-05-03T13:47:21.999Z</time></trkpt><trkpt lat="40.61286485046966" lon="9.659866224176636"><ele>214.0</ele><time>2026-05-03T13:47:22.999Z</time></trkpt><trkpt lat="40.61294005189824" lon="9.65978347470507"><ele>210.0</ele><time>2026-05-03T13:47:23.999Z</time></trkpt><trkpt lat="40.61304991462318" lon="9.659739563811135"><ele>205.99999999999997</ele><time>2026-05-03T13:47:24.999Z</time></trkpt><trkpt lat="40.613123371748415" lon="9.659661131247518"><ele>202.0</ele><time>2026-05-03T13:47:25.999Z</time></trkpt><trkpt lat="40.61319815272716" lon="9.659576898425831"><ele>198.0</ele><time>2026-05-03T13:47:26.999Z</time></trkpt><trkpt lat="40.61329693757399" lon="9.659493204890074"><ele>194.0</ele><time>2026-05-03T13:47:27.999Z</time></trkpt><trkpt lat="40.61339923534535" lon="9.659421758544068"><ele>192.25</ele><time>2026-05-03T13:47:29Z</time></trkpt><trkpt lat="40.613539545210415" lon="9.659329101293476"><ele>190.5</ele><time>2026-05-03T13:47:30Z</time></trkpt><trkpt lat="40.61364875890565" lon="9.659281051572155"><ele>188.75</ele><time>2026-05-03T13:47:31Z</time></trkpt><trkpt lat="40.6137483876635" lon="9.659240892667063"><ele>187.0</ele><time>2026-05-03T13:47:32Z</time></trkpt><trkpt lat="40.61387196666634" lon="9.659183546301623"><ele>184.0</ele><time>2026-05-03T13:47:33Z</time></trkpt><trkpt lat="40.61399559702631" lon="9.65911784534004"><ele>181.0</ele><time>2026-05-03T13:47:34Z</time></trkpt><trkpt lat="40.614099111841554" lon="9.659034325128802"><ele>178.0</ele><time>2026-05-03T13:47:35Z</time></trkpt><trkpt lat="40.61420790889118" lon="9.65894636556897"><ele>175.0</ele><time>2026-05-03T13:47:36Z</time></trkpt><trkpt lat="40.614334680484994" lon="9.658868274658698"><ele>175.0</ele><time>2026-05-03T13:47:37Z</time></trkpt><trkpt lat="40.61445029845032" lon="9.65876083125915"><ele>175.0</ele><time>2026-05-03T13:47:38Z</time></trkpt><trkpt lat="40.614545023849544" lon="9.658626520564507"><ele>175.0</ele><time>2026-05-03T13:47:39Z</time></trkpt><trkpt lat="40.614597844979045" lon="9.658483391211524"><ele>175.0</ele><time>2026-05-03T13:47:40Z</time></trkpt><trkpt lat="40.61465700365748" lon="9.658355994073945"><ele>172.33333333333334</ele><time>2026-05-03T13:47:41Z</time></trkpt><trkpt lat="40.61471566842717" lon="9.658250583237162"><ele>169.66666666666669</ele><time>2026-05-03T13:47:42Z</time></trkpt><trkpt lat="40.61477333048883" lon="9.658168572514269"><ele>167.0</ele><time>2026-05-03T13:47:43Z</time></trkpt><trkpt lat="40.61484477548915" lon="9.658092934512306"><ele>164.33333333333334</ele><time>2026-05-03T13:47:44Z</time></trkpt><trkpt lat="40.6149187115523" lon="9.65804998141415"><ele>161.66666666666666</ele><time>2026-05-03T13:47:45Z</time></trkpt><trkpt lat="40.61499619360021" lon="9.65803737809214"><ele>159.0</ele><time>2026-05-03T13:47:46Z</time></trkpt><trkpt lat="40.61507380561375" lon="9.658061352619873"><ele>159.0</ele><time>2026-05-03T13:47:47Z</time></trkpt><trkpt lat="40.615144396221275" lon="9.658094677110817"><ele>159.0</ele><time>2026-05-03T13:47:48Z</time></trkpt><trkpt lat="40.615217267872275" lon="9.658116650647768"><ele>159.0</ele><time>2026-05-03T13:47:49Z</time></trkpt><trkpt lat="40.615302689119765" lon="9.658115428712469"><ele>159.0</ele><time>2026-05-03T13:47:50Z</time></trkpt><trkpt lat="40.61538818213538" lon="9.658128211114594"><ele>159.0</ele><time>2026-05-03T13:47:51Z</time></trkpt><trkpt lat="40.61548077741828" lon="9.65814196090342"><ele>159.0</ele><time>2026-05-03T13:47:52Z</time></trkpt><trkpt lat="40.61557647635699" lon="9.658156084505146"><ele>153.6</ele><time>2026-05-03T13:47:53Z</time></trkpt><trkpt lat="40.615664747019366" lon="9.658170070991536"><ele>148.2</ele><time>2026-05-03T13:47:54Z</time></trkpt><trkpt lat="40.61575185735173" lon="9.658181687453215"><ele>142.79999999999998</ele><time>2026-05-03T13:47:55Z</time></trkpt><trkpt lat="40.61584578184443" lon="9.658190912270758"><ele>137.4</ele><time>2026-05-03T13:47:56Z</time></trkpt><trkpt lat="40.61593941396676" lon="9.658193344165515"><ele>132.0</ele><time>2026-05-03T13:47:57Z</time></trkpt><trkpt lat="40.616046736525135" lon="9.658206289886262"><ele>132.0</ele><time>2026-05-03T13:47:58Z</time></trkpt><trkpt lat="40.6161412455857" lon="9.658216920441339"><ele>132.0</ele><time>2026-05-03T13:47:59Z</time></trkpt><trkpt lat="40.616221694396835" lon="9.658230818012662"><ele>132.0</ele><time>2026-05-03T13:48:00Z</time></trkpt><trkpt lat="40.616308237682745" lon="9.658247319465447"><ele>132.0</ele><time>2026-05-03T13:48:01Z</time></trkpt><trkpt lat="40.61639862605769" lon="9.658261441115116"><ele>132.0</ele><time>2026-05-03T13:48:02Z</time></trkpt><trkpt lat="40.6165305177216" lon="9.658277216953376"><ele>130.25</ele><time>2026-05-03T13:48:03Z</time></trkpt><trkpt lat="40.616698024685356" lon="9.658303814509484"><ele>128.5</ele><time>2026-05-03T13:48:04Z</time></trkpt><trkpt lat="40.616812071151564" lon="9.658282608323313"><ele>126.75</ele><time>2026-05-03T13:48:05Z</time></trkpt><trkpt lat="40.61689966729747" lon="9.658250509636547"><ele>125.0</ele><time>2026-05-03T13:48:06Z</time></trkpt><trkpt lat="40.61697576563602" lon="9.658168220767346"><ele>122.0</ele><time>2026-05-03T13:48:07Z</time></trkpt><trkpt lat="40.61704990833671" lon="9.658045961076304"><ele>119.0</ele><time>2026-05-03T13:48:08Z</time></trkpt><trkpt lat="40.6170988828226" lon="9.657895000719112"><ele>116.0</ele><time>2026-05-03T13:48:09Z</time></trkpt><trkpt lat="40.61713257872538" lon="9.657752025004873"><ele>113.0</ele><time>2026-05-03T13:48:10Z</time></trkpt><trkpt lat="40.617142427910785" lon="9.657624824548305"><ele>112.80000000000001</ele><time>2026-05-03T13:48:11Z</time></trkpt><trkpt lat="40.61715147449379" lon="9.657540531322862"><ele>112.60000000000001</ele><time>2026-05-03T13:48:12Z</time></trkpt><trkpt lat="40.61714621188627" lon="9.657353695224117"><ele>112.39999999999999</ele><time>2026-05-03T13:48:14Z</time></trkpt><trkpt lat="40.617170310870925" lon="9.657199402292948"><ele>112.19999999999999</ele><time>2026-05-03T13:48:15Z</time></trkpt><trkpt lat="40.617185832691895" lon="9.657044979403583"><ele>112.0</ele><time>2026-05-03T13:48:16Z</time></trkpt><trkpt lat="40.61718728887776" lon="9.656925236141625"><ele>109.25</ele><time>2026-05-03T13:48:17Z</time></trkpt><trkpt lat="40.61719373211006" lon="9.6567358793909"><ele>106.5</ele><time>2026-05-03T13:48:18Z</time></trkpt><trkpt lat="40.617194847474856" lon="9.656540540875172"><ele>103.75</ele><time>2026-05-03T13:48:19Z</time></trkpt><trkpt lat="40.61718922051706" lon="9.656395745382895"><ele>101.0</ele><time>2026-05-03T13:48:20Z</time></trkpt><trkpt lat="40.61718824983315" lon="9.656253940131053"><ele>101.0</ele><time>2026-05-03T13:48:21Z</time></trkpt><trkpt lat="40.61717747948612" lon="9.656127685450551"><ele>101.0</ele><time>2026-05-03T13:48:22Z</time></trkpt><trkpt lat="40.61715695942716" lon="9.656004554877525"><ele>101.0</ele><time>2026-05-03T13:48:23Z</time></trkpt><trkpt lat="40.61713911564934" lon="9.655876178102819"><ele>101.0</ele><time>2026-05-03T13:48:24Z</time></trkpt><trkpt lat="40.61710165310987" lon="9.655745308761515"><ele>101.0</ele><time>2026-05-03T13:48:25Z</time></trkpt><trkpt lat="40.61705836050883" lon="9.655585585639747"><ele>97.0</ele><time>2026-05-03T13:48:26Z</time></trkpt><trkpt lat="40.617009186235954" lon="9.655401613883775"><ele>93.0</ele><time>2026-05-03T13:48:27Z</time></trkpt><trkpt lat="40.6169596664562" lon="9.65521861393682"><ele>89.0</ele><time>2026-05-03T13:48:28Z</time></trkpt><trkpt lat="40.61691487822283" lon="9.655034629344835"><ele>85.0</ele><time>2026-05-03T13:48:29Z</time></trkpt><trkpt lat="40.61686044558436" lon="9.65486779110755"><ele>80.66666666666666</ele><time>2026-05-03T13:48:29.999Z</time></trkpt><trkpt lat="40.616806201238454" lon="9.65467692720157"><ele>76.33333333333333</ele><time>2026-05-03T13:48:30.999Z</time></trkpt><trkpt lat="40.61674921289548" lon="9.654467434815054"><ele>72.0</ele><time>2026-05-03T13:48:31.999Z</time></trkpt><trkpt lat="40.61670508927737" lon="9.654292539782347"><ele>70.16666666666667</ele><time>2026-05-03T13:48:32.999Z</time></trkpt><trkpt lat="40.61666511703878" lon="9.654181466135578"><ele>68.33333333333333</ele><time>2026-05-03T13:48:33.999Z</time></trkpt><trkpt lat="40.61662236464027" lon="9.654067001902218"><ele>66.5</ele><time>2026-05-03T13:48:34.999Z</time></trkpt><trkpt lat="40.61659189224953" lon="9.653957747238989"><ele>64.66666666666666</ele><time>2026-05-03T13:48:35.999Z</time></trkpt><trkpt lat="40.616561264732546" lon="9.653856851042427"><ele>62.83333333333333</ele><time>2026-05-03T13:48:36.999Z</time></trkpt><trkpt lat="40.616534002606464" lon="9.653766746934346"><ele>61.0</ele><time>2026-05-03T13:48:37.999Z</time></trkpt><trkpt lat="40.61650269601136" lon="9.653671283932116"><ele>58.0</ele><time>2026-05-03T13:48:38.999Z</time></trkpt><trkpt lat="40.61645734480173" lon="9.653550149273736"><ele>55.0</ele><time>2026-05-03T13:48:39.999Z</time></trkpt><trkpt lat="40.61638482463486" lon="9.653393441299421"><ele>52.0</ele><time>2026-05-03T13:48:40.999Z</time></trkpt><trkpt lat="40.61634218938943" lon="9.653264683571097"><ele>49.0</ele><time>2026-05-03T13:48:41.999Z</time></trkpt><trkpt lat="40.616304589988246" lon="9.65313928159071"><ele>49.0</ele><time>2026-05-03T13:48:42.999Z</time></trkpt><trkpt lat="40.61623795690428" lon="9.653013883736445"><ele>49.0</ele><time>2026-05-03T13:48:44.999Z</time></trkpt><trkpt lat="40.6161973327256" lon="9.652933248850951"><ele>49.0</ele><time>2026-05-03T13:48:45.999Z</time></trkpt><trkpt lat="40.6161589664319" lon="9.652849757875801"><ele>49.0</ele><time>2026-05-03T13:48:46.999Z</time></trkpt><trkpt lat="40.616113119367554" lon="9.652726692397032"><ele>49.0</ele><time>2026-05-03T13:48:48.999Z</time></trkpt><trkpt lat="40.61609398038247" lon="9.652611612271244"><ele>48.83333333333333</ele><time>2026-05-03T13:48:50.999Z</time></trkpt><trkpt lat="40.616063131894244" lon="9.652498362425376"><ele>48.666666666666664</ele><time>2026-05-03T13:48:52.999Z</time></trkpt><trkpt lat="40.61606264402566" lon="9.65240963630543"><ele>48.5</ele><time>2026-05-03T13:48:53.999Z</time></trkpt><trkpt lat="40.61607164333531" lon="9.652305702516651"><ele>48.33333333333333</ele><time>2026-05-03T13:48:55.999Z</time></trkpt><trkpt lat="40.616038680500765" lon="9.652176004363481"><ele>48.166666666666664</ele><time>2026-05-03T13:48:57.999Z</time></trkpt><trkpt lat="40.6160212586248" lon="9.652057990202698"><ele>48.0</ele><time>2026-05-03T13:48:59.999Z</time></trkpt><trkpt lat="40.61599251607492" lon="9.651972756973283"><ele>48.833333333333336</ele><time>2026-05-03T13:49:01.999Z</time></trkpt><trkpt lat="40.61594741899746" lon="9.651860646073422"><ele>49.66666666666667</ele><time>2026-05-03T13:49:03.999Z</time></trkpt><trkpt lat="40.61593207708069" lon="9.651773999527776"><ele>50.5</ele><time>2026-05-03T13:49:04.999Z</time></trkpt><trkpt lat="40.615915035587584" lon="9.651674209603916"><ele>51.333333333333336</ele><time>2026-05-03T13:49:05.999Z</time></trkpt><trkpt lat="40.61588436039658" lon="9.651568780279291"><ele>52.16666666666667</ele><time>2026-05-03T13:49:06.999Z</time></trkpt><trkpt lat="40.615853531002536" lon="9.651463648641117"><ele>53.0</ele><time>2026-05-03T13:49:07.999Z</time></trkpt><trkpt lat="40.61582822209552" lon="9.65136810078846"><ele>53.00000000000001</ele><time>2026-05-03T13:49:08.999Z</time></trkpt><trkpt lat="40.615787465445955" lon="9.651282154137492"><ele>53.0</ele><time>2026-05-03T13:49:09.999Z</time></trkpt><trkpt lat="40.6157512247065" lon="9.651196391343085"><ele>53.0</ele><time>2026-05-03T13:49:10.999Z</time></trkpt><trkpt lat="40.61570285427731" lon="9.65110245205764"><ele>53.0</ele><time>2026-05-03T13:49:11.999Z</time></trkpt><trkpt lat="40.615655204155175" lon="9.650993206493457"><ele>53.00000000000001</ele><time>2026-05-03T13:49:12.999Z</time></trkpt><trkpt lat="40.615605290371" lon="9.65087761926794"><ele>53.0</ele><time>2026-05-03T13:49:13.999Z</time></trkpt><trkpt lat="40.61556068790075" lon="9.650757933556877"><ele>54.66666666666667</ele><time>2026-05-03T13:49:14.999Z</time></trkpt><trkpt lat="40.61552422522572" lon="9.650659054045246"><ele>56.333333333333336</ele><time>2026-05-03T13:49:15.999Z</time></trkpt><trkpt lat="40.615493264522634" lon="9.650577237219439"><ele>58.0</ele><time>2026-05-03T13:49:16.999Z</time></trkpt><trkpt lat="40.61543268333304" lon="9.650439341413149"><ele>59.66666666666667</ele><time>2026-05-03T13:49:18.999Z</time></trkpt><trkpt lat="40.61539203301453" lon="9.650350603600593"><ele>61.333333333333336</ele><time>2026-05-03T13:49:19.999Z</time></trkpt><trkpt lat="40.61535493715936" lon="9.65027190512"><ele>63.0</ele><time>2026-05-03T13:49:20.999Z</time></trkpt><trkpt lat="40.615292954994075" lon="9.650089900512084"><ele>68.6</ele><time>2026-05-03T13:49:22.999Z</time></trkpt><trkpt lat="40.61523622615909" lon="9.649947801683435"><ele>74.19999999999999</ele><time>2026-05-03T13:49:23.999Z</time></trkpt><trkpt lat="40.61518388644497" lon="9.649828523404697"><ele>79.8</ele><time>2026-05-03T13:49:24.999Z</time></trkpt><trkpt lat="40.61516022558732" lon="9.649720165110487"><ele>85.39999999999999</ele><time>2026-05-03T13:49:25.999Z</time></trkpt><trkpt lat="40.615143611232554" lon="9.649601292176683"><ele>91.0</ele><time>2026-05-03T13:49:26.999Z</time></trkpt><trkpt lat="40.615113562527675" lon="9.649478786688972"><ele>92.33333333333333</ele><time>2026-05-03T13:49:27.999Z</time></trkpt><trkpt lat="40.61508523465908" lon="9.64937006336539"><ele>93.66666666666666</ele><time>2026-05-03T13:49:28.999Z</time></trkpt><trkpt lat="40.61504702090698" lon="9.649262279304882"><ele>95.0</ele><time>2026-05-03T13:49:29.999Z</time></trkpt><trkpt lat="40.615018826507885" lon="9.649157162088851"><ele>96.33333333333333</ele><time>2026-05-03T13:49:30.999Z</time></trkpt><trkpt lat="40.61499185575886" lon="9.649062111791487"><ele>97.66666666666667</ele><time>2026-05-03T13:49:31.999Z</time></trkpt><trkpt lat="40.614964283157704" lon="9.64894722410158"><ele>99.0</ele><time>2026-05-03T13:49:32.999Z</time></trkpt><trkpt lat="40.614929890369865" lon="9.648856679380284"><ele>99.0</ele><time>2026-05-03T13:49:33.999Z</time></trkpt><trkpt lat="40.61490190918675" lon="9.648741612959386"><ele>99.0</ele><time>2026-05-03T13:49:35Z</time></trkpt><trkpt lat="40.61487170079395" lon="9.648626585131323"><ele>99.0</ele><time>2026-05-03T13:49:36Z</time></trkpt><trkpt lat="40.61484903659985" lon="9.64853947467971"><ele>99.0</ele><time>2026-05-03T13:49:37Z</time></trkpt><trkpt lat="40.61480378282082" lon="9.64837966673772"><ele>99.0</ele><time>2026-05-03T13:49:39Z</time></trkpt><trkpt lat="40.61476918015209" lon="9.648279774496027"><ele>99.66666666666667</ele><time>2026-05-03T13:49:40Z</time></trkpt><trkpt lat="40.614740744147156" lon="9.648184355684108"><ele>100.33333333333334</ele><time>2026-05-03T13:49:41Z</time></trkpt><trkpt lat="40.61471114307991" lon="9.648094481617644"><ele>101.0</ele><time>2026-05-03T13:49:42Z</time></trkpt><trkpt lat="40.6146785721733" lon="9.64798321023777"><ele>101.66666666666667</ele><time>2026-05-03T13:49:43Z</time></trkpt><trkpt lat="40.61464152224571" lon="9.647865730799433"><ele>102.33333333333334</ele><time>2026-05-03T13:49:44Z</time></trkpt><trkpt lat="40.614608377409354" lon="9.64776336699137"><ele>103.0</ele><time>2026-05-03T13:49:45Z</time></trkpt><trkpt lat="40.61458734157584" lon="9.647656260995085"><ele>103.83333333333334</ele><time>2026-05-03T13:49:46Z</time></trkpt><trkpt lat="40.61456993603963" lon="9.647541869363168"><ele>104.66666666666667</ele><time>2026-05-03T13:49:47Z</time></trkpt><trkpt lat="40.61453879438617" lon="9.647434928954583"><ele>105.5</ele><time>2026-05-03T13:49:48Z</time></trkpt><trkpt lat="40.61450961549092" lon="9.64733758290161"><ele>106.33333333333334</ele><time>2026-05-03T13:49:49Z</time></trkpt><trkpt lat="40.61449102263289" lon="9.647257652896192"><ele>107.16666666666667</ele><time>2026-05-03T13:49:50Z</time></trkpt><trkpt lat="40.614488304893534" lon="9.647164996320859"><ele>108.0</ele><time>2026-05-03T13:49:52Z</time></trkpt><trkpt lat="40.61449636690913" lon="9.647081330333876"><ele>110.0</ele><time>2026-05-03T13:49:54Z</time></trkpt><trkpt lat="40.61447510993603" lon="9.646987264445379"><ele>112.00000000000001</ele><time>2026-05-03T13:49:57Z</time></trkpt><trkpt lat="40.614443642997855" lon="9.646824367658473"><ele>114.00000000000001</ele><time>2026-05-03T13:49:59Z</time></trkpt><trkpt lat="40.6144278151509" lon="9.646723290527794"><ele>116.0</ele><time>2026-05-03T13:50:01Z</time></trkpt><trkpt lat="40.6144035783584" lon="9.646599682995832"><ele>118.0</ele><time>2026-05-03T13:50:03Z</time></trkpt><trkpt lat="40.61438061035738" lon="9.6464854319739"><ele>118.00000000000001</ele><time>2026-05-03T13:50:05Z</time></trkpt><trkpt lat="40.61437845295891" lon="9.646360770846576"><ele>118.0</ele><time>2026-05-03T13:50:07Z</time></trkpt><trkpt lat="40.61438570494797" lon="9.646208962674281"><ele>118.0</ele><time>2026-05-03T13:50:09Z</time></trkpt><trkpt lat="40.61438447151755" lon="9.64612342899132"><ele>118.0</ele><time>2026-05-03T13:50:10Z</time></trkpt><trkpt lat="40.61437778510114" lon="9.646032563318899"><ele>118.00000000000001</ele><time>2026-05-03T13:50:11Z</time></trkpt><trkpt lat="40.61437026388321" lon="9.64594603793263"><ele>118.0</ele><time>2026-05-03T13:50:12Z</time></trkpt><trkpt lat="40.614355615798345" lon="9.645774579179932"><ele>111.33333333333334</ele><time>2026-05-03T13:50:14Z</time></trkpt><trkpt lat="40.61433573327005" lon="9.645630287430933"><ele>104.66666666666666</ele><time>2026-05-03T13:50:16Z</time></trkpt><trkpt lat="40.61429784596967" lon="9.645557902082123"><ele>98.0</ele><time>2026-05-03T13:50:18Z</time></trkpt><trkpt lat="40.6142450944718" lon="9.645125061481304"><ele>95.28571428571429</ele><time>2026-05-03T13:50:19Z</time></trkpt><trkpt lat="40.61425588084452" lon="9.645017018792538"><ele>92.57142857142857</ele><time>2026-05-03T13:50:20Z</time></trkpt><trkpt lat="40.61424901180536" lon="9.644928849162886"><ele>89.85714285714286</ele><time>2026-05-03T13:50:20.999Z</time></trkpt><trkpt lat="40.61425852329369" lon="9.644837849569688"><ele>87.14285714285714</ele><time>2026-05-03T13:50:21.999Z</time></trkpt><trkpt lat="40.61426868798984" lon="9.644732379285053"><ele>84.42857142857143</ele><time>2026-05-03T13:50:22.999Z</time></trkpt><trkpt lat="40.61428867864411" lon="9.644628771125026"><ele>81.71428571428572</ele><time>2026-05-03T13:50:23.999Z</time></trkpt><trkpt lat="40.61430101145475" lon="9.644545936114111"><ele>79.0</ele><time>2026-05-03T13:50:24.999Z</time></trkpt><trkpt lat="40.6143180054039" lon="9.644449253673448"><ele>77.0</ele><time>2026-05-03T13:50:25.999Z</time></trkpt><trkpt lat="40.61435409325719" lon="9.644324301896301"><ele>75.0</ele><time>2026-05-03T13:50:27.999Z</time></trkpt><trkpt lat="40.61438900402712" lon="9.644254850483938"><ele>73.0</ele><time>2026-05-03T13:50:28.999Z</time></trkpt><trkpt lat="40.6144377034729" lon="9.64412364832494"><ele>71.0</ele><time>2026-05-03T13:50:30.999Z</time></trkpt><trkpt lat="40.6144585661489" lon="9.644002515372472"><ele>69.0</ele><time>2026-05-03T13:50:32.999Z</time></trkpt><trkpt lat="40.61448117556763" lon="9.643850657161567"><ele>69.14285714285714</ele><time>2026-05-03T13:50:34.999Z</time></trkpt><trkpt lat="40.61449038501264" lon="9.643767263192728"><ele>69.28571428571429</ele><time>2026-05-03T13:50:35.999Z</time></trkpt><trkpt lat="40.61449726027903" lon="9.64367245455786"><ele>69.42857142857143</ele><time>2026-05-03T13:50:36.999Z</time></trkpt><trkpt lat="40.614489560442195" lon="9.643584814830126"><ele>69.57142857142857</ele><time>2026-05-03T13:50:37.999Z</time></trkpt><trkpt lat="40.614473359738035" lon="9.643500074121174"><ele>69.71428571428572</ele><time>2026-05-03T13:50:38.999Z</time></trkpt><trkpt lat="40.61445566875975" lon="9.643413566951436"><ele>69.85714285714286</ele><time>2026-05-03T13:50:39.999Z</time></trkpt><trkpt lat="40.61442542197072" lon="9.643313722261368"><ele>70.0</ele><time>2026-05-03T13:50:40.999Z</time></trkpt><trkpt lat="40.61440019471726" lon="9.64321685378163"><ele>71.0</ele><time>2026-05-03T13:50:41.999Z</time></trkpt><trkpt lat="40.614396958655" lon="9.643064667985234"><ele>72.0</ele><time>2026-05-03T13:50:43.999Z</time></trkpt><trkpt lat="40.61440744945033" lon="9.642972547283847"><ele>73.0</ele><time>2026-05-03T13:50:44.999Z</time></trkpt><trkpt lat="40.61441833563205" lon="9.64288592082824"><ele>74.0</ele><time>2026-05-03T13:50:45.999Z</time></trkpt><trkpt lat="40.61444316116855" lon="9.642799666268013"><ele>75.0</ele><time>2026-05-03T13:50:46.999Z</time></trkpt><trkpt lat="40.61447918659335" lon="9.642713466624697"><ele>76.0</ele><time>2026-05-03T13:50:47.999Z</time></trkpt><trkpt lat="40.61456136189449" lon="9.642590726376516"><ele>73.16666666666666</ele><time>2026-05-03T13:50:49.999Z</time></trkpt><trkpt lat="40.61461089223366" lon="9.64252453200881"><ele>70.33333333333333</ele><time>2026-05-03T13:50:50.999Z</time></trkpt><trkpt lat="40.61465579696271" lon="9.642442842228533"><ele>67.5</ele><time>2026-05-03T13:50:51.999Z</time></trkpt><trkpt lat="40.61470057448737" lon="9.642359862954638"><ele>64.66666666666667</ele><time>2026-05-03T13:50:52.999Z</time></trkpt><trkpt lat="40.61475142153164" lon="9.642281806055326"><ele>61.833333333333336</ele><time>2026-05-03T13:50:53.999Z</time></trkpt><trkpt lat="40.61482758653315" lon="9.64217841919157"><ele>59.0</ele><time>2026-05-03T13:50:55.999Z</time></trkpt><trkpt lat="40.61489288221579" lon="9.642064207764097"><ele>58.66666666666667</ele><time>2026-05-03T13:50:57.999Z</time></trkpt><trkpt lat="40.61495304629709" lon="9.641916046411769"><ele>58.333333333333336</ele><time>2026-05-03T13:50:59.999Z</time></trkpt><trkpt lat="40.614985898208445" lon="9.64182496245277"><ele>58.0</ele><time>2026-05-03T13:51:00.999Z</time></trkpt><trkpt lat="40.615025646527386" lon="9.641730093096315"><ele>57.66666666666667</ele><time>2026-05-03T13:51:01.999Z</time></trkpt><trkpt lat="40.615056059188454" lon="9.641644970040604"><ele>57.333333333333336</ele><time>2026-05-03T13:51:02.999Z</time></trkpt><trkpt lat="40.615080349976466" lon="9.64154578618328"><ele>57.0</ele><time>2026-05-03T13:51:03.999Z</time></trkpt><trkpt lat="40.61510888529238" lon="9.641447026547972"><ele>57.0</ele><time>2026-05-03T13:51:04.999Z</time></trkpt><trkpt lat="40.61512359150103" lon="9.641351683269466"><ele>57.0</ele><time>2026-05-03T13:51:05.999Z</time></trkpt><trkpt lat="40.615145104166025" lon="9.641267452676223"><ele>57.0</ele><time>2026-05-03T13:51:06.999Z</time></trkpt><trkpt lat="40.61516335834568" lon="9.641185711386246"><ele>57.0</ele><time>2026-05-03T13:51:07.999Z</time></trkpt><trkpt lat="40.615205497246585" lon="9.641056348307789"><ele>57.0</ele><time>2026-05-03T13:51:08.999Z</time></trkpt><trkpt lat="40.61529769862665" lon="9.640863802645281"><ele>55.0</ele><time>2026-05-03T13:51:09.999Z</time></trkpt><trkpt lat="40.61540490992104" lon="9.640704318374322"><ele>53.0</ele><time>2026-05-03T13:51:10.999Z</time></trkpt><trkpt lat="40.61548957577689" lon="9.640608719336912"><ele>51.0</ele><time>2026-05-03T13:51:11.999Z</time></trkpt><trkpt lat="40.61557077862357" lon="9.640540234876301"><ele>49.0</ele><time>2026-05-03T13:51:13.999Z</time></trkpt><trkpt lat="40.61548983022296" lon="9.640423182781712"><ele>48.99999999999999</ele><time>2026-05-03T13:51:43Z</time></trkpt><trkpt lat="40.61542645275331" lon="9.640358188207689"><ele>49.0</ele><time>2026-05-03T13:51:44Z</time></trkpt><trkpt lat="40.615351873901396" lon="9.640275835099214"><ele>49.0</ele><time>2026-05-03T13:51:45Z</time></trkpt><trkpt lat="40.615289101972415" lon="9.640189585298236"><ele>49.0</ele><time>2026-05-03T13:51:46Z</time></trkpt><trkpt lat="40.615243370950175" lon="9.640118538513118"><ele>48.99999999999999</ele><time>2026-05-03T13:51:47Z</time></trkpt><trkpt lat="40.615181907732634" lon="9.640037721922727"><ele>49.0</ele><time>2026-05-03T13:51:48Z</time></trkpt><trkpt lat="40.6151212336231" lon="9.639961249005035"><ele>53.666666666666664</ele><time>2026-05-03T13:51:49Z</time></trkpt><trkpt lat="40.61505671671944" lon="9.639893765247844"><ele>58.33333333333333</ele><time>2026-05-03T13:51:50Z</time></trkpt><trkpt lat="40.61497355551994" lon="9.639822751932945"><ele>63.0</ele><time>2026-05-03T13:51:51Z</time></trkpt><trkpt lat="40.61487800842232" lon="9.639747530826623"><ele>67.66666666666667</ele><time>2026-05-03T13:51:52Z</time></trkpt><trkpt lat="40.614810517319384" lon="9.639695534323439"><ele>72.33333333333334</ele><time>2026-05-03T13:51:53Z</time></trkpt><trkpt lat="40.614751103656126" lon="9.639656876629592"><ele>77.0</ele><time>2026-05-03T13:51:54Z</time></trkpt><trkpt lat="40.614686971270956" lon="9.639597722460426"><ele>77.0</ele><time>2026-05-03T13:51:55Z</time></trkpt><trkpt lat="40.61461031780128" lon="9.63955302362914"><ele>77.0</ele><time>2026-05-03T13:51:56Z</time></trkpt><trkpt lat="40.614535953268714" lon="9.639501584651356"><ele>77.0</ele><time>2026-05-03T13:51:57Z</time></trkpt><trkpt lat="40.61447365172782" lon="9.639412664745942"><ele>77.0</ele><time>2026-05-03T13:51:58Z</time></trkpt><trkpt lat="40.61440052458858" lon="9.639330738283412"><ele>77.0</ele><time>2026-05-03T13:51:59Z</time></trkpt><trkpt lat="40.61433381051892" lon="9.639274433704765"><ele>77.0</ele><time>2026-05-03T13:52:00Z</time></trkpt><trkpt lat="40.61426512105616" lon="9.639159114665137"><ele>82.16666666666667</ele><time>2026-05-03T13:52:02Z</time></trkpt><trkpt lat="40.61418925394898" lon="9.63911948088272"><ele>87.33333333333334</ele><time>2026-05-03T13:52:03Z</time></trkpt><trkpt lat="40.61412712188325" lon="9.639049092006243"><ele>92.5</ele><time>2026-05-03T13:52:04Z</time></trkpt><trkpt lat="40.61411029649102" lon="9.638950239057854"><ele>97.66666666666667</ele><time>2026-05-03T13:52:05Z</time></trkpt><trkpt lat="40.61412724555502" lon="9.638844938183858"><ele>102.83333333333333</ele><time>2026-05-03T13:52:06Z</time></trkpt><trkpt lat="40.61412790803213" lon="9.63869246539787"><ele>108.0</ele><time>2026-05-03T13:52:07Z</time></trkpt><trkpt lat="40.61413159085175" lon="9.63856675850078"><ele>108.83333333333333</ele><time>2026-05-03T13:52:08Z</time></trkpt><trkpt lat="40.61408028770749" lon="9.638477341005892"><ele>109.66666666666666</ele><time>2026-05-03T13:52:09Z</time></trkpt><trkpt lat="40.614017335225405" lon="9.638411912109298"><ele>110.5</ele><time>2026-05-03T13:52:10Z</time></trkpt><trkpt lat="40.613968389349886" lon="9.638322875995687"><ele>111.33333333333333</ele><time>2026-05-03T13:52:11Z</time></trkpt><trkpt lat="40.61391670544368" lon="9.638247944435971"><ele>112.16666666666666</ele><time>2026-05-03T13:52:12Z</time></trkpt><trkpt lat="40.613828232250754" lon="9.638187932450398"><ele>113.0</ele><time>2026-05-03T13:52:13Z</time></trkpt><trkpt lat="40.61371745392127" lon="9.638125724590335"><ele>118.83333333333333</ele><time>2026-05-03T13:52:14Z</time></trkpt><trkpt lat="40.61364204215337" lon="9.638049041058283"><ele>124.66666666666666</ele><time>2026-05-03T13:52:15Z</time></trkpt><trkpt lat="40.61356715912795" lon="9.637994946508773"><ele>130.5</ele><time>2026-05-03T13:52:16Z</time></trkpt><trkpt lat="40.61350143328369" lon="9.63795690679108"><ele>136.33333333333334</ele><time>2026-05-03T13:52:17Z</time></trkpt><trkpt lat="40.613438975544334" lon="9.63791139078412"><ele>142.16666666666669</ele><time>2026-05-03T13:52:18Z</time></trkpt><trkpt lat="40.61336794700578" lon="9.637862193070498"><ele>148.0</ele><time>2026-05-03T13:52:19Z</time></trkpt><trkpt lat="40.61330915307555" lon="9.63780519010351"><ele>148.4</ele><time>2026-05-03T13:52:20Z</time></trkpt><trkpt lat="40.61324828695709" lon="9.637674265590915"><ele>148.8</ele><time>2026-05-03T13:52:22Z</time></trkpt><trkpt lat="40.613199611493386" lon="9.637597981529403"><ele>149.2</ele><time>2026-05-03T13:52:23Z</time></trkpt><trkpt lat="40.61310884181956" lon="9.63749068061882"><ele>149.6</ele><time>2026-05-03T13:52:25Z</time></trkpt><trkpt lat="40.61303668883637" lon="9.637404488107554"><ele>150.0</ele><time>2026-05-03T13:52:27Z</time></trkpt><trkpt lat="40.61300080968843" lon="9.637304766161453"><ele>150.0</ele><time>2026-05-03T13:52:29Z</time></trkpt><trkpt lat="40.61294066778411" lon="9.63737919948029"><ele>150.0</ele><time>2026-05-03T13:52:31Z</time></trkpt><trkpt lat="40.6129233310366" lon="9.637469585267931"><ele>150.0</ele><time>2026-05-03T13:52:33Z</time></trkpt><trkpt lat="40.612885795794234" lon="9.637571786683136"><ele>150.0</ele><time>2026-05-03T13:52:35.999Z</time></trkpt><trkpt lat="40.61287117051521" lon="9.637668003911271"><ele>150.0</ele><time>2026-05-03T13:52:37.999Z</time></trkpt><trkpt lat="40.61286687627031" lon="9.63776947948606"><ele>150.0</ele><time>2026-05-03T13:52:39.999Z</time></trkpt><trkpt lat="40.61286382490473" lon="9.637881015207983"><ele>149.7142857142857</ele><time>2026-05-03T13:52:41.999Z</time></trkpt><trkpt lat="40.6128528381273" lon="9.637969041402501"><ele>149.42857142857142</ele><time>2026-05-03T13:52:43.999Z</time></trkpt><trkpt lat="40.61284903658303" lon="9.638081618893757"><ele>149.14285714285714</ele><time>2026-05-03T13:52:46.999Z</time></trkpt><trkpt lat="40.61278879272204" lon="9.638126502971792"><ele>148.85714285714283</ele><time>2026-05-03T13:52:48.999Z</time></trkpt><trkpt lat="40.61271925467157" lon="9.638197385966148"><ele>148.57142857142856</ele><time>2026-05-03T13:52:52.999Z</time></trkpt><trkpt lat="40.61266311425213" lon="9.63814917841856"><ele>148.28571428571428</ele><time>2026-05-03T13:52:55.999Z</time></trkpt><trkpt lat="40.61260661625247" lon="9.6381105502349"><ele>148.0</ele><time>2026-05-03T13:52:58.999Z</time></trkpt><trkpt lat="40.61254429345349" lon="9.63807959987465"><ele>152.66666666666669</ele><time>2026-05-03T13:53:07.999Z</time></trkpt><trkpt lat="40.612470618223085" lon="9.638035196166701"><ele>157.33333333333334</ele><time>2026-05-03T13:53:22.999Z</time></trkpt><trkpt lat="40.612414988418216" lon="9.637962226253737"><ele>162.0</ele><time>2026-05-03T13:53:26.999Z</time></trkpt><trkpt lat="40.61237968825571" lon="9.637871827280648"><ele>166.66666666666666</ele><time>2026-05-03T13:53:30.999Z</time></trkpt><trkpt lat="40.612317966684195" lon="9.637805340762572"><ele>171.33333333333331</ele><time>2026-05-03T13:53:33.999Z</time></trkpt><trkpt lat="40.61226350208988" lon="9.63772462300577"><ele>176.0</ele><time>2026-05-03T13:53:36.999Z</time></trkpt><trkpt lat="40.61220803431539" lon="9.637675167631713"><ele>178.66666666666666</ele><time>2026-05-03T13:53:41.999Z</time></trkpt><trkpt lat="40.6121206830336" lon="9.637591758327023"><ele>181.33333333333331</ele><time>2026-05-03T13:53:58Z</time></trkpt><trkpt lat="40.61203646692322" lon="9.63758652618122"><ele>184.0</ele><time>2026-05-03T13:54:01Z</time></trkpt><trkpt lat="40.612005220566886" lon="9.637674194888065"><ele>186.66666666666666</ele><time>2026-05-03T13:54:03Z</time></trkpt><trkpt lat="40.61194767147517" lon="9.637727082911542"><ele>189.33333333333334</ele><time>2026-05-03T13:54:05Z</time></trkpt><trkpt lat="40.61189418080476" lon="9.63782533874462"><ele>192.0</ele><time>2026-05-03T13:54:08Z</time></trkpt><trkpt lat="40.61186609651117" lon="9.637911216339337"><ele>195.66666666666666</ele><time>2026-05-03T13:54:10Z</time></trkpt><trkpt lat="40.611834607450724" lon="9.638000726008718"><ele>199.33333333333331</ele><time>2026-05-03T13:54:13Z</time></trkpt><trkpt lat="40.61180054005821" lon="9.638122187710072"><ele>203.0</ele><time>2026-05-03T13:54:15Z</time></trkpt><trkpt lat="40.6117713064111" lon="9.638210606840099"><ele>206.66666666666666</ele><time>2026-05-03T13:54:17Z</time></trkpt><trkpt lat="40.61174161397272" lon="9.638303342555028"><ele>210.33333333333331</ele><time>2026-05-03T13:54:19Z</time></trkpt><trkpt lat="40.611722387592934" lon="9.638392196936211"><ele>214.0</ele><time>2026-05-03T13:54:21Z</time></trkpt><trkpt lat="40.6117012439875" lon="9.638471816423351"><ele>213.99999999999997</ele><time>2026-05-03T13:54:23Z</time></trkpt><trkpt lat="40.61167657236169" lon="9.638556636874279"><ele>214.0</ele><time>2026-05-03T13:54:25Z</time></trkpt><trkpt lat="40.61164655146651" lon="9.63866270782236"><ele>214.0</ele><time>2026-05-03T13:54:28Z</time></trkpt><trkpt lat="40.61160323343338" lon="9.638769443114883"><ele>214.0</ele><time>2026-05-03T13:54:31Z</time></trkpt><trkpt lat="40.61156935031817" lon="9.638883416367825"><ele>213.99999999999997</ele><time>2026-05-03T13:54:33Z</time></trkpt><trkpt lat="40.611546738202904" lon="9.639023560338128"><ele>214.0</ele><time>2026-05-03T13:54:35Z</time></trkpt><trkpt lat="40.61150747337691" lon="9.639091034606324"><ele>210.2</ele><time>2026-05-03T13:54:37Z</time></trkpt><trkpt lat="40.611488459118846" lon="9.63917790098822"><ele>206.39999999999998</ele><time>2026-05-03T13:54:39Z</time></trkpt><trkpt lat="40.6114166870215" lon="9.639314441456753"><ele>202.6</ele><time>2026-05-03T13:54:42Z</time></trkpt><trkpt lat="40.61138397084016" lon="9.639457978363321"><ele>198.8</ele><time>2026-05-03T13:54:43.999Z</time></trkpt><trkpt lat="40.61132599431818" lon="9.639559985372138"><ele>195.0</ele><time>2026-05-03T13:54:45.999Z</time></trkpt><trkpt lat="40.61126634643555" lon="9.63952719480198"><ele>195.0</ele><time>2026-05-03T13:54:50.999Z</time></trkpt><trkpt lat="40.61123289041779" lon="9.639429046887187"><ele>195.0</ele><time>2026-05-03T13:54:53.999Z</time></trkpt><trkpt lat="40.61121067515376" lon="9.639350123811129"><ele>195.0</ele><time>2026-05-03T13:54:55.999Z</time></trkpt><trkpt lat="40.61118717063581" lon="9.639230776669201"><ele>195.0</ele><time>2026-05-03T13:55:01.999Z</time></trkpt><trkpt lat="40.61117651351625" lon="9.63914310369979"><ele>195.0</ele><time>2026-05-03T13:55:03.999Z</time></trkpt><trkpt lat="40.6111569776248" lon="9.639034309610308"><ele>195.0</ele><time>2026-05-03T13:55:05.999Z</time></trkpt><trkpt lat="40.61113556014939" lon="9.6389147032467"><ele>197.5</ele><time>2026-05-03T13:55:07.999Z</time></trkpt><trkpt lat="40.611074421630924" lon="9.638882003065822"><ele>200.0</ele><time>2026-05-03T13:55:10.999Z</time></trkpt><trkpt lat="40.61099683701628" lon="9.638890065777323"><ele>202.5</ele><time>2026-05-03T13:55:51.999Z</time></trkpt><trkpt lat="40.61090317861493" lon="9.638844757765012"><ele>205.0</ele><time>2026-05-03T13:55:54Z</time></trkpt><trkpt lat="40.61084159199391" lon="9.638795897260817"><ele>207.5</ele><time>2026-05-03T13:55:55Z</time></trkpt><trkpt lat="40.6108018003519" lon="9.638731425963897"><ele>210.0</ele><time>2026-05-03T13:55:56Z</time></trkpt><trkpt lat="40.61075333198651" lon="9.638600546885092"><ele>215.33333333333334</ele><time>2026-05-03T13:55:58Z</time></trkpt><trkpt lat="40.61069791323795" lon="9.638494620966389"><ele>220.66666666666669</ele><time>2026-05-03T13:56:00Z</time></trkpt><trkpt lat="40.61066958738875" lon="9.638410658764274"><ele>226.0</ele><time>2026-05-03T13:56:02Z</time></trkpt><trkpt lat="40.610627804729646" lon="9.638337423732235"><ele>231.33333333333334</ele><time>2026-05-03T13:56:05Z</time></trkpt><trkpt lat="40.61058701729573" lon="9.63826991985471"><ele>236.66666666666669</ele><time>2026-05-03T13:56:08Z</time></trkpt><trkpt lat="40.61066792039281" lon="9.638161054931201"><ele>242.0</ele><time>2026-05-03T13:56:11Z</time></trkpt><trkpt lat="40.610724120489664" lon="9.638103759849068"><ele>242.0</ele><time>2026-05-03T13:56:13Z</time></trkpt><trkpt lat="40.61075803767177" lon="9.637965557707457"><ele>242.0</ele><time>2026-05-03T13:56:26Z</time></trkpt><trkpt lat="40.61074061174695" lon="9.637845697832727"><ele>242.0</ele><time>2026-05-03T13:56:28Z</time></trkpt><trkpt lat="40.61072479388321" lon="9.637741530833182"><ele>242.0</ele><time>2026-05-03T13:56:31Z</time></trkpt><trkpt lat="40.61070241083765" lon="9.63763527196739"><ele>242.0</ele><time>2026-05-03T13:56:33Z</time></trkpt><trkpt lat="40.610672240819596" lon="9.637521493489505"><ele>246.6</ele><time>2026-05-03T13:56:35Z</time></trkpt><trkpt lat="40.61063945240161" lon="9.637432327421525"><ele>251.2</ele><time>2026-05-03T13:56:36Z</time></trkpt><trkpt lat="40.61058926913378" lon="9.637314459182816"><ele>255.8</ele><time>2026-05-03T13:56:37Z</time></trkpt><trkpt lat="40.61053871159127" lon="9.637185203288197"><ele>260.4</ele><time>2026-05-03T13:56:38Z</time></trkpt><trkpt lat="40.61049402348087" lon="9.63706734058933"><ele>265.0</ele><time>2026-05-03T13:56:39Z</time></trkpt><trkpt lat="40.61044464228151" lon="9.636937289843639"><ele>268.0</ele><time>2026-05-03T13:56:40Z</time></trkpt><trkpt lat="40.61038959503877" lon="9.636820902458577"><ele>271.0</ele><time>2026-05-03T13:56:41Z</time></trkpt><trkpt lat="40.61034382403822" lon="9.6367298124203"><ele>274.0</ele><time>2026-05-03T13:56:42Z</time></trkpt><trkpt lat="40.610302886033196" lon="9.636650898726897"><ele>277.0</ele><time>2026-05-03T13:56:43Z</time></trkpt><trkpt lat="40.6102566823795" lon="9.636570539312435"><ele>280.0</ele><time>2026-05-03T13:56:44Z</time></trkpt><trkpt lat="40.61022640045637" lon="9.636482213220635"><ele>283.0</ele><time>2026-05-03T13:56:44.999Z</time></trkpt><trkpt lat="40.61020144760672" lon="9.63637961492635"><ele>285.16666666666663</ele><time>2026-05-03T13:56:45.999Z</time></trkpt><trkpt lat="40.61017710796774" lon="9.636290911686027"><ele>287.3333333333333</ele><time>2026-05-03T13:56:46.999Z</time></trkpt><trkpt lat="40.61016674915803" lon="9.636151714872145"><ele>289.5</ele><time>2026-05-03T13:56:48.999Z</time></trkpt><trkpt lat="40.6101950875608" lon="9.636020808161392"><ele>291.6666666666667</ele><time>2026-05-03T13:56:50.999Z</time></trkpt><trkpt lat="40.61023948328372" lon="9.63594410657606"><ele>293.83333333333337</ele><time>2026-05-03T13:56:51.999Z</time></trkpt><trkpt lat="40.61028893700133" lon="9.635880341851225"><ele>296.0</ele><time>2026-05-03T13:56:52.999Z</time></trkpt><trkpt lat="40.61029801359842" lon="9.635741670043103"><ele>296.5</ele><time>2026-05-03T13:56:54.999Z</time></trkpt><trkpt lat="40.61018518624445" lon="9.635651314674543"><ele>297.0</ele><time>2026-05-03T13:56:56.999Z</time></trkpt><trkpt lat="40.61011326614588" lon="9.635642084767403"><ele>297.5</ele><time>2026-05-03T13:56:57.999Z</time></trkpt><trkpt lat="40.61004808739973" lon="9.635603739093336"><ele>298.0</ele><time>2026-05-03T13:56:58.999Z</time></trkpt><trkpt lat="40.60998665007024" lon="9.63555078521105"><ele>298.5</ele><time>2026-05-03T13:56:59.999Z</time></trkpt><trkpt lat="40.6099260275887" lon="9.63549836798516"><ele>299.0</ele><time>2026-05-03T13:57:00.999Z</time></trkpt><trkpt lat="40.609869485107" lon="9.63545278605202"><ele>299.0</ele><time>2026-05-03T13:57:01.999Z</time></trkpt><trkpt lat="40.60981520137111" lon="9.635401749205954"><ele>299.0</ele><time>2026-05-03T13:57:02.999Z</time></trkpt><trkpt lat="40.609757703745885" lon="9.635360172888348"><ele>299.0</ele><time>2026-05-03T13:57:03.999Z</time></trkpt><trkpt lat="40.60969714208049" lon="9.63525250386855"><ele>299.0</ele><time>2026-05-03T13:57:05.999Z</time></trkpt><trkpt lat="40.609712998779514" lon="9.635147380426524"><ele>299.0</ele><time>2026-05-03T13:57:07.999Z</time></trkpt><trkpt lat="40.60970730196882" lon="9.635032594383471"><ele>299.0</ele><time>2026-05-03T13:57:09.999Z</time></trkpt><trkpt lat="40.60969614048436" lon="9.634903434943327"><ele>297.8</ele><time>2026-05-03T13:57:11.999Z</time></trkpt><trkpt lat="40.609677760696066" lon="9.634772703420017"><ele>296.59999999999997</ele><time>2026-05-03T13:57:13.999Z</time></trkpt><trkpt lat="40.60967524156886" lon="9.634661512483865"><ele>295.4</ele><time>2026-05-03T13:57:15.999Z</time></trkpt><trkpt lat="40.60967436021373" lon="9.634514125148598"><ele>294.2</ele><time>2026-05-03T13:57:17.999Z</time></trkpt><trkpt lat="40.60967773071144" lon="9.63434693411925"><ele>293.0</ele><time>2026-05-03T13:57:19.999Z</time></trkpt><trkpt lat="40.60968700940998" lon="9.634255988032107"><ele>292.5</ele><time>2026-05-03T13:57:20.999Z</time></trkpt><trkpt lat="40.60969091877025" lon="9.63416501634598"><ele>292.0</ele><time>2026-05-03T13:57:21.999Z</time></trkpt><trkpt lat="40.60973472955289" lon="9.634027100532945"><ele>291.5</ele><time>2026-05-03T13:57:23.999Z</time></trkpt><trkpt lat="40.609786848657116" lon="9.633911153666528"><ele>291.0</ele><time>2026-05-03T13:57:25.999Z</time></trkpt><trkpt lat="40.60980373019731" lon="9.633806823084525"><ele>290.5</ele><time>2026-05-03T13:57:27.999Z</time></trkpt><trkpt lat="40.609768849468786" lon="9.63373088788405"><ele>290.0</ele><time>2026-05-03T13:57:29.999Z</time></trkpt><trkpt lat="40.60971067447141" lon="9.633685729511072"><ele>291.33333333333337</ele><time>2026-05-03T13:57:31.999Z</time></trkpt><trkpt lat="40.60975349098054" lon="9.63355777770348"><ele>292.6666666666667</ele><time>2026-05-03T13:57:34.999Z</time></trkpt><trkpt lat="40.60978944873216" lon="9.633485909121388"><ele>294.0</ele><time>2026-05-03T13:57:35.999Z</time></trkpt><trkpt lat="40.60982251325731" lon="9.633403972585596"><ele>295.3333333333333</ele><time>2026-05-03T13:57:36.999Z</time></trkpt><trkpt lat="40.6098516306775" lon="9.633314905702479"><ele>296.66666666666663</ele><time>2026-05-03T13:57:37.999Z</time></trkpt><trkpt lat="40.6098924536297" lon="9.63319889844666"><ele>298.0</ele><time>2026-05-03T13:57:38.999Z</time></trkpt><trkpt lat="40.609959903836355" lon="9.633062971939776"><ele>298.0</ele><time>2026-05-03T13:57:39.999Z</time></trkpt><trkpt lat="40.61002727007155" lon="9.632949657701984"><ele>298.0</ele><time>2026-05-03T13:57:40.999Z</time></trkpt><trkpt lat="40.610080480783466" lon="9.632846744760858"><ele>298.0</ele><time>2026-05-03T13:57:41.999Z</time></trkpt><trkpt lat="40.61015002680528" lon="9.632764961064048"><ele>298.0</ele><time>2026-05-03T13:57:42.999Z</time></trkpt><trkpt lat="40.61022088093526" lon="9.632703160637535"><ele>298.0</ele><time>2026-05-03T13:57:43.999Z</time></trkpt><trkpt lat="40.6102754433375" lon="9.632628744499781"><ele>302.0</ele><time>2026-05-03T13:57:44.999Z</time></trkpt><trkpt lat="40.61029563004264" lon="9.632520187775567"><ele>306.0</ele><time>2026-05-03T13:57:45.999Z</time></trkpt><trkpt lat="40.61029992653968" lon="9.632363458963399"><ele>310.0</ele><time>2026-05-03T13:57:46.999Z</time></trkpt><trkpt lat="40.610293733462406" lon="9.632172439309722"><ele>314.0</ele><time>2026-05-03T13:57:47.999Z</time></trkpt><trkpt lat="40.61030870638998" lon="9.631987893183435"><ele>315.0</ele><time>2026-05-03T13:57:48.999Z</time></trkpt><trkpt lat="40.61032293887456" lon="9.631840047907803"><ele>316.0</ele><time>2026-05-03T13:57:49.999Z</time></trkpt><trkpt lat="40.610330093288795" lon="9.63171093799546"><ele>317.0</ele><time>2026-05-03T13:57:50.999Z</time></trkpt><trkpt lat="40.610335322768" lon="9.631584842947339"><ele>318.0</ele><time>2026-05-03T13:57:51.999Z</time></trkpt><trkpt lat="40.61034776425984" lon="9.631460308224712"><ele>319.0</ele><time>2026-05-03T13:57:52.999Z</time></trkpt><trkpt lat="40.61036764639187" lon="9.631344524374526"><ele>316.5</ele><time>2026-05-03T13:57:53.999Z</time></trkpt><trkpt lat="40.61039230547014" lon="9.631232526424798"><ele>314.0</ele><time>2026-05-03T13:57:54.999Z</time></trkpt><trkpt lat="40.610417166038566" lon="9.631117786924436"><ele>311.5</ele><time>2026-05-03T13:57:55.999Z</time></trkpt><trkpt lat="40.61043063275667" lon="9.631003008764715"><ele>309.0</ele><time>2026-05-03T13:57:56.999Z</time></trkpt><trkpt lat="40.61043629548839" lon="9.630894999566115"><ele>306.5</ele><time>2026-05-03T13:57:58Z</time></trkpt><trkpt lat="40.61045576456099" lon="9.63079868446982"><ele>304.0</ele><time>2026-05-03T13:57:59Z</time></trkpt><trkpt lat="40.610499491054" lon="9.630684331960035"><ele>304.0</ele><time>2026-05-03T13:58:01Z</time></trkpt><trkpt lat="40.61042500058817" lon="9.63071581705586"><ele>304.0</ele><time>2026-05-03T13:58:05Z</time></trkpt><trkpt lat="40.61036231292455" lon="9.630781377541263"><ele>304.0</ele><time>2026-05-03T13:58:06Z</time></trkpt><trkpt lat="40.61026390692915" lon="9.630844100417246"><ele>304.0</ele><time>2026-05-03T13:58:07Z</time></trkpt><trkpt lat="40.61015982981728" lon="9.630883574055282"><ele>304.0</ele><time>2026-05-03T13:58:08Z</time></trkpt><trkpt lat="40.610072082481885" lon="9.630931338609104"><ele>304.8</ele><time>2026-05-03T13:58:09Z</time></trkpt><trkpt lat="40.609978766556935" lon="9.630987714864638"><ele>305.59999999999997</ele><time>2026-05-03T13:58:10Z</time></trkpt><trkpt lat="40.609890199881654" lon="9.63105714721695"><ele>306.4</ele><time>2026-05-03T13:58:11Z</time></trkpt><trkpt lat="40.60982617542662" lon="9.631133412583289"><ele>307.2</ele><time>2026-05-03T13:58:12Z</time></trkpt><trkpt lat="40.60980245426849" lon="9.631234880562703"><ele>308.0</ele><time>2026-05-03T13:58:13Z</time></trkpt><trkpt lat="40.60977274832424" lon="9.631341076149656"><ele>309.83333333333337</ele><time>2026-05-03T13:58:14Z</time></trkpt><trkpt lat="40.60972967137717" lon="9.631404947446358"><ele>311.6666666666667</ele><time>2026-05-03T13:58:15Z</time></trkpt><trkpt lat="40.60967692885876" lon="9.631450291738615"><ele>313.5</ele><time>2026-05-03T13:58:16Z</time></trkpt><trkpt lat="40.60961266869697" lon="9.631483322827318"><ele>315.3333333333333</ele><time>2026-05-03T13:58:17Z</time></trkpt><trkpt lat="40.60953329871104" lon="9.631519779784071"><ele>317.16666666666663</ele><time>2026-05-03T13:58:18Z</time></trkpt><trkpt lat="40.60945165404139" lon="9.631571587956849"><ele>319.0</ele><time>2026-05-03T13:58:19Z</time></trkpt><trkpt lat="40.60937658213931" lon="9.631630416157137"><ele>322.4</ele><time>2026-05-03T13:58:20Z</time></trkpt><trkpt lat="40.609298059760874" lon="9.631707155561305"><ele>325.79999999999995</ele><time>2026-05-03T13:58:21Z</time></trkpt><trkpt lat="40.60922091321791" lon="9.631748739429849"><ele>329.20000000000005</ele><time>2026-05-03T13:58:22Z</time></trkpt><trkpt lat="40.609076811638005" lon="9.631783090524365"><ele>332.6</ele><time>2026-05-03T13:58:24Z</time></trkpt><trkpt lat="40.608990068598544" lon="9.631764998541072"><ele>336.0</ele><time>2026-05-03T13:58:25Z</time></trkpt><trkpt lat="40.60887909959259" lon="9.631713545250642"><ele>336.0</ele><time>2026-05-03T13:58:26Z</time></trkpt><trkpt lat="40.608747845769365" lon="9.631662352176768"><ele>336.0</ele><time>2026-05-03T13:58:27Z</time></trkpt><trkpt lat="40.6085964415769" lon="9.631601874081808"><ele>336.0</ele><time>2026-05-03T13:58:28Z</time></trkpt><trkpt lat="40.60841772753901" lon="9.631532372323738"><ele>336.6666666666667</ele><time>2026-05-03T13:58:29Z</time></trkpt><trkpt lat="40.608226940121355" lon="9.631476115440874"><ele>337.33333333333337</ele><time>2026-05-03T13:58:30Z</time></trkpt><trkpt lat="40.608021490731765" lon="9.631399371941331"><ele>338.0</ele><time>2026-05-03T13:58:31Z</time></trkpt><trkpt lat="40.60784007985153" lon="9.63133433056008"><ele>342.0</ele><time>2026-05-03T13:58:32Z</time></trkpt><trkpt lat="40.60770358557399" lon="9.631287457407671"><ele>346.0</ele><time>2026-05-03T13:58:33Z</time></trkpt><trkpt lat="40.60756655249918" lon="9.631251712543797"><ele>350.0</ele><time>2026-05-03T13:58:34Z</time></trkpt><trkpt lat="40.60744153789316" lon="9.631206970311585"><ele>354.0</ele><time>2026-05-03T13:58:35Z</time></trkpt><trkpt lat="40.60729655826609" lon="9.631135579560423"><ele>354.6666666666667</ele><time>2026-05-03T13:58:36Z</time></trkpt><trkpt lat="40.607148117297434" lon="9.631084356352801"><ele>355.33333333333337</ele><time>2026-05-03T13:58:37Z</time></trkpt><trkpt lat="40.606991517956395" lon="9.631074936320237"><ele>356.0</ele><time>2026-05-03T13:58:38Z</time></trkpt><trkpt lat="40.60681714952499" lon="9.63115374765442"><ele>360.5</ele><time>2026-05-03T13:58:39Z</time></trkpt><trkpt lat="40.606656914508754" lon="9.631207139945467"><ele>365.0</ele><time>2026-05-03T13:58:40Z</time></trkpt><trkpt lat="40.60650213365786" lon="9.63124777630565"><ele>369.5</ele><time>2026-05-03T13:58:41Z</time></trkpt><trkpt lat="40.60639259357103" lon="9.631191140735497"><ele>374.0</ele><time>2026-05-03T13:58:42Z</time></trkpt><trkpt lat="40.60623574443678" lon="9.631167189056763"><ele>379.5</ele><time>2026-05-03T13:58:43Z</time></trkpt><trkpt lat="40.606111755948916" lon="9.631180279341848"><ele>385.0</ele><time>2026-05-03T13:58:44Z</time></trkpt><trkpt lat="40.60598437825648" lon="9.631255758446787"><ele>390.5</ele><time>2026-05-03T13:58:45Z</time></trkpt><trkpt lat="40.605850741241866" lon="9.631377750714895"><ele>396.0</ele><time>2026-05-03T13:58:46Z</time></trkpt><trkpt lat="40.605736565701406" lon="9.631445094436991"><ele>396.0</ele><time>2026-05-03T13:58:47Z</time></trkpt><trkpt lat="40.60569340431806" lon="9.631533572711628"><ele>396.0</ele><time>2026-05-03T13:58:47.999Z</time></trkpt><trkpt lat="40.605668440122365" lon="9.631667116815951"><ele>396.0</ele><time>2026-05-03T13:58:48.999Z</time></trkpt><trkpt lat="40.605604370985546" lon="9.631798080340152"><ele>396.0</ele><time>2026-05-03T13:58:49.999Z</time></trkpt><trkpt lat="40.60558035552924" lon="9.631981636733885"><ele>396.0</ele><time>2026-05-03T13:58:50.999Z</time></trkpt><trkpt lat="40.60550673464257" lon="9.632169606010487"><ele>394.6</ele><time>2026-05-03T13:58:51.999Z</time></trkpt><trkpt lat="40.60548326884026" lon="9.632257903340907"><ele>393.20000000000005</ele><time>2026-05-03T13:58:52.999Z</time></trkpt><trkpt lat="40.60543357077694" lon="9.63232242836302"><ele>391.79999999999995</ele><time>2026-05-03T13:58:53.999Z</time></trkpt><trkpt lat="40.60530659747496" lon="9.632334087851019"><ele>390.4</ele><time>2026-05-03T13:58:55.999Z</time></trkpt><trkpt lat="40.60519818478074" lon="9.632398466917412"><ele>389.0</ele><time>2026-05-03T13:58:56.999Z</time></trkpt><trkpt lat="40.60507820525703" lon="9.632505192041489"><ele>395.0</ele><time>2026-05-03T13:58:57.999Z</time></trkpt><trkpt lat="40.60498621646936" lon="9.632668891849413"><ele>401.0</ele><time>2026-05-03T13:58:58.999Z</time></trkpt><trkpt lat="40.60484723820479" lon="9.632818977305291"><ele>407.0</ele><time>2026-05-03T13:58:59.999Z</time></trkpt><trkpt lat="40.60469345881529" lon="9.632951073708902"><ele>407.0</ele><time>2026-05-03T13:59:00.999Z</time></trkpt><trkpt lat="40.60452490423552" lon="9.633130005965974"><ele>407.0</ele><time>2026-05-03T13:59:01.999Z</time></trkpt><trkpt lat="40.60440566676109" lon="9.633266312013243"><ele>407.0</ele><time>2026-05-03T13:59:02.999Z</time></trkpt><trkpt lat="40.60428151896664" lon="9.633321900481501"><ele>410.0</ele><time>2026-05-03T13:59:03.999Z</time></trkpt><trkpt lat="40.60416526753387" lon="9.633424022132694"><ele>413.0</ele><time>2026-05-03T13:59:04.999Z</time></trkpt><trkpt lat="40.60408598298162" lon="9.633509575228414"><ele>416.0</ele><time>2026-05-03T13:59:05.999Z</time></trkpt><trkpt lat="40.60401246916571" lon="9.633579823523574"><ele>419.0</ele><time>2026-05-03T13:59:06.999Z</time></trkpt><trkpt lat="40.6039444687667" lon="9.633675392771151"><ele>422.0</ele><time>2026-05-03T13:59:07.999Z</time></trkpt><trkpt lat="40.60386964933195" lon="9.633776986900704"><ele>423.16666666666663</ele><time>2026-05-03T13:59:08.999Z</time></trkpt><trkpt lat="40.60380361189774" lon="9.63387775484756"><ele>424.3333333333333</ele><time>2026-05-03T13:59:09.999Z</time></trkpt><trkpt lat="40.603757518613534" lon="9.63396766505204"><ele>425.5</ele><time>2026-05-03T13:59:10.999Z</time></trkpt><trkpt lat="40.603738679029156" lon="9.634072621692898"><ele>426.66666666666663</ele><time>2026-05-03T13:59:11.999Z</time></trkpt><trkpt lat="40.60374403277028" lon="9.634192615718398"><ele>427.8333333333333</ele><time>2026-05-03T13:59:12.999Z</time></trkpt><trkpt lat="40.60373109025739" lon="9.63428958157335"><ele>429.0</ele><time>2026-05-03T13:59:13.999Z</time></trkpt><trkpt lat="40.60365002704997" lon="9.634382257678746"><ele>430.79999999999995</ele><time>2026-05-03T13:59:15.999Z</time></trkpt><trkpt lat="40.603553898784206" lon="9.634370851643654"><ele>432.59999999999997</ele><time>2026-05-03T13:59:16.999Z</time></trkpt><trkpt lat="40.60347026871685" lon="9.634339357705937"><ele>434.4</ele><time>2026-05-03T13:59:18.999Z</time></trkpt><trkpt lat="40.60335041947858" lon="9.634307344816815"><ele>436.2</ele><time>2026-05-03T13:59:20.999Z</time></trkpt><trkpt lat="40.60326570067905" lon="9.634310721252666"><ele>438.0</ele><time>2026-05-03T13:59:21.999Z</time></trkpt><trkpt lat="40.60318665003511" lon="9.634291877481289"><ele>438.0</ele><time>2026-05-03T13:59:22.999Z</time></trkpt><trkpt lat="40.603115884107424" lon="9.634334674822279"><ele>438.0</ele><time>2026-05-03T13:59:24.999Z</time></trkpt><trkpt lat="40.603031099156816" lon="9.63447287120125"><ele>438.0</ele><time>2026-05-03T13:59:27.999Z</time></trkpt><trkpt lat="40.602986529211655" lon="9.634543710044174"><ele>438.0</ele><time>2026-05-03T13:59:30.999Z</time></trkpt><trkpt lat="40.60294271104395" lon="9.634607530259158"><ele>438.0</ele><time>2026-05-03T13:59:32.999Z</time></trkpt><trkpt lat="40.60290474104437" lon="9.634676077834493"><ele>438.0</ele><time>2026-05-03T13:59:54.999Z</time></trkpt><trkpt lat="40.60281472735364" lon="9.63482203930739"><ele>442.2</ele><time>2026-05-03T13:59:56.999Z</time></trkpt><trkpt lat="40.60275230594718" lon="9.634932931867905"><ele>446.4</ele><time>2026-05-03T13:59:57.999Z</time></trkpt><trkpt lat="40.602671812626305" lon="9.635044935898772"><ele>450.59999999999997</ele><time>2026-05-03T13:59:58.999Z</time></trkpt><trkpt lat="40.60259128471954" lon="9.635156008883708"><ele>454.79999999999995</ele><time>2026-05-03T13:59:59.999Z</time></trkpt><trkpt lat="40.60251762020768" lon="9.635252010251229"><ele>459.0</ele><time>2026-05-03T14:00:00.999Z</time></trkpt><trkpt lat="40.602451393978264" lon="9.635339320592154"><ele>462.79999999999995</ele><time>2026-05-03T14:00:01.999Z</time></trkpt><trkpt lat="40.60239643039564" lon="9.635437609406802"><ele>466.59999999999997</ele><time>2026-05-03T14:00:02.999Z</time></trkpt><trkpt lat="40.60236173236481" lon="9.635532823417705"><ele>470.4</ele><time>2026-05-03T14:00:04Z</time></trkpt><trkpt lat="40.602288617935464" lon="9.635641047100055"><ele>474.2</ele><time>2026-05-03T14:00:05Z</time></trkpt><trkpt lat="40.602183596915175" lon="9.635759899510084"><ele>478.0</ele><time>2026-05-03T14:00:06Z</time></trkpt><trkpt lat="40.60207891105279" lon="9.635870711779598"><ele>478.0</ele><time>2026-05-03T14:00:07Z</time></trkpt><trkpt lat="40.60200523852533" lon="9.635949050365559"><ele>477.99999999999994</ele><time>2026-05-03T14:00:08Z</time></trkpt><trkpt lat="40.60195899253488" lon="9.636081306002477"><ele>477.99999999999994</ele><time>2026-05-03T14:00:10Z</time></trkpt><trkpt lat="40.60189653427367" lon="9.636181954141291"><ele>478.0</ele><time>2026-05-03T14:00:12Z</time></trkpt><trkpt lat="40.60188130678059" lon="9.636272318385139"><ele>478.0</ele><time>2026-05-03T14:00:13Z</time></trkpt><trkpt lat="40.601865791142274" lon="9.63637383303528"><ele>483.1428571428572</ele><time>2026-05-03T14:00:14Z</time></trkpt><trkpt lat="40.60185133923555" lon="9.636459890088416"><ele>488.28571428571433</ele><time>2026-05-03T14:00:15Z</time></trkpt><trkpt lat="40.601834574649565" lon="9.636553019723088"><ele>493.42857142857144</ele><time>2026-05-03T14:00:16Z</time></trkpt><trkpt lat="40.60181628910914" lon="9.636638252121731"><ele>498.5714285714286</ele><time>2026-05-03T14:00:17Z</time></trkpt><trkpt lat="40.60178401563895" lon="9.636715252374323"><ele>503.7142857142858</ele><time>2026-05-03T14:00:18Z</time></trkpt><trkpt lat="40.60171178590549" lon="9.63680086831781"><ele>508.85714285714283</ele><time>2026-05-03T14:00:20Z</time></trkpt><trkpt lat="40.60165038020769" lon="9.63685493530258"><ele>514.0</ele><time>2026-05-03T14:00:21Z</time></trkpt><trkpt lat="40.60159791943126" lon="9.63693205305699"><ele>514.0</ele><time>2026-05-03T14:00:22Z</time></trkpt><trkpt lat="40.60153642290555" lon="9.63701350783062"><ele>513.0</ele><time>2026-05-03T14:00:24Z</time></trkpt><trkpt lat="40.60150477343593" lon="9.636917750987406"><ele>514.0</ele><time>2026-05-03T14:00:28Z</time></trkpt><trkpt lat="40.60155994797747" lon="9.63687157958493"><ele>514.0</ele><time>2026-05-03T14:00:30Z</time></trkpt><trkpt lat="40.60163268708379" lon="9.636934120928625"><ele>514.0</ele><time>2026-05-03T14:00:32Z</time></trkpt><trkpt lat="40.60170925665034" lon="9.636964765370335"><ele>514.0</ele><time>2026-05-03T14:00:35Z</time></trkpt></trkseg><trkseg><trkpt lat="40.60170482005495" lon="9.636942701720708"><ele>514.0</ele><time>2026-05-03T14:12:39.999Z</time></trkpt><trkpt lat="40.60166920915254" lon="9.636836260462724"><ele>514.0</ele><time>2026-05-03T14:12:41.999Z</time></trkpt><trkpt lat="40.601747107415385" lon="9.636704704511999"><ele>514.0</ele><time>2026-05-03T14:12:43.999Z</time></trkpt><trkpt lat="40.60180628493619" lon="9.63662402898715"><ele>514.0</ele><time>2026-05-03T14:12:45.999Z</time></trkpt><trkpt lat="40.601839884349516" lon="9.636478276659007"><ele>514.0</ele><time>2026-05-03T14:12:48.999Z</time></trkpt><trkpt lat="40.60184626244251" lon="9.636336838726246"><ele>514.0</ele><time>2026-05-03T14:12:50.999Z</time></trkpt><trkpt lat="40.60187293375289" lon="9.636203372872236"><ele>514.0</ele><time>2026-05-03T14:12:52.999Z</time></trkpt><trkpt lat="40.6019327678098" lon="9.636069755400257"><ele>514.0</ele><time>2026-05-03T14:12:54.999Z</time></trkpt><trkpt lat="40.60199079188946" lon="9.635984006460296"><ele>514.0</ele><time>2026-05-03T14:12:56.999Z</time></trkpt><trkpt lat="40.602058249293165" lon="9.635887308276285"><ele>514.0</ele><time>2026-05-03T14:12:58.999Z</time></trkpt><trkpt lat="40.60211280076429" lon="9.635820740319238"><ele>508.00000000000006</ele><time>2026-05-03T14:12:59.999Z</time></trkpt><trkpt lat="40.60217845629128" lon="9.63574807497003"><ele>502.0</ele><time>2026-05-03T14:13:00.999Z</time></trkpt><trkpt lat="40.60223972763689" lon="9.63568088233312"><ele>496.0</ele><time>2026-05-03T14:13:01.999Z</time></trkpt><trkpt lat="40.60229274916256" lon="9.635617479666141"><ele>490.0</ele><time>2026-05-03T14:13:02.999Z</time></trkpt><trkpt lat="40.602342656873304" lon="9.635553386945928"><ele>484.00000000000006</ele><time>2026-05-03T14:13:03.999Z</time></trkpt><trkpt lat="40.60239333015499" lon="9.635483660312431"><ele>478.0</ele><time>2026-05-03T14:13:04.999Z</time></trkpt><trkpt lat="40.602436814243745" lon="9.635409922525913"><ele>478.00000000000006</ele><time>2026-05-03T14:13:05.999Z</time></trkpt><trkpt lat="40.60246770886167" lon="9.635331167243711"><ele>478.0</ele><time>2026-05-03T14:13:06.999Z</time></trkpt><trkpt lat="40.60250522589475" lon="9.635248230624093"><ele>478.0</ele><time>2026-05-03T14:13:07.999Z</time></trkpt><trkpt lat="40.60256119193027" lon="9.635167630980332"><ele>478.0</ele><time>2026-05-03T14:13:08.999Z</time></trkpt><trkpt lat="40.60262160000645" lon="9.635097021420002"><ele>478.00000000000006</ele><time>2026-05-03T14:13:09.999Z</time></trkpt><trkpt lat="40.60267397637424" lon="9.635030692079615"><ele>478.0</ele><time>2026-05-03T14:13:10.999Z</time></trkpt><trkpt lat="40.60272691118639" lon="9.634952648654135"><ele>474.2</ele><time>2026-05-03T14:13:11.999Z</time></trkpt><trkpt lat="40.60279544773319" lon="9.634847836097679"><ele>470.4</ele><time>2026-05-03T14:13:12.999Z</time></trkpt><trkpt lat="40.602872591169245" lon="9.634728470072654"><ele>466.59999999999997</ele><time>2026-05-03T14:13:13.999Z</time></trkpt><trkpt lat="40.60294082591945" lon="9.634617718287998"><ele>462.79999999999995</ele><time>2026-05-03T14:13:14.999Z</time></trkpt><trkpt lat="40.60298362057077" lon="9.634540087147903"><ele>459.0</ele><time>2026-05-03T14:13:15.999Z</time></trkpt><trkpt lat="40.603026760951266" lon="9.634441712546211"><ele>454.79999999999995</ele><time>2026-05-03T14:13:17.999Z</time></trkpt><trkpt lat="40.60312051505738" lon="9.634343509525628"><ele>450.59999999999997</ele><time>2026-05-03T14:13:19.999Z</time></trkpt><trkpt lat="40.603162803790774" lon="9.634277593455135"><ele>446.4</ele><time>2026-05-03T14:13:21.999Z</time></trkpt><trkpt lat="40.60323947171566" lon="9.634274720592153"><ele>442.2</ele><time>2026-05-03T14:13:23.999Z</time></trkpt><trkpt lat="40.60334406090774" lon="9.63429988695763"><ele>438.0</ele><time>2026-05-03T14:13:24.999Z</time></trkpt><trkpt lat="40.60344103171948" lon="9.634310324892345"><ele>438.0</ele><time>2026-05-03T14:13:26Z</time></trkpt><trkpt lat="40.60356235591948" lon="9.63432724799537"><ele>437.99999999999994</ele><time>2026-05-03T14:13:28Z</time></trkpt><trkpt lat="40.603645996836846" lon="9.634317008344937"><ele>437.99999999999994</ele><time>2026-05-03T14:13:29Z</time></trkpt><trkpt lat="40.60373966037636" lon="9.634262445487797"><ele>438.0</ele><time>2026-05-03T14:13:30Z</time></trkpt><trkpt lat="40.60380251939568" lon="9.634185906559972"><ele>438.0</ele><time>2026-05-03T14:13:31Z</time></trkpt><trkpt lat="40.60378551835297" lon="9.633997110300543"><ele>435.75</ele><time>2026-05-03T14:13:33Z</time></trkpt><trkpt lat="40.603780325889495" lon="9.633861497878351"><ele>433.5</ele><time>2026-05-03T14:13:34Z</time></trkpt><trkpt lat="40.603833511396644" lon="9.633763657834278"><ele>431.25</ele><time>2026-05-03T14:13:35Z</time></trkpt><trkpt lat="40.60393899094666" lon="9.633640316037246"><ele>429.0</ele><time>2026-05-03T14:13:36Z</time></trkpt><trkpt lat="40.604056074223365" lon="9.633522713157497"><ele>427.25</ele><time>2026-05-03T14:13:37Z</time></trkpt><trkpt lat="40.60413491160673" lon="9.633425222976006"><ele>425.5</ele><time>2026-05-03T14:13:38Z</time></trkpt><trkpt lat="40.60421814676898" lon="9.633342587879053"><ele>423.75</ele><time>2026-05-03T14:13:39Z</time></trkpt><trkpt lat="40.60431453116174" lon="9.633260354283188"><ele>422.0</ele><time>2026-05-03T14:13:40Z</time></trkpt><trkpt lat="40.60442136298285" lon="9.63317928610245"><ele>419.5</ele><time>2026-05-03T14:13:41Z</time></trkpt><trkpt lat="40.604534440277156" lon="9.63310058535094"><ele>417.0</ele><time>2026-05-03T14:13:42Z</time></trkpt><trkpt lat="40.604644557589886" lon="9.63300507179693"><ele>414.5</ele><time>2026-05-03T14:13:43Z</time></trkpt><trkpt lat="40.604742155431225" lon="9.632889672238688"><ele>412.0</ele><time>2026-05-03T14:13:44Z</time></trkpt><trkpt lat="40.60485505190681" lon="9.632766549932223"><ele>412.0</ele><time>2026-05-03T14:13:45Z</time></trkpt><trkpt lat="40.60496542801174" lon="9.632665021855171"><ele>412.0</ele><time>2026-05-03T14:13:46Z</time></trkpt><trkpt lat="40.60505016521288" lon="9.632583413203736"><ele>412.0</ele><time>2026-05-03T14:13:47Z</time></trkpt><trkpt lat="40.60511990580719" lon="9.632473232368625"><ele>412.0</ele><time>2026-05-03T14:13:48Z</time></trkpt><trkpt lat="40.60521146607126" lon="9.632369113740197"><ele>412.0</ele><time>2026-05-03T14:13:49Z</time></trkpt><trkpt lat="40.605309621965255" lon="9.632307217131855"><ele>412.0</ele><time>2026-05-03T14:13:50Z</time></trkpt><trkpt lat="40.605389600279466" lon="9.632273803444374"><ele>412.0</ele><time>2026-05-03T14:13:51Z</time></trkpt><trkpt lat="40.60549624846848" lon="9.63222768744839"><ele>412.0</ele><time>2026-05-03T14:13:53Z</time></trkpt><trkpt lat="40.60554413638267" lon="9.632145625970875"><ele>412.0</ele><time>2026-05-03T14:13:54Z</time></trkpt><trkpt lat="40.605584057268956" lon="9.632034245106961"><ele>408.8</ele><time>2026-05-03T14:13:55Z</time></trkpt><trkpt lat="40.60561876645841" lon="9.631883904512772"><ele>405.6</ele><time>2026-05-03T14:13:56Z</time></trkpt><trkpt lat="40.60567271304748" lon="9.631734498436192"><ele>402.40000000000003</ele><time>2026-05-03T14:13:57Z</time></trkpt><trkpt lat="40.60570825040587" lon="9.631608182132108"><ele>399.20000000000005</ele><time>2026-05-03T14:13:58Z</time></trkpt><trkpt lat="40.605747833156464" lon="9.631501923843762"><ele>396.0</ele><time>2026-05-03T14:13:59Z</time></trkpt><trkpt lat="40.60579879032452" lon="9.631416649784313"><ele>396.0</ele><time>2026-05-03T14:14:00Z</time></trkpt><trkpt lat="40.60588261041822" lon="9.631351986940071"><ele>396.0</ele><time>2026-05-03T14:14:01Z</time></trkpt><trkpt lat="40.60599731460125" lon="9.631289428462951"><ele>396.0</ele><time>2026-05-03T14:14:02Z</time></trkpt><trkpt lat="40.60611690878069" lon="9.631225823652466"><ele>396.0</ele><time>2026-05-03T14:14:03Z</time></trkpt><trkpt lat="40.60624221308855" lon="9.631181925824603"><ele>390.5</ele><time>2026-05-03T14:14:04Z</time></trkpt><trkpt lat="40.606379332953566" lon="9.631170404046816"><ele>385.0</ele><time>2026-05-03T14:14:05Z</time></trkpt><trkpt lat="40.6065197221118" lon="9.631187085333666"><ele>379.5</ele><time>2026-05-03T14:14:06Z</time></trkpt><trkpt lat="40.60664289814302" lon="9.63120206070396"><ele>374.0</ele><time>2026-05-03T14:14:07Z</time></trkpt><trkpt lat="40.60675619039758" lon="9.631195245588012"><ele>374.0</ele><time>2026-05-03T14:14:08Z</time></trkpt><trkpt lat="40.60688809272911" lon="9.631171532619817"><ele>374.0</ele><time>2026-05-03T14:14:09Z</time></trkpt><trkpt lat="40.607017545584235" lon="9.63115032458355"><ele>374.0</ele><time>2026-05-03T14:14:10Z</time></trkpt><trkpt lat="40.607144746062716" lon="9.63113152138586"><ele>374.0</ele><time>2026-05-03T14:14:11Z</time></trkpt><trkpt lat="40.60726479777797" lon="9.631129323800671"><ele>369.0</ele><time>2026-05-03T14:14:12Z</time></trkpt><trkpt lat="40.60738987049259" lon="9.631161380711168"><ele>364.0</ele><time>2026-05-03T14:14:13Z</time></trkpt><trkpt lat="40.60751696948824" lon="9.631220554106308"><ele>359.0</ele><time>2026-05-03T14:14:14Z</time></trkpt><trkpt lat="40.60762822884403" lon="9.631267843259254"><ele>354.0</ele><time>2026-05-03T14:14:15Z</time></trkpt><trkpt lat="40.6077356784383" lon="9.631309453262775"><ele>350.0</ele><time>2026-05-03T14:14:16Z</time></trkpt><trkpt lat="40.60784145922067" lon="9.63134525714003"><ele>346.0</ele><time>2026-05-03T14:14:17Z</time></trkpt><trkpt lat="40.607966899851604" lon="9.631385791983238"><ele>342.0</ele><time>2026-05-03T14:14:18Z</time></trkpt><trkpt lat="40.60811527595747" lon="9.631435048084594"><ele>338.0</ele><time>2026-05-03T14:14:19Z</time></trkpt><trkpt lat="40.60827784464331" lon="9.63150118752742"><ele>338.0</ele><time>2026-05-03T14:14:20Z</time></trkpt><trkpt lat="40.608437793835996" lon="9.631557739501721"><ele>338.0</ele><time>2026-05-03T14:14:21Z</time></trkpt><trkpt lat="40.60860535460634" lon="9.63161004158702"><ele>338.0</ele><time>2026-05-03T14:14:22Z</time></trkpt><trkpt lat="40.60876634893157" lon="9.631667868598694"><ele>337.59999999999997</ele><time>2026-05-03T14:14:23Z</time></trkpt><trkpt lat="40.60888447216731" lon="9.631720395685651"><ele>337.2</ele><time>2026-05-03T14:14:24Z</time></trkpt><trkpt lat="40.608974592783724" lon="9.631757270661776"><ele>336.8</ele><time>2026-05-03T14:14:25Z</time></trkpt><trkpt lat="40.609069799913875" lon="9.631786779161727"><ele>336.4</ele><time>2026-05-03T14:14:26Z</time></trkpt><trkpt lat="40.60915680373398" lon="9.631788517200606"><ele>336.0</ele><time>2026-05-03T14:14:27Z</time></trkpt><trkpt lat="40.609243177584375" lon="9.631755780904852"><ele>336.0</ele><time>2026-05-03T14:14:28Z</time></trkpt><trkpt lat="40.609328470284986" lon="9.631696385884522"><ele>336.0</ele><time>2026-05-03T14:14:29Z</time></trkpt><trkpt lat="40.60941037913957" lon="9.63162902416682"><ele>336.0</ele><time>2026-05-03T14:14:30Z</time></trkpt><trkpt lat="40.60949626862365" lon="9.631559779030097"><ele>336.0</ele><time>2026-05-03T14:14:31Z</time></trkpt><trkpt lat="40.60958692755575" lon="9.631491263031903"><ele>336.0</ele><time>2026-05-03T14:14:32Z</time></trkpt><trkpt lat="40.609672770260545" lon="9.631433458037908"><ele>333.1666666666667</ele><time>2026-05-03T14:14:32.999Z</time></trkpt><trkpt lat="40.60974340014203" lon="9.631388642315784"><ele>330.3333333333333</ele><time>2026-05-03T14:14:33.999Z</time></trkpt><trkpt lat="40.6098206517492" lon="9.631268588301388"><ele>327.5</ele><time>2026-05-03T14:14:35.999Z</time></trkpt><trkpt lat="40.60983974593688" lon="9.631174018110803"><ele>324.66666666666663</ele><time>2026-05-03T14:14:36.999Z</time></trkpt><trkpt lat="40.60987552577964" lon="9.631075315035657"><ele>321.8333333333333</ele><time>2026-05-03T14:14:37.999Z</time></trkpt><trkpt lat="40.60994471030565" lon="9.631002617314051"><ele>319.0</ele><time>2026-05-03T14:14:38.999Z</time></trkpt><trkpt lat="40.61005727907289" lon="9.630923057242017"><ele>316.25</ele><time>2026-05-03T14:14:39.999Z</time></trkpt><trkpt lat="40.61017552469802" lon="9.630872373524712"><ele>313.5</ele><time>2026-05-03T14:14:40.999Z</time></trkpt><trkpt lat="40.61029386410753" lon="9.630820540477906"><ele>310.75</ele><time>2026-05-03T14:14:41.999Z</time></trkpt><trkpt lat="40.61040444344313" lon="9.630762665920807"><ele>308.0</ele><time>2026-05-03T14:14:42.999Z</time></trkpt><trkpt lat="40.610521366160775" lon="9.630676954083667"><ele>307.2</ele><time>2026-05-03T14:14:43.999Z</time></trkpt><trkpt lat="40.610615006203766" lon="9.630599345060709"><ele>306.4</ele><time>2026-05-03T14:14:44.999Z</time></trkpt><trkpt lat="40.61069796543809" lon="9.63060532389044"><ele>305.59999999999997</ele><time>2026-05-03T14:14:45.999Z</time></trkpt><trkpt lat="40.61079574301024" lon="9.630659158087756"><ele>304.8</ele><time>2026-05-03T14:14:46.999Z</time></trkpt><trkpt lat="40.61091230727243" lon="9.63075833737226"><ele>304.0</ele><time>2026-05-03T14:14:47.999Z</time></trkpt><trkpt lat="40.611034439719624" lon="9.630829724005483"><ele>302.25</ele><time>2026-05-03T14:14:48.999Z</time></trkpt><trkpt lat="40.6111601803565" lon="9.630893800819264"><ele>300.5</ele><time>2026-05-03T14:14:49.999Z</time></trkpt><trkpt lat="40.61128506276655" lon="9.630948615990459"><ele>298.75</ele><time>2026-05-03T14:14:50.999Z</time></trkpt><trkpt lat="40.61140369393312" lon="9.631041818437916"><ele>297.0</ele><time>2026-05-03T14:14:51.999Z</time></trkpt><trkpt lat="40.6115167656729" lon="9.631138753302874"><ele>294.0</ele><time>2026-05-03T14:14:52.999Z</time></trkpt><trkpt lat="40.61160544175156" lon="9.631230697059639"><ele>291.0</ele><time>2026-05-03T14:14:53.999Z</time></trkpt><trkpt lat="40.611682263331154" lon="9.631306735461612"><ele>288.0</ele><time>2026-05-03T14:14:54.999Z</time></trkpt><trkpt lat="40.61176610610674" lon="9.631409491972574"><ele>285.0</ele><time>2026-05-03T14:14:55.999Z</time></trkpt><trkpt lat="40.61186351736034" lon="9.631506303439442"><ele>282.0</ele><time>2026-05-03T14:14:56.999Z</time></trkpt><trkpt lat="40.611966575797155" lon="9.631618520398284"><ele>279.0</ele><time>2026-05-03T14:14:57.999Z</time></trkpt><trkpt lat="40.612069865654604" lon="9.631728386557958"><ele>276.0</ele><time>2026-05-03T14:14:58.999Z</time></trkpt><trkpt lat="40.61217364006417" lon="9.63183550003446"><ele>273.0</ele><time>2026-05-03T14:14:59.999Z</time></trkpt><trkpt lat="40.61226538689522" lon="9.631923633560948"><ele>270.0</ele><time>2026-05-03T14:15:00.999Z</time></trkpt><trkpt lat="40.61235904030663" lon="9.632001239431464"><ele>267.25</ele><time>2026-05-03T14:15:01.999Z</time></trkpt><trkpt lat="40.612476825609235" lon="9.63206787985532"><ele>264.5</ele><time>2026-05-03T14:15:02.999Z</time></trkpt><trkpt lat="40.61257640298874" lon="9.632131410117323"><ele>261.75</ele><time>2026-05-03T14:15:03.999Z</time></trkpt><trkpt lat="40.61268602349613" lon="9.632201987116037"><ele>259.0</ele><time>2026-05-03T14:15:04.999Z</time></trkpt><trkpt lat="40.61279577850388" lon="9.632253771405797"><ele>257.4</ele><time>2026-05-03T14:15:05.999Z</time></trkpt><trkpt lat="40.61288964209642" lon="9.632289464244126"><ele>255.79999999999998</ele><time>2026-05-03T14:15:06.999Z</time></trkpt><trkpt lat="40.612985998560816" lon="9.63230167627073"><ele>254.20000000000002</ele><time>2026-05-03T14:15:07.999Z</time></trkpt><trkpt lat="40.6130894599509" lon="9.6322927482021"><ele>252.60000000000002</ele><time>2026-05-03T14:15:08.999Z</time></trkpt><trkpt lat="40.613195655278446" lon="9.632253538684113"><ele>251.0</ele><time>2026-05-03T14:15:09.999Z</time></trkpt><trkpt lat="40.613295344876015" lon="9.632166497184093"><ele>251.0</ele><time>2026-05-03T14:15:10.999Z</time></trkpt><trkpt lat="40.61341241737165" lon="9.632036189660518"><ele>251.0</ele><time>2026-05-03T14:15:11.999Z</time></trkpt><trkpt lat="40.61350603208886" lon="9.631897151735888"><ele>251.0</ele><time>2026-05-03T14:15:12.999Z</time></trkpt><trkpt lat="40.613574230665904" lon="9.631764235629785"><ele>251.0</ele><time>2026-05-03T14:15:13.999Z</time></trkpt><trkpt lat="40.613630150283775" lon="9.631644170950493"><ele>244.25</ele><time>2026-05-03T14:15:14.999Z</time></trkpt><trkpt lat="40.61370129379649" lon="9.631535077941798"><ele>237.5</ele><time>2026-05-03T14:15:15.999Z</time></trkpt><trkpt lat="40.613780399745956" lon="9.631427066494405"><ele>230.75</ele><time>2026-05-03T14:15:16.999Z</time></trkpt><trkpt lat="40.61384887892327" lon="9.631292874830217"><ele>224.0</ele><time>2026-05-03T14:15:17.999Z</time></trkpt><trkpt lat="40.613921094314044" lon="9.631153962739706"><ele>224.25</ele><time>2026-05-03T14:15:18.999Z</time></trkpt><trkpt lat="40.6139881938846" lon="9.630959137892706"><ele>224.5</ele><time>2026-05-03T14:15:19.999Z</time></trkpt><trkpt lat="40.614062889296086" lon="9.630784721176166"><ele>224.75</ele><time>2026-05-03T14:15:20.999Z</time></trkpt><trkpt lat="40.614105568681026" lon="9.630619414680067"><ele>225.0</ele><time>2026-05-03T14:15:21.999Z</time></trkpt><trkpt lat="40.614175964794136" lon="9.630468247694639"><ele>225.0</ele><time>2026-05-03T14:15:22.999Z</time></trkpt><trkpt lat="40.614260130288905" lon="9.630341998800732"><ele>225.0</ele><time>2026-05-03T14:15:23.999Z</time></trkpt><trkpt lat="40.614348789662" lon="9.630222506223534"><ele>225.0</ele><time>2026-05-03T14:15:24.999Z</time></trkpt><trkpt lat="40.61444072247041" lon="9.630099896964362"><ele>225.0</ele><time>2026-05-03T14:15:25.999Z</time></trkpt><trkpt lat="40.614528156747944" lon="9.629977855954534"><ele>223.0</ele><time>2026-05-03T14:15:26.999Z</time></trkpt><trkpt lat="40.61461090132556" lon="9.629871053353966"><ele>221.0</ele><time>2026-05-03T14:15:27.999Z</time></trkpt><trkpt lat="40.614685248221825" lon="9.629787113826994"><ele>219.0</ele><time>2026-05-03T14:15:28.999Z</time></trkpt><trkpt lat="40.61475017412345" lon="9.629690083588603"><ele>217.0</ele><time>2026-05-03T14:15:29.999Z</time></trkpt><trkpt lat="40.614809368016935" lon="9.629548102848714"><ele>215.0</ele><time>2026-05-03T14:15:31Z</time></trkpt><trkpt lat="40.61488967391519" lon="9.629395564511228"><ele>215.00000000000003</ele><time>2026-05-03T14:15:32Z</time></trkpt><trkpt lat="40.61494633633467" lon="9.629265274499911"><ele>215.0</ele><time>2026-05-03T14:15:33Z</time></trkpt><trkpt lat="40.61498242985299" lon="9.62915763606282"><ele>215.0</ele><time>2026-05-03T14:15:34Z</time></trkpt><trkpt lat="40.615022266243066" lon="9.629083364987"><ele>215.0</ele><time>2026-05-03T14:15:35Z</time></trkpt><trkpt lat="40.615086007436275" lon="9.629034905903241"><ele>215.00000000000003</ele><time>2026-05-03T14:15:36Z</time></trkpt><trkpt lat="40.61515614614362" lon="9.628973913979134"><ele>215.0</ele><time>2026-05-03T14:15:37Z</time></trkpt><trkpt lat="40.61521378325824" lon="9.62890236663407"><ele>215.00000000000003</ele><time>2026-05-03T14:15:38Z</time></trkpt><trkpt lat="40.615273917707036" lon="9.628838749649853"><ele>215.0</ele><time>2026-05-03T14:15:39Z</time></trkpt><trkpt lat="40.61534696710416" lon="9.628782542544254"><ele>215.0</ele><time>2026-05-03T14:15:40Z</time></trkpt><trkpt lat="40.61544443854945" lon="9.628740180617603"><ele>215.0</ele><time>2026-05-03T14:15:41Z</time></trkpt><trkpt lat="40.61551423518165" lon="9.628723089789588"><ele>215.00000000000003</ele><time>2026-05-03T14:15:42Z</time></trkpt><trkpt lat="40.61561949875674" lon="9.628722783014602"><ele>215.0</ele><time>2026-05-03T14:15:43Z</time></trkpt><trkpt lat="40.61572078717967" lon="9.628735913598488"><ele>209.4</ele><time>2026-05-03T14:15:44Z</time></trkpt><trkpt lat="40.6158252592979" lon="9.62874637027902"><ele>203.8</ele><time>2026-05-03T14:15:45Z</time></trkpt><trkpt lat="40.61592342288445" lon="9.628750428529484"><ele>198.2</ele><time>2026-05-03T14:15:46Z</time></trkpt><trkpt lat="40.61602734479579" lon="9.628762911830176"><ele>192.6</ele><time>2026-05-03T14:15:47Z</time></trkpt><trkpt lat="40.61610265835548" lon="9.628762966161414"><ele>187.0</ele><time>2026-05-03T14:15:48Z</time></trkpt><trkpt lat="40.61622448596635" lon="9.628771928897253"><ele>182.2</ele><time>2026-05-03T14:15:49Z</time></trkpt><trkpt lat="40.61633854693129" lon="9.628781234590305"><ele>177.39999999999998</ele><time>2026-05-03T14:15:50Z</time></trkpt><trkpt lat="40.61644296288295" lon="9.62880434288523"><ele>172.60000000000002</ele><time>2026-05-03T14:15:51Z</time></trkpt><trkpt lat="40.61650975641467" lon="9.628820863364423"><ele>167.8</ele><time>2026-05-03T14:15:52Z</time></trkpt><trkpt lat="40.61660072631235" lon="9.628840231163123"><ele>163.0</ele><time>2026-05-03T14:15:54Z</time></trkpt><trkpt lat="40.61670368914905" lon="9.628855495077564"><ele>163.0</ele><time>2026-05-03T14:15:56Z</time></trkpt><trkpt lat="40.616828858388246" lon="9.628855054470188"><ele>163.0</ele><time>2026-05-03T14:15:58Z</time></trkpt><trkpt lat="40.61695122712659" lon="9.62882359895042"><ele>163.0</ele><time>2026-05-03T14:16:00Z</time></trkpt><trkpt lat="40.617016815294015" lon="9.628788083175492"><ele>163.0</ele><time>2026-05-03T14:16:01Z</time></trkpt><trkpt lat="40.617089851776676" lon="9.62876802533637"><ele>163.0</ele><time>2026-05-03T14:16:02Z</time></trkpt><trkpt lat="40.617181673072004" lon="9.628767097093315"><ele>160.0</ele><time>2026-05-03T14:16:03Z</time></trkpt><trkpt lat="40.617274391083996" lon="9.62876127133862"><ele>157.0</ele><time>2026-05-03T14:16:04Z</time></trkpt><trkpt lat="40.6173564576725" lon="9.628719519514075"><ele>154.0</ele><time>2026-05-03T14:16:05Z</time></trkpt><trkpt lat="40.61742029897916" lon="9.628679473507884"><ele>151.0</ele><time>2026-05-03T14:16:06Z</time></trkpt><trkpt lat="40.61744792376707" lon="9.628782276704989"><ele>148.0</ele><time>2026-05-03T14:16:14Z</time></trkpt><trkpt lat="40.61748038611876" lon="9.628862660854425"><ele>145.0</ele><time>2026-05-03T14:16:15Z</time></trkpt><trkpt lat="40.61754628066285" lon="9.629016293123232"><ele>145.0</ele><time>2026-05-03T14:16:16Z</time></trkpt><trkpt lat="40.61758576904271" lon="9.629147808747517"><ele>145.0</ele><time>2026-05-03T14:16:17Z</time></trkpt><trkpt lat="40.617629401888976" lon="9.629233931023721"><ele>145.0</ele><time>2026-05-03T14:16:18Z</time></trkpt><trkpt lat="40.61768573714095" lon="9.629335325508457"><ele>145.0</ele><time>2026-05-03T14:16:20Z</time></trkpt><trkpt lat="40.617761413691106" lon="9.629482963141726"><ele>145.0</ele><time>2026-05-03T14:16:22Z</time></trkpt><trkpt lat="40.61785464347407" lon="9.629613322097516"><ele>143.0</ele><time>2026-05-03T14:16:24Z</time></trkpt><trkpt lat="40.617913977859246" lon="9.629693469092876"><ele>141.0</ele><time>2026-05-03T14:16:25Z</time></trkpt><trkpt lat="40.6179684856439" lon="9.62976443055177"><ele>139.0</ele><time>2026-05-03T14:16:26Z</time></trkpt><trkpt lat="40.618032568759354" lon="9.629844784029194"><ele>137.0</ele><time>2026-05-03T14:16:28Z</time></trkpt><trkpt lat="40.6180796138938" lon="9.629900327909107"><ele>135.0</ele><time>2026-05-03T14:16:29Z</time></trkpt><trkpt lat="40.618161756074436" lon="9.629995491335272"><ele>133.0</ele><time>2026-05-03T14:16:30Z</time></trkpt><trkpt lat="40.61825649470645" lon="9.630092097182287"><ele>133.0</ele><time>2026-05-03T14:16:31Z</time></trkpt><trkpt lat="40.61834652384039" lon="9.630170527077818"><ele>133.0</ele><time>2026-05-03T14:16:32Z</time></trkpt><trkpt lat="40.618423111341805" lon="9.630220222454929"><ele>133.0</ele><time>2026-05-03T14:16:33Z</time></trkpt><trkpt lat="40.6184878113961" lon="9.630263164413071"><ele>133.0</ele><time>2026-05-03T14:16:35Z</time></trkpt><trkpt lat="40.61857240925692" lon="9.630357198545328"><ele>133.0</ele><time>2026-05-03T14:16:37Z</time></trkpt><trkpt lat="40.618738913572116" lon="9.63032408321175"><ele>130.71428571428572</ele><time>2026-05-03T14:16:38Z</time></trkpt><trkpt lat="40.61876328768709" lon="9.630413289712013"><ele>128.42857142857144</ele><time>2026-05-03T14:16:39Z</time></trkpt><trkpt lat="40.61879712035827" lon="9.63049146494958"><ele>126.14285714285714</ele><time>2026-05-03T14:16:40Z</time></trkpt><trkpt lat="40.61884504867443" lon="9.63055365496543"><ele>123.85714285714286</ele><time>2026-05-03T14:16:41Z</time></trkpt><trkpt lat="40.618889979067" lon="9.630628200172824"><ele>121.57142857142858</ele><time>2026-05-03T14:16:42Z</time></trkpt><trkpt lat="40.61894609907459" lon="9.630707450572181"><ele>119.28571428571429</ele><time>2026-05-03T14:16:43Z</time></trkpt><trkpt lat="40.618998230316706" lon="9.630780426116766"><ele>117.0</ele><time>2026-05-03T14:16:44Z</time></trkpt><trkpt lat="40.61905638536437" lon="9.630853457557397"><ele>117.0</ele><time>2026-05-03T14:16:45Z</time></trkpt><trkpt lat="40.619120779370654" lon="9.630926683446939"><ele>117.0</ele><time>2026-05-03T14:16:46Z</time></trkpt><trkpt lat="40.61918007488232" lon="9.630973596236712"><ele>117.0</ele><time>2026-05-03T14:16:47Z</time></trkpt><trkpt lat="40.61924727678138" lon="9.631026072487478"><ele>117.0</ele><time>2026-05-03T14:16:48Z</time></trkpt><trkpt lat="40.61932303166151" lon="9.63106775988401"><ele>117.0</ele><time>2026-05-03T14:16:49Z</time></trkpt><trkpt lat="40.619412879786346" lon="9.631135338840068"><ele>117.0</ele><time>2026-05-03T14:16:50Z</time></trkpt><trkpt lat="40.61947452828443" lon="9.631179694802864"><ele>114.16666666666667</ele><time>2026-05-03T14:16:50.999Z</time></trkpt><trkpt lat="40.61959376744693" lon="9.631223036427263"><ele>111.33333333333334</ele><time>2026-05-03T14:16:52.999Z</time></trkpt><trkpt lat="40.61966431039223" lon="9.63127818487465"><ele>108.5</ele><time>2026-05-03T14:16:53.999Z</time></trkpt><trkpt lat="40.61972964824879" lon="9.631332005481918"><ele>105.66666666666667</ele><time>2026-05-03T14:16:54.999Z</time></trkpt><trkpt lat="40.61979547740252" lon="9.631371557232837"><ele>102.83333333333334</ele><time>2026-05-03T14:16:55.999Z</time></trkpt><trkpt lat="40.61987149703078" lon="9.631412965516617"><ele>100.0</ele><time>2026-05-03T14:16:56.999Z</time></trkpt><trkpt lat="40.619974562111885" lon="9.63147262259779"><ele>100.0</ele><time>2026-05-03T14:16:57.999Z</time></trkpt><trkpt lat="40.62007368717981" lon="9.631524162805244"><ele>100.0</ele><time>2026-05-03T14:16:58.999Z</time></trkpt><trkpt lat="40.62016118489591" lon="9.631605245198847"><ele>100.0</ele><time>2026-05-03T14:16:59.999Z</time></trkpt><trkpt lat="40.620249149058296" lon="9.631692467442276"><ele>100.0</ele><time>2026-05-03T14:17:00.999Z</time></trkpt><trkpt lat="40.620309313658936" lon="9.631792102841038"><ele>100.0</ele><time>2026-05-03T14:17:01.999Z</time></trkpt><trkpt lat="40.620359529601096" lon="9.63186675533948"><ele>99.83333333333334</ele><time>2026-05-03T14:17:02.999Z</time></trkpt><trkpt lat="40.62040884096676" lon="9.631945469551267"><ele>99.66666666666667</ele><time>2026-05-03T14:17:03.999Z</time></trkpt><trkpt lat="40.62045634123486" lon="9.632027232954464"><ele>99.5</ele><time>2026-05-03T14:17:04.999Z</time></trkpt><trkpt lat="40.62049870153814" lon="9.632091818858909"><ele>99.33333333333334</ele><time>2026-05-03T14:17:05.999Z</time></trkpt><trkpt lat="40.62056813442713" lon="9.632206590074842"><ele>99.16666666666667</ele><time>2026-05-03T14:17:07.999Z</time></trkpt><trkpt lat="40.62063078539688" lon="9.632239565010813"><ele>99.0</ele><time>2026-05-03T14:17:08.999Z</time></trkpt><trkpt lat="40.62070901014316" lon="9.632229556710675"><ele>99.0</ele><time>2026-05-03T14:17:09.999Z</time></trkpt><trkpt lat="40.620789578785285" lon="9.632193985669877"><ele>99.0</ele><time>2026-05-03T14:17:10.999Z</time></trkpt><trkpt lat="40.620855200224085" lon="9.63215068204513"><ele>99.0</ele><time>2026-05-03T14:17:11.999Z</time></trkpt><trkpt lat="40.62091330996263" lon="9.632089395145119"><ele>99.0</ele><time>2026-05-03T14:17:12.999Z</time></trkpt><trkpt lat="40.62097727784804" lon="9.632016091553085"><ele>99.0</ele><time>2026-05-03T14:17:13.999Z</time></trkpt><trkpt lat="40.62103523210211" lon="9.631923982582261"><ele>99.0</ele><time>2026-05-03T14:17:14.999Z</time></trkpt><trkpt lat="40.62110424423512" lon="9.631830193499653"><ele>95.6</ele><time>2026-05-03T14:17:15.999Z</time></trkpt><trkpt lat="40.62119288115141" lon="9.631759807111125"><ele>92.2</ele><time>2026-05-03T14:17:16.999Z</time></trkpt><trkpt lat="40.62129489715139" lon="9.631714741881392"><ele>88.8</ele><time>2026-05-03T14:17:17.999Z</time></trkpt><trkpt lat="40.621396054781975" lon="9.631677000204439"><ele>85.39999999999999</ele><time>2026-05-03T14:17:18.999Z</time></trkpt><trkpt lat="40.621503884550684" lon="9.631637526991337"><ele>82.0</ele><time>2026-05-03T14:17:19.999Z</time></trkpt><trkpt lat="40.621599897871555" lon="9.631577859563484"><ele>82.0</ele><time>2026-05-03T14:17:20.999Z</time></trkpt><trkpt lat="40.6216890905058" lon="9.631506091879668"><ele>82.0</ele><time>2026-05-03T14:17:21.999Z</time></trkpt><trkpt lat="40.6217624010871" lon="9.631412707176157"><ele>82.0</ele><time>2026-05-03T14:17:22.999Z</time></trkpt><trkpt lat="40.621827318301996" lon="9.631303585027927"><ele>82.0</ele><time>2026-05-03T14:17:23.999Z</time></trkpt><trkpt lat="40.62188116821163" lon="9.631191416399984"><ele>82.0</ele><time>2026-05-03T14:17:24.999Z</time></trkpt><trkpt lat="40.621951835308394" lon="9.631107722497598"><ele>83.0</ele><time>2026-05-03T14:17:25.999Z</time></trkpt><trkpt lat="40.62203114325444" lon="9.631070516503753"><ele>84.0</ele><time>2026-05-03T14:17:26.999Z</time></trkpt><trkpt lat="40.622130607719974" lon="9.63103163577682"><ele>85.0</ele><time>2026-05-03T14:17:27.999Z</time></trkpt><trkpt lat="40.622223454334915" lon="9.630961084305243"><ele>86.0</ele><time>2026-05-03T14:17:28.999Z</time></trkpt><trkpt lat="40.622317439820925" lon="9.63089098584664"><ele>87.0</ele><time>2026-05-03T14:17:29.999Z</time></trkpt><trkpt lat="40.62242077984085" lon="9.630822280528259"><ele>87.0</ele><time>2026-05-03T14:17:30.999Z</time></trkpt><trkpt lat="40.62251825906437" lon="9.630740513717695"><ele>87.0</ele><time>2026-05-03T14:17:31.999Z</time></trkpt><trkpt lat="40.62262112591734" lon="9.630646789898357"><ele>87.0</ele><time>2026-05-03T14:17:32.999Z</time></trkpt><trkpt lat="40.62272053148632" lon="9.630556252847693"><ele>87.0</ele><time>2026-05-03T14:17:33.999Z</time></trkpt><trkpt lat="40.622824891219096" lon="9.630455119220589"><ele>87.6</ele><time>2026-05-03T14:17:34.999Z</time></trkpt><trkpt lat="40.62293145549516" lon="9.630379881141423"><ele>88.19999999999999</ele><time>2026-05-03T14:17:36Z</time></trkpt><trkpt lat="40.62303904261769" lon="9.630309704502702"><ele>88.8</ele><time>2026-05-03T14:17:37Z</time></trkpt><trkpt lat="40.62313506382309" lon="9.630248235412186"><ele>89.4</ele><time>2026-05-03T14:17:38Z</time></trkpt><trkpt lat="40.62320856697904" lon="9.630195166932038"><ele>90.0</ele><time>2026-05-03T14:17:39Z</time></trkpt><trkpt lat="40.6232646973091" lon="9.630118441204436"><ele>90.0</ele><time>2026-05-03T14:17:40Z</time></trkpt><trkpt lat="40.62329899858776" lon="9.630022506409743"><ele>90.0</ele><time>2026-05-03T14:17:41Z</time></trkpt><trkpt lat="40.62330646624777" lon="9.629907694863412"><ele>90.0</ele><time>2026-05-03T14:17:42Z</time></trkpt><trkpt lat="40.62329231433827" lon="9.62979431340109"><ele>90.0</ele><time>2026-05-03T14:17:43Z</time></trkpt><trkpt lat="40.623283672478664" lon="9.629670649553367"><ele>90.0</ele><time>2026-05-03T14:17:44Z</time></trkpt><trkpt lat="40.62330818985128" lon="9.629534329237039"><ele>92.8</ele><time>2026-05-03T14:17:45Z</time></trkpt><trkpt lat="40.623352994680765" lon="9.629388509373769"><ele>95.6</ele><time>2026-05-03T14:17:46Z</time></trkpt><trkpt lat="40.623379642071114" lon="9.629252133413406"><ele>98.4</ele><time>2026-05-03T14:17:47Z</time></trkpt><trkpt lat="40.623397873278854" lon="9.629116284243718"><ele>101.2</ele><time>2026-05-03T14:17:48Z</time></trkpt><trkpt lat="40.62343326850301" lon="9.62900173786572"><ele>104.0</ele><time>2026-05-03T14:17:49Z</time></trkpt><trkpt lat="40.62347665203514" lon="9.628898474986848"><ele>104.0</ele><time>2026-05-03T14:17:50Z</time></trkpt><trkpt lat="40.623510828574226" lon="9.628793020041863"><ele>104.0</ele><time>2026-05-03T14:17:51Z</time></trkpt><trkpt lat="40.623535824027236" lon="9.62869915327628"><ele>104.0</ele><time>2026-05-03T14:17:52Z</time></trkpt><trkpt lat="40.62354102197245" lon="9.62852307383536"><ele>104.0</ele><time>2026-05-03T14:17:54Z</time></trkpt><trkpt lat="40.62354339431219" lon="9.628371140942361"><ele>104.0</ele><time>2026-05-03T14:17:55Z</time></trkpt><trkpt lat="40.623540412988746" lon="9.628225037288296"><ele>107.4</ele><time>2026-05-03T14:17:56Z</time></trkpt><trkpt lat="40.623530628109556" lon="9.62807373047963"><ele>110.80000000000001</ele><time>2026-05-03T14:17:57Z</time></trkpt><trkpt lat="40.62352648662752" lon="9.627935027830747"><ele>114.19999999999999</ele><time>2026-05-03T14:17:58Z</time></trkpt><trkpt lat="40.6235201453596" lon="9.627820684516653"><ele>117.6</ele><time>2026-05-03T14:17:59Z</time></trkpt><trkpt lat="40.62353409866116" lon="9.627689398511444"><ele>121.0</ele><time>2026-05-03T14:18:00Z</time></trkpt><trkpt lat="40.62358427570595" lon="9.627567975097369"><ele>121.83333333333334</ele><time>2026-05-03T14:18:01Z</time></trkpt><trkpt lat="40.623633098168646" lon="9.627491740292767"><ele>122.66666666666667</ele><time>2026-05-03T14:18:02Z</time></trkpt><trkpt lat="40.62366848994843" lon="9.627380635971143"><ele>123.5</ele><time>2026-05-03T14:18:04Z</time></trkpt><trkpt lat="40.6236740831366" lon="9.627288129670552"><ele>124.33333333333334</ele><time>2026-05-03T14:18:05Z</time></trkpt><trkpt lat="40.623670232420366" lon="9.627168550531868"><ele>125.16666666666667</ele><time>2026-05-03T14:18:06Z</time></trkpt><trkpt lat="40.623690992099924" lon="9.627029008821623"><ele>126.0</ele><time>2026-05-03T14:18:07Z</time></trkpt><trkpt lat="40.62370098255463" lon="9.626894406357062"><ele>122.33333333333333</ele><time>2026-05-03T14:18:08Z</time></trkpt><trkpt lat="40.62369381973547" lon="9.626796895196195"><ele>118.66666666666666</ele><time>2026-05-03T14:18:09Z</time></trkpt><trkpt lat="40.62367937520019" lon="9.626713912817353"><ele>115.0</ele><time>2026-05-03T14:18:10Z</time></trkpt><trkpt lat="40.62371175209346" lon="9.626641192151066"><ele>111.33333333333333</ele><time>2026-05-03T14:18:12Z</time></trkpt><trkpt lat="40.62379178491912" lon="9.62660715858058"><ele>107.66666666666666</ele><time>2026-05-03T14:18:14Z</time></trkpt><trkpt lat="40.62387989369524" lon="9.62650321920769"><ele>104.0</ele><time>2026-05-03T14:18:16Z</time></trkpt><trkpt lat="40.62397324279296" lon="9.62643113818058"><ele>103.99999999999999</ele><time>2026-05-03T14:18:18Z</time></trkpt><trkpt lat="40.62403669738241" lon="9.626416617576252"><ele>104.0</ele><time>2026-05-03T14:18:19Z</time></trkpt><trkpt lat="40.624107816998674" lon="9.626406095480236"><ele>104.0</ele><time>2026-05-03T14:18:20Z</time></trkpt><trkpt lat="40.62417917173029" lon="9.626398234844595"><ele>104.0</ele><time>2026-05-03T14:18:21Z</time></trkpt><trkpt lat="40.624255017510286" lon="9.62640734716303"><ele>103.99999999999999</ele><time>2026-05-03T14:18:22Z</time></trkpt><trkpt lat="40.62435332289675" lon="9.626411137324709"><ele>104.0</ele><time>2026-05-03T14:18:23Z</time></trkpt><trkpt lat="40.62445607286213" lon="9.626411859540633"><ele>107.0</ele><time>2026-05-03T14:18:24Z</time></trkpt><trkpt lat="40.62456873332584" lon="9.626419368810426"><ele>110.0</ele><time>2026-05-03T14:18:25Z</time></trkpt><trkpt lat="40.62468823238633" lon="9.62640251521349"><ele>113.0</ele><time>2026-05-03T14:18:26Z</time></trkpt><trkpt lat="40.624829253938444" lon="9.626382270294952"><ele>116.0</ele><time>2026-05-03T14:18:27Z</time></trkpt><trkpt lat="40.62500613038489" lon="9.626350186240453"><ele>116.0</ele><time>2026-05-03T14:18:28Z</time></trkpt><trkpt lat="40.62518605109595" lon="9.626300409563122"><ele>116.0</ele><time>2026-05-03T14:18:29Z</time></trkpt><trkpt lat="40.62531532127895" lon="9.626266901455045"><ele>116.0</ele><time>2026-05-03T14:18:30Z</time></trkpt><trkpt lat="40.625398429881656" lon="9.626243432695045"><ele>116.0</ele><time>2026-05-03T14:18:31Z</time></trkpt><trkpt lat="40.62550949190153" lon="9.626233789507367"><ele>117.66666666666666</ele><time>2026-05-03T14:18:32Z</time></trkpt><trkpt lat="40.6255984730613" lon="9.626220889611192"><ele>119.33333333333333</ele><time>2026-05-03T14:18:33Z</time></trkpt><trkpt lat="40.62566702932286" lon="9.626186587541094"><ele>121.0</ele><time>2026-05-03T14:18:34Z</time></trkpt><trkpt lat="40.62571186554878" lon="9.626041870203421"><ele>122.66666666666666</ele><time>2026-05-03T14:18:36Z</time></trkpt><trkpt lat="40.62571134634568" lon="9.625946438920776"><ele>124.33333333333333</ele><time>2026-05-03T14:18:37Z</time></trkpt><trkpt lat="40.625717753880394" lon="9.625852939194694"><ele>126.0</ele><time>2026-05-03T14:18:38Z</time></trkpt><trkpt lat="40.62573215053291" lon="9.625770212978967"><ele>127.0</ele><time>2026-05-03T14:18:39Z</time></trkpt><trkpt lat="40.62576774820341" lon="9.625685401139178"><ele>128.0</ele><time>2026-05-03T14:18:40Z</time></trkpt><trkpt lat="40.62582940438869" lon="9.625598945044377"><ele>129.0</ele><time>2026-05-03T14:18:41Z</time></trkpt><trkpt lat="40.62588158606879" lon="9.625503552637154"><ele>130.0</ele><time>2026-05-03T14:18:42Z</time></trkpt><trkpt lat="40.625933557292306" lon="9.625401997099491"><ele>131.0</ele><time>2026-05-03T14:18:43Z</time></trkpt><trkpt lat="40.62599076797677" lon="9.625311357192375"><ele>132.0</ele><time>2026-05-03T14:18:44Z</time></trkpt><trkpt lat="40.62604733825001" lon="9.62522005621621"><ele>132.0</ele><time>2026-05-03T14:18:45Z</time></trkpt><trkpt lat="40.62609864090282" lon="9.625133463149696"><ele>132.0</ele><time>2026-05-03T14:18:46Z</time></trkpt><trkpt lat="40.626145246654" lon="9.625050394311492"><ele>132.0</ele><time>2026-05-03T14:18:47Z</time></trkpt><trkpt lat="40.62619137042556" lon="9.624970761204986"><ele>132.0</ele><time>2026-05-03T14:18:48Z</time></trkpt><trkpt lat="40.626261040109405" lon="9.624867565066195"><ele>132.0</ele><time>2026-05-03T14:18:50Z</time></trkpt><trkpt lat="40.62632721214412" lon="9.62485693070401"><ele>132.0</ele><time>2026-05-03T14:18:53Z</time></trkpt><trkpt lat="40.6264092078644" lon="9.624908991005782"><ele>129.83333333333334</ele><time>2026-05-03T14:18:55.999Z</time></trkpt><trkpt lat="40.62648039393436" lon="9.624964737399969"><ele>127.66666666666666</ele><time>2026-05-03T14:18:57.999Z</time></trkpt><trkpt lat="40.6265588391817" lon="9.625015898629226"><ele>125.5</ele><time>2026-05-03T14:19:00.999Z</time></trkpt><trkpt lat="40.62663399381289" lon="9.625056983313701"><ele>123.33333333333333</ele><time>2026-05-03T14:19:03.999Z</time></trkpt><trkpt lat="40.62669106833483" lon="9.625096102669755"><ele>121.16666666666666</ele><time>2026-05-03T14:19:05.999Z</time></trkpt><trkpt lat="40.62675851350607" lon="9.625128127198515"><ele>119.0</ele><time>2026-05-03T14:19:07.999Z</time></trkpt><trkpt lat="40.62684240488364" lon="9.625175332584142"><ele>119.0</ele><time>2026-05-03T14:19:09.999Z</time></trkpt><trkpt lat="40.62692897481251" lon="9.625224633887154"><ele>119.0</ele><time>2026-05-03T14:19:11.999Z</time></trkpt><trkpt lat="40.627015696945705" lon="9.625270017081087"><ele>119.0</ele><time>2026-05-03T14:19:13.999Z</time></trkpt><trkpt lat="40.627100614270276" lon="9.625310278541223"><ele>119.0</ele><time>2026-05-03T14:19:15.999Z</time></trkpt><trkpt lat="40.62718762977762" lon="9.62534216399956"><ele>119.0</ele><time>2026-05-03T14:19:17.999Z</time></trkpt><trkpt lat="40.62726214512132" lon="9.625399363567594"><ele>118.99999999999999</ele><time>2026-05-03T14:19:19.999Z</time></trkpt><trkpt lat="40.62723244877658" lon="9.625319233680493"><ele>119.0</ele><time>2026-05-03T14:20:24Z</time></trkpt><trkpt lat="40.62712080838992" lon="9.625261449896824"><ele>119.0</ele><time>2026-05-03T14:20:26Z</time></trkpt><trkpt lat="40.62702355531199" lon="9.625219452316442"><ele>119.0</ele><time>2026-05-03T14:20:28Z</time></trkpt><trkpt lat="40.626963643414705" lon="9.625192363188058"><ele>118.99999999999999</ele><time>2026-05-03T14:20:29Z</time></trkpt><trkpt lat="40.62689862049721" lon="9.625163974661314"><ele>119.0</ele><time>2026-05-03T14:20:30Z</time></trkpt><trkpt lat="40.626836094658" lon="9.625127894369422"><ele>119.0</ele><time>2026-05-03T14:20:31Z</time></trkpt><trkpt lat="40.62672484003046" lon="9.625059508386391"><ele>119.0</ele><time>2026-05-03T14:20:33Z</time></trkpt><trkpt lat="40.626621093025875" lon="9.624995540706616"><ele>119.0</ele><time>2026-05-03T14:20:35Z</time></trkpt><trkpt lat="40.626506765568706" lon="9.624948518363324"><ele>119.0</ele><time>2026-05-03T14:20:37Z</time></trkpt><trkpt lat="40.62639548079007" lon="9.624912829579456"><ele>118.99999999999999</ele><time>2026-05-03T14:20:39Z</time></trkpt><trkpt lat="40.6263255187965" lon="9.624882114168395"><ele>119.0</ele><time>2026-05-03T14:20:40Z</time></trkpt><trkpt lat="40.62624285685308" lon="9.624854953597811"><ele>119.0</ele><time>2026-05-03T14:20:42Z</time></trkpt><trkpt lat="40.62614619028793" lon="9.624914369598809"><ele>119.0</ele><time>2026-05-03T14:20:44Z</time></trkpt><trkpt lat="40.626105374112186" lon="9.624982882921923"><ele>118.99999999999999</ele><time>2026-05-03T14:20:45Z</time></trkpt><trkpt lat="40.62605748556158" lon="9.625075175535446"><ele>119.0</ele><time>2026-05-03T14:20:46Z</time></trkpt><trkpt lat="40.626003821109734" lon="9.625197372290035"><ele>122.4</ele><time>2026-05-03T14:20:47Z</time></trkpt><trkpt lat="40.62594986337667" lon="9.625327917769992"><ele>125.80000000000001</ele><time>2026-05-03T14:20:48Z</time></trkpt><trkpt lat="40.62589333248092" lon="9.62543715649977"><ele>129.2</ele><time>2026-05-03T14:20:49Z</time></trkpt><trkpt lat="40.62583857217966" lon="9.625538034952529"><ele>132.6</ele><time>2026-05-03T14:20:50Z</time></trkpt><trkpt lat="40.62577990015763" lon="9.625647373275847"><ele>136.0</ele><time>2026-05-03T14:20:51Z</time></trkpt><trkpt lat="40.625726057074246" lon="9.625739399002969"><ele>136.0</ele><time>2026-05-03T14:20:52Z</time></trkpt><trkpt lat="40.625678742345094" lon="9.62581944530969"><ele>136.0</ele><time>2026-05-03T14:20:53Z</time></trkpt><trkpt lat="40.625654296473115" lon="9.625909042723437"><ele>136.0</ele><time>2026-05-03T14:20:54Z</time></trkpt><trkpt lat="40.62564497295778" lon="9.626012597400818"><ele>136.0</ele><time>2026-05-03T14:20:55Z</time></trkpt><trkpt lat="40.62562430031562" lon="9.626113775435453"><ele>136.0</ele><time>2026-05-03T14:20:56Z</time></trkpt><trkpt lat="40.625561114464304" lon="9.6262457780621"><ele>136.0</ele><time>2026-05-03T14:20:58Z</time></trkpt><trkpt lat="40.62548348928247" lon="9.626270710961402"><ele>134.0</ele><time>2026-05-03T14:20:59Z</time></trkpt><trkpt lat="40.625385321212796" lon="9.626271057673511"><ele>132.0</ele><time>2026-05-03T14:21:00Z</time></trkpt><trkpt lat="40.62529873089381" lon="9.626277652889838"><ele>130.0</ele><time>2026-05-03T14:21:00.999Z</time></trkpt><trkpt lat="40.62521722905056" lon="9.626293573275301"><ele>128.0</ele><time>2026-05-03T14:21:01.999Z</time></trkpt><trkpt lat="40.62512841381711" lon="9.626311804292087"><ele>126.0</ele><time>2026-05-03T14:21:02.999Z</time></trkpt><trkpt lat="40.6250349396234" lon="9.626338813233811"><ele>123.5</ele><time>2026-05-03T14:21:03.999Z</time></trkpt><trkpt lat="40.62493263135971" lon="9.626368919361125"><ele>121.0</ele><time>2026-05-03T14:21:04.999Z</time></trkpt><trkpt lat="40.62479291311063" lon="9.626393390044038"><ele>118.5</ele><time>2026-05-03T14:21:05.999Z</time></trkpt><trkpt lat="40.6246514428284" lon="9.626417542173256"><ele>116.0</ele><time>2026-05-03T14:21:06.999Z</time></trkpt><trkpt lat="40.624546317216065" lon="9.626424418615795"><ele>113.99999999999999</ele><time>2026-05-03T14:21:07.999Z</time></trkpt><trkpt lat="40.62446149489446" lon="9.626423813970549"><ele>112.0</ele><time>2026-05-03T14:21:08.999Z</time></trkpt><trkpt lat="40.62436759590464" lon="9.62641907761288"><ele>110.0</ele><time>2026-05-03T14:21:09.999Z</time></trkpt><trkpt lat="40.624267172645936" lon="9.626418594630461"><ele>108.0</ele><time>2026-05-03T14:21:10.999Z</time></trkpt><trkpt lat="40.62417170649225" lon="9.626413755884926"><ele>105.99999999999999</ele><time>2026-05-03T14:21:11.999Z</time></trkpt><trkpt lat="40.624098304696766" lon="9.626419854013708"><ele>104.0</ele><time>2026-05-03T14:21:12.999Z</time></trkpt><trkpt lat="40.62398495970776" lon="9.626419016185762"><ele>104.0</ele><time>2026-05-03T14:21:14.999Z</time></trkpt><trkpt lat="40.62391842170686" lon="9.626263746098548"><ele>104.0</ele><time>2026-05-03T14:21:16.999Z</time></trkpt><trkpt lat="40.62388829814643" lon="9.626165934504563"><ele>104.0</ele><time>2026-05-03T14:21:17.999Z</time></trkpt><trkpt lat="40.62383987278538" lon="9.626082117431327"><ele>104.0</ele><time>2026-05-03T14:21:18.999Z</time></trkpt><trkpt lat="40.62379636271422" lon="9.62600897061064"><ele>104.0</ele><time>2026-05-03T14:21:19.999Z</time></trkpt><trkpt lat="40.62370649393339" lon="9.625944346764038"><ele>106.25</ele><time>2026-05-03T14:21:21.999Z</time></trkpt><trkpt lat="40.62361887246772" lon="9.625987516543088"><ele>108.5</ele><time>2026-05-03T14:21:23.999Z</time></trkpt><trkpt lat="40.62349975314556" lon="9.626095744429033"><ele>110.75</ele><time>2026-05-03T14:21:25.999Z</time></trkpt><trkpt lat="40.62340591713044" lon="9.62616575258774"><ele>113.0</ele><time>2026-05-03T14:21:26.999Z</time></trkpt><trkpt lat="40.623292635148424" lon="9.62623550197955"><ele>115.0</ele><time>2026-05-03T14:21:27.999Z</time></trkpt><trkpt lat="40.62317972870369" lon="9.626290828221988"><ele>117.0</ele><time>2026-05-03T14:21:28.999Z</time></trkpt><trkpt lat="40.623058592265835" lon="9.626343464385528"><ele>119.0</ele><time>2026-05-03T14:21:29.999Z</time></trkpt><trkpt lat="40.622901204707595" lon="9.626340258340429"><ele>121.0</ele><time>2026-05-03T14:21:30.999Z</time></trkpt><trkpt lat="40.622764923665365" lon="9.62632207442021"><ele>125.19999999999999</ele><time>2026-05-03T14:21:31.999Z</time></trkpt><trkpt lat="40.6226833087162" lon="9.626298673096706"><ele>129.39999999999998</ele><time>2026-05-03T14:21:32.999Z</time></trkpt><trkpt lat="40.62256237609837" lon="9.626224826190398"><ele>133.6</ele><time>2026-05-03T14:21:34.999Z</time></trkpt><trkpt lat="40.622527024713435" lon="9.626139764127368"><ele>137.79999999999998</ele><time>2026-05-03T14:21:35.999Z</time></trkpt><trkpt lat="40.62247170918995" lon="9.626004254848624"><ele>142.0</ele><time>2026-05-03T14:21:36.999Z</time></trkpt><trkpt lat="40.622417538356395" lon="9.625902077453073"><ele>142.0</ele><time>2026-05-03T14:21:37.999Z</time></trkpt><trkpt lat="40.6223649313898" lon="9.625828774596599"><ele>142.0</ele><time>2026-05-03T14:21:38.999Z</time></trkpt><trkpt lat="40.622322730525894" lon="9.625705351660807"><ele>142.0</ele><time>2026-05-03T14:21:39.999Z</time></trkpt><trkpt lat="40.622307012070955" lon="9.62560073909702"><ele>142.0</ele><time>2026-05-03T14:21:40.999Z</time></trkpt><trkpt lat="40.62227651079362" lon="9.625415831063613"><ele>142.0</ele><time>2026-05-03T14:21:42.999Z</time></trkpt><trkpt lat="40.62225615180792" lon="9.625324668577576"><ele>141.0</ele><time>2026-05-03T14:21:43.999Z</time></trkpt><trkpt lat="40.6222469679666" lon="9.625221272309616"><ele>140.0</ele><time>2026-05-03T14:21:44.999Z</time></trkpt><trkpt lat="40.62222067551713" lon="9.62512357735424"><ele>139.0</ele><time>2026-05-03T14:21:45.999Z</time></trkpt><trkpt lat="40.622210693187554" lon="9.625023110416059"><ele>138.0</ele><time>2026-05-03T14:21:46.999Z</time></trkpt><trkpt lat="40.62217804226067" lon="9.624943393872668"><ele>137.0</ele><time>2026-05-03T14:21:48Z</time></trkpt><trkpt lat="40.62214557785312" lon="9.624864002004406"><ele>136.0</ele><time>2026-05-03T14:21:49Z</time></trkpt><trkpt lat="40.62211144680468" lon="9.624789243154877"><ele>135.0</ele><time>2026-05-03T14:21:50Z</time></trkpt><trkpt lat="40.62207340672501" lon="9.624714647477923"><ele>135.0</ele><time>2026-05-03T14:21:51Z</time></trkpt><trkpt lat="40.62203597842478" lon="9.624646490192138"><ele>135.0</ele><time>2026-05-03T14:21:52Z</time></trkpt><trkpt lat="40.62199589571589" lon="9.624571811579393"><ele>135.0</ele><time>2026-05-03T14:21:53Z</time></trkpt><trkpt lat="40.6219513842997" lon="9.624502857834413"><ele>135.0</ele><time>2026-05-03T14:21:54Z</time></trkpt><trkpt lat="40.62186510636031" lon="9.624381534004575"><ele>135.0</ele><time>2026-05-03T14:21:56Z</time></trkpt><trkpt lat="40.62178495366864" lon="9.624304535182748"><ele>135.0</ele><time>2026-05-03T14:21:57Z</time></trkpt><trkpt lat="40.62170031737246" lon="9.62420499684111"><ele>134.5</ele><time>2026-05-03T14:21:58Z</time></trkpt><trkpt lat="40.62162024569229" lon="9.624071848501641"><ele>134.0</ele><time>2026-05-03T14:21:59Z</time></trkpt><trkpt lat="40.62155070670164" lon="9.623912820182985"><ele>133.5</ele><time>2026-05-03T14:22:00Z</time></trkpt><trkpt lat="40.621495130710954" lon="9.623771285703299"><ele>133.0</ele><time>2026-05-03T14:22:01Z</time></trkpt><trkpt lat="40.62144493480624" lon="9.62365527736493"><ele>129.4</ele><time>2026-05-03T14:22:02Z</time></trkpt><trkpt lat="40.62140142384585" lon="9.62352366099631"><ele>125.80000000000001</ele><time>2026-05-03T14:22:03Z</time></trkpt><trkpt lat="40.6213533308709" lon="9.62341082657523"><ele>122.2</ele><time>2026-05-03T14:22:04Z</time></trkpt><trkpt lat="40.62131588460817" lon="9.623304808924289"><ele>118.6</ele><time>2026-05-03T14:22:05Z</time></trkpt><trkpt lat="40.62128774043287" lon="9.62321510825262"><ele>115.0</ele><time>2026-05-03T14:22:06Z</time></trkpt><trkpt lat="40.6212298651696" lon="9.623096998514407"><ele>115.0</ele><time>2026-05-03T14:22:07Z</time></trkpt><trkpt lat="40.62125621118469" lon="9.622944126648743"><ele>115.0</ele><time>2026-05-03T14:22:09Z</time></trkpt><trkpt lat="40.62128963339779" lon="9.622853449412103"><ele>115.0</ele><time>2026-05-03T14:22:10Z</time></trkpt><trkpt lat="40.62133655735261" lon="9.62273603330267"><ele>115.0</ele><time>2026-05-03T14:22:12Z</time></trkpt><trkpt lat="40.621360047878355" lon="9.622626209753324"><ele>115.0</ele><time>2026-05-03T14:22:14Z</time></trkpt><trkpt lat="40.62135475695941" lon="9.622492856404103"><ele>114.4</ele><time>2026-05-03T14:22:16Z</time></trkpt><trkpt lat="40.62135506115342" lon="9.622388170403594"><ele>113.8</ele><time>2026-05-03T14:22:19Z</time></trkpt><trkpt lat="40.621376527869266" lon="9.622261144539639"><ele>113.19999999999999</ele><time>2026-05-03T14:22:21Z</time></trkpt><trkpt lat="40.621415097218154" lon="9.622099922299359"><ele>112.6</ele><time>2026-05-03T14:22:23Z</time></trkpt><trkpt lat="40.62143947590098" lon="9.621976836281164"><ele>112.0</ele><time>2026-05-03T14:22:24Z</time></trkpt><trkpt lat="40.621455491379" lon="9.62188945774196"><ele>111.83333333333334</ele><time>2026-05-03T14:22:25Z</time></trkpt><trkpt lat="40.62147040079092" lon="9.621803567455013"><ele>111.66666666666667</ele><time>2026-05-03T14:22:26Z</time></trkpt><trkpt lat="40.62150761745613" lon="9.621723267380625"><ele>111.5</ele><time>2026-05-03T14:22:27Z</time></trkpt><trkpt lat="40.62155039527897" lon="9.621640754592702"><ele>111.33333333333334</ele><time>2026-05-03T14:22:28Z</time></trkpt><trkpt lat="40.621578275698795" lon="9.621556142829084"><ele>111.16666666666667</ele><time>2026-05-03T14:22:29Z</time></trkpt><trkpt lat="40.62160128861933" lon="9.62147013142687"><ele>111.0</ele><time>2026-05-03T14:22:30Z</time></trkpt><trkpt lat="40.62164029123906" lon="9.621327699207136"><ele>111.0</ele><time>2026-05-03T14:22:32Z</time></trkpt><trkpt lat="40.62167591738112" lon="9.621206349120678"><ele>111.0</ele><time>2026-05-03T14:22:34Z</time></trkpt><trkpt lat="40.62168696099804" lon="9.621068768391082"><ele>111.0</ele><time>2026-05-03T14:22:36Z</time></trkpt><trkpt lat="40.62169007603683" lon="9.620942312008452"><ele>111.0</ele><time>2026-05-03T14:22:38Z</time></trkpt><trkpt lat="40.62167554009823" lon="9.620860179495608"><ele>111.0</ele><time>2026-05-03T14:22:40Z</time></trkpt><trkpt lat="40.62161497104517" lon="9.620785464524861"><ele>111.0</ele><time>2026-05-03T14:22:42Z</time></trkpt><trkpt lat="40.62155419006523" lon="9.620722664879125"><ele>108.5</ele><time>2026-05-03T14:22:47Z</time></trkpt><trkpt lat="40.62147778158955" lon="9.620638004984674"><ele>106.0</ele><time>2026-05-03T14:22:49Z</time></trkpt><trkpt lat="40.6214210616259" lon="9.620595423428536"><ele>103.5</ele><time>2026-05-03T14:22:50Z</time></trkpt><trkpt lat="40.62133146700619" lon="9.620505951147392"><ele>101.0</ele><time>2026-05-03T14:22:52Z</time></trkpt><trkpt lat="40.621300603213434" lon="9.620425072566263"><ele>98.5</ele><time>2026-05-03T14:22:53Z</time></trkpt><trkpt lat="40.62125888523409" lon="9.620315246299764"><ele>96.0</ele><time>2026-05-03T14:22:54Z</time></trkpt><trkpt lat="40.62122195160888" lon="9.620197808243638"><ele>94.4</ele><time>2026-05-03T14:22:55Z</time></trkpt><trkpt lat="40.62119692266985" lon="9.620076283414328"><ele>92.8</ele><time>2026-05-03T14:22:56Z</time></trkpt><trkpt lat="40.62119985685667" lon="9.619975356871985"><ele>91.2</ele><time>2026-05-03T14:22:57Z</time></trkpt><trkpt lat="40.6212284028968" lon="9.619834767827877"><ele>89.60000000000001</ele><time>2026-05-03T14:22:58.999Z</time></trkpt><trkpt lat="40.62119714846871" lon="9.619688305084273"><ele>88.0</ele><time>2026-05-03T14:23:00.999Z</time></trkpt><trkpt lat="40.62120257391609" lon="9.619597905217942"><ele>88.2</ele><time>2026-05-03T14:23:01.999Z</time></trkpt><trkpt lat="40.6212199605896" lon="9.619442339354588"><ele>88.4</ele><time>2026-05-03T14:23:03.999Z</time></trkpt><trkpt lat="40.62122576559005" lon="9.619292581845714"><ele>88.60000000000001</ele><time>2026-05-03T14:23:05.999Z</time></trkpt><trkpt lat="40.621210060586286" lon="9.619157183940924"><ele>88.80000000000001</ele><time>2026-05-03T14:23:07.999Z</time></trkpt><trkpt lat="40.6211645350049" lon="9.619031205099505"><ele>89.0</ele><time>2026-05-03T14:23:09.999Z</time></trkpt><trkpt lat="40.621149852432225" lon="9.618936585398288"><ele>90.5</ele><time>2026-05-03T14:23:11.999Z</time></trkpt><trkpt lat="40.62111271738551" lon="9.618827373695277"><ele>92.0</ele><time>2026-05-03T14:23:13.999Z</time></trkpt><trkpt lat="40.62107606404773" lon="9.618747099869465"><ele>93.5</ele><time>2026-05-03T14:23:15.999Z</time></trkpt><trkpt lat="40.62107654249472" lon="9.618601704283012"><ele>95.0</ele><time>2026-05-03T14:23:17.999Z</time></trkpt><trkpt lat="40.62108356598625" lon="9.618499440297807"><ele>96.49999999999999</ele><time>2026-05-03T14:23:18.999Z</time></trkpt><trkpt lat="40.62104070917076" lon="9.618414570147314"><ele>98.0</ele><time>2026-05-03T14:23:21.999Z</time></trkpt><trkpt lat="40.62099742819506" lon="9.618339288055308"><ele>98.0</ele><time>2026-05-03T14:23:22.999Z</time></trkpt><trkpt lat="40.6209781627732" lon="9.61819929754357"><ele>98.0</ele><time>2026-05-03T14:23:24.999Z</time></trkpt><trkpt lat="40.62098088567016" lon="9.618114402972951"><ele>98.0</ele><time>2026-05-03T14:23:25.999Z</time></trkpt><trkpt lat="40.6209778659279" lon="9.617963673735808"><ele>98.0</ele><time>2026-05-03T14:23:27.999Z</time></trkpt><trkpt lat="40.62097347703498" lon="9.617844350868035"><ele>98.0</ele><time>2026-05-03T14:23:28.999Z</time></trkpt><trkpt lat="40.62095990693678" lon="9.617715583033835"><ele>99.4</ele><time>2026-05-03T14:23:29.999Z</time></trkpt><trkpt lat="40.62094785942549" lon="9.617578521880874"><ele>100.80000000000001</ele><time>2026-05-03T14:23:30.999Z</time></trkpt><trkpt lat="40.62093234939429" lon="9.617455871180528"><ele>102.2</ele><time>2026-05-03T14:23:31.999Z</time></trkpt><trkpt lat="40.62089415715985" lon="9.617340742705865"><ele>103.6</ele><time>2026-05-03T14:23:32.999Z</time></trkpt><trkpt lat="40.62083495216347" lon="9.617233151346344"><ele>105.0</ele><time>2026-05-03T14:23:33.999Z</time></trkpt><trkpt lat="40.620790950077186" lon="9.617146756963209"><ele>105.0</ele><time>2026-05-03T14:23:34.999Z</time></trkpt><trkpt lat="40.6207202297525" lon="9.617000136735527"><ele>105.0</ele><time>2026-05-03T14:23:36.999Z</time></trkpt><trkpt lat="40.62063805066009" lon="9.616937319746993"><ele>105.0</ele><time>2026-05-03T14:23:37.999Z</time></trkpt><trkpt lat="40.62053968286684" lon="9.616879566403858"><ele>105.0</ele><time>2026-05-03T14:23:38.999Z</time></trkpt><trkpt lat="40.620449784263066" lon="9.616830538169323"><ele>105.0</ele><time>2026-05-03T14:23:39.999Z</time></trkpt><trkpt lat="40.6203648780005" lon="9.616789917687319"><ele>105.8</ele><time>2026-05-03T14:23:40.999Z</time></trkpt><trkpt lat="40.6202712478842" lon="9.616762018508133"><ele>106.6</ele><time>2026-05-03T14:23:41.999Z</time></trkpt><trkpt lat="40.62016056218135" lon="9.61675182753567"><ele>107.4</ele><time>2026-05-03T14:23:42.999Z</time></trkpt><trkpt lat="40.62005559293027" lon="9.61674609609955"><ele>108.2</ele><time>2026-05-03T14:23:43.999Z</time></trkpt><trkpt lat="40.61996145705997" lon="9.61673871142465"><ele>109.0</ele><time>2026-05-03T14:23:44.999Z</time></trkpt><trkpt lat="40.61985997779866" lon="9.616751048281747"><ele>109.0</ele><time>2026-05-03T14:23:45.999Z</time></trkpt><trkpt lat="40.619741958109735" lon="9.616763368479607"><ele>109.0</ele><time>2026-05-03T14:23:46.999Z</time></trkpt><trkpt lat="40.619621433770334" lon="9.616777667756361"><ele>109.0</ele><time>2026-05-03T14:23:47.999Z</time></trkpt><trkpt lat="40.61953286852446" lon="9.616777341181896"><ele>109.0</ele><time>2026-05-03T14:23:48.999Z</time></trkpt><trkpt lat="40.61946685252822" lon="9.616750830010673"><ele>109.0</ele><time>2026-05-03T14:23:49.999Z</time></trkpt><trkpt lat="40.619404209575094" lon="9.616665538013034"><ele>109.33333333333334</ele><time>2026-05-03T14:23:50.999Z</time></trkpt><trkpt lat="40.619343743002105" lon="9.616590309450029"><ele>109.66666666666667</ele><time>2026-05-03T14:23:51.999Z</time></trkpt><trkpt lat="40.61928548389072" lon="9.616514980242254"><ele>110.0</ele><time>2026-05-03T14:23:52.999Z</time></trkpt><trkpt lat="40.61923555829539" lon="9.616433851179831"><ele>110.33333333333334</ele><time>2026-05-03T14:23:54Z</time></trkpt><trkpt lat="40.61918769752184" lon="9.6163388698133"><ele>110.66666666666667</ele><time>2026-05-03T14:23:55Z</time></trkpt><trkpt lat="40.61914442650461" lon="9.616241132700457"><ele>111.0</ele><time>2026-05-03T14:23:56Z</time></trkpt><trkpt lat="40.619114818345295" lon="9.616149408633042"><ele>111.0</ele><time>2026-05-03T14:23:57Z</time></trkpt><trkpt lat="40.619075903301805" lon="9.616066422633562"><ele>111.0</ele><time>2026-05-03T14:23:58Z</time></trkpt><trkpt lat="40.61902616362186" lon="9.615954271831082"><ele>111.0</ele><time>2026-05-03T14:24:00Z</time></trkpt><trkpt lat="40.61899686703206" lon="9.615842066292315"><ele>111.0</ele><time>2026-05-03T14:24:02Z</time></trkpt><trkpt lat="40.6189543211979" lon="9.615742793408737"><ele>111.0</ele><time>2026-05-03T14:24:04Z</time></trkpt><trkpt lat="40.61886010565539" lon="9.615582223147173"><ele>111.0</ele><time>2026-05-03T14:24:07Z</time></trkpt><trkpt lat="40.618798242476124" lon="9.615440314760589"><ele>111.0</ele><time>2026-05-03T14:24:08Z</time></trkpt><trkpt lat="40.61876128962438" lon="9.615367823150537"><ele>111.0</ele><time>2026-05-03T14:24:09Z</time></trkpt><trkpt lat="40.61871859958228" lon="9.615276251891947"><ele>111.0</ele><time>2026-05-03T14:24:10Z</time></trkpt><trkpt lat="40.61868640146375" lon="9.615170716061195"><ele>111.0</ele><time>2026-05-03T14:24:11Z</time></trkpt><trkpt lat="40.61863916190794" lon="9.615044762065446"><ele>109.19999999999999</ele><time>2026-05-03T14:24:12Z</time></trkpt><trkpt lat="40.618588436784584" lon="9.614931925991046"><ele>107.39999999999999</ele><time>2026-05-03T14:24:13Z</time></trkpt><trkpt lat="40.61855203497849" lon="9.614851202137997"><ele>105.6</ele><time>2026-05-03T14:24:14Z</time></trkpt><trkpt lat="40.618520494446315" lon="9.614721971344773"><ele>103.8</ele><time>2026-05-03T14:24:16Z</time></trkpt><trkpt lat="40.61845146470544" lon="9.614600178406"><ele>102.0</ele><time>2026-05-03T14:24:18Z</time></trkpt><trkpt lat="40.61841613737967" lon="9.614518760632329"><ele>99.14285714285714</ele><time>2026-05-03T14:24:19Z</time></trkpt><trkpt lat="40.618380834823846" lon="9.614438725715345"><ele>96.28571428571429</ele><time>2026-05-03T14:24:20Z</time></trkpt><trkpt lat="40.618350452832" lon="9.614354334630082"><ele>93.42857142857142</ele><time>2026-05-03T14:24:21Z</time></trkpt><trkpt lat="40.618322740069544" lon="9.61426725195427"><ele>90.57142857142857</ele><time>2026-05-03T14:24:22Z</time></trkpt><trkpt lat="40.61828663487351" lon="9.614179669194279"><ele>87.71428571428571</ele><time>2026-05-03T14:24:23Z</time></trkpt><trkpt lat="40.618245994680876" lon="9.614096982660339"><ele>84.85714285714285</ele><time>2026-05-03T14:24:24Z</time></trkpt><trkpt lat="40.61820924518547" lon="9.613999018203268"><ele>82.0</ele><time>2026-05-03T14:24:25Z</time></trkpt><trkpt lat="40.61816960329582" lon="9.613909213067414"><ele>82.0</ele><time>2026-05-03T14:24:26Z</time></trkpt><trkpt lat="40.618156783691624" lon="9.613825165352067"><ele>82.0</ele><time>2026-05-03T14:24:27Z</time></trkpt><trkpt lat="40.61809763878005" lon="9.613672885847556"><ele>82.0</ele><time>2026-05-03T14:24:29Z</time></trkpt><trkpt lat="40.61803390455297" lon="9.613542958507884"><ele>82.0</ele><time>2026-05-03T14:24:31Z</time></trkpt><trkpt lat="40.6179807221009" lon="9.613458879282296"><ele>82.0</ele><time>2026-05-03T14:24:33Z</time></trkpt><trkpt lat="40.61807333648461" lon="9.613349055127793"><ele>78.39999999999999</ele><time>2026-05-03T14:24:36Z</time></trkpt><trkpt lat="40.61814693801557" lon="9.613249702593835"><ele>74.8</ele><time>2026-05-03T14:24:37Z</time></trkpt><trkpt lat="40.61822929861514" lon="9.613127398779998"><ele>71.2</ele><time>2026-05-03T14:24:38Z</time></trkpt><trkpt lat="40.61830111207821" lon="9.61302985847307"><ele>67.6</ele><time>2026-05-03T14:24:39Z</time></trkpt><trkpt lat="40.61837572474963" lon="9.612938097132604"><ele>64.0</ele><time>2026-05-03T14:24:40Z</time></trkpt><trkpt lat="40.61845618232346" lon="9.612880150115839"><ele>64.0</ele><time>2026-05-03T14:24:41Z</time></trkpt><trkpt lat="40.61854096742823" lon="9.612835847287315"><ele>64.0</ele><time>2026-05-03T14:24:42Z</time></trkpt><trkpt lat="40.61863490633623" lon="9.612804718621188"><ele>64.0</ele><time>2026-05-03T14:24:43Z</time></trkpt><trkpt lat="40.61873246464619" lon="9.612765916868023"><ele>64.0</ele><time>2026-05-03T14:24:44Z</time></trkpt><trkpt lat="40.61883259654785" lon="9.61272707541385"><ele>64.0</ele><time>2026-05-03T14:24:45Z</time></trkpt><trkpt lat="40.61892654186371" lon="9.612691468043053"><ele>63.33333333333333</ele><time>2026-05-03T14:24:46Z</time></trkpt><trkpt lat="40.619009627624145" lon="9.612671997469919"><ele>62.666666666666664</ele><time>2026-05-03T14:24:47Z</time></trkpt><trkpt lat="40.619088052229074" lon="9.612686597045323"><ele>62.0</ele><time>2026-05-03T14:24:48Z</time></trkpt><trkpt lat="40.61916494147291" lon="9.612724816730879"><ele>61.33333333333333</ele><time>2026-05-03T14:24:49Z</time></trkpt><trkpt lat="40.619243089911976" lon="9.612770724033565"><ele>60.666666666666664</ele><time>2026-05-03T14:24:50Z</time></trkpt><trkpt lat="40.61931035334798" lon="9.612810920095248"><ele>60.0</ele><time>2026-05-03T14:24:51Z</time></trkpt><trkpt lat="40.619410386430545" lon="9.61278225718337"><ele>60.0</ele><time>2026-05-03T14:24:53Z</time></trkpt><trkpt lat="40.61945124541529" lon="9.612702361907564"><ele>60.0</ele><time>2026-05-03T14:24:54Z</time></trkpt><trkpt lat="40.6194885794061" lon="9.612601074051565"><ele>60.0</ele><time>2026-05-03T14:24:55Z</time></trkpt><trkpt lat="40.61952782844994" lon="9.612463187937042"><ele>60.0</ele><time>2026-05-03T14:24:56Z</time></trkpt><trkpt lat="40.61956589196031" lon="9.612318577257156"><ele>60.0</ele><time>2026-05-03T14:24:57Z</time></trkpt><trkpt lat="40.61958197888171" lon="9.61218670334081"><ele>59.6</ele><time>2026-05-03T14:24:58Z</time></trkpt><trkpt lat="40.61955676576129" lon="9.612056740730303"><ele>59.2</ele><time>2026-05-03T14:24:59Z</time></trkpt><trkpt lat="40.61951937752782" lon="9.611935963426887"><ele>58.8</ele><time>2026-05-03T14:25:00Z</time></trkpt><trkpt lat="40.61947414141168" lon="9.611826268603123"><ele>58.4</ele><time>2026-05-03T14:25:01Z</time></trkpt><trkpt lat="40.619429253529376" lon="9.61170447728779"><ele>58.0</ele><time>2026-05-03T14:25:02Z</time></trkpt><trkpt lat="40.61938487863998" lon="9.61158606714148"><ele>57.83333333333333</ele><time>2026-05-03T14:25:03Z</time></trkpt><trkpt lat="40.619343939032845" lon="9.611479201641343"><ele>57.666666666666664</ele><time>2026-05-03T14:25:03.999Z</time></trkpt><trkpt lat="40.61930739767566" lon="9.611375952825822"><ele>57.5</ele><time>2026-05-03T14:25:04.999Z</time></trkpt><trkpt lat="40.61928822307283" lon="9.611275337434826"><ele>57.33333333333333</ele><time>2026-05-03T14:25:05.999Z</time></trkpt><trkpt lat="40.619290233990576" lon="9.611174700874583"><ele>57.166666666666664</ele><time>2026-05-03T14:25:06.999Z</time></trkpt><trkpt lat="40.61930887478379" lon="9.611086264697342"><ele>57.0</ele><time>2026-05-03T14:25:07.999Z</time></trkpt><trkpt lat="40.61941170283151" lon="9.610996750640087"><ele>57.666666666666664</ele><time>2026-05-03T14:25:09.999Z</time></trkpt><trkpt lat="40.61948325895326" lon="9.61099178644005"><ele>58.33333333333333</ele><time>2026-05-03T14:25:10.999Z</time></trkpt><trkpt lat="40.619566906064854" lon="9.611005235833517"><ele>59.0</ele><time>2026-05-03T14:25:11.999Z</time></trkpt><trkpt lat="40.6196547628594" lon="9.611019807660206"><ele>59.666666666666664</ele><time>2026-05-03T14:25:12.999Z</time></trkpt><trkpt lat="40.61974985792646" lon="9.61102789177215"><ele>60.33333333333333</ele><time>2026-05-03T14:25:13.999Z</time></trkpt><trkpt lat="40.61984929178406" lon="9.611037745149211"><ele>61.0</ele><time>2026-05-03T14:25:14.999Z</time></trkpt><trkpt lat="40.61995234411524" lon="9.611053619623169"><ele>61.166666666666664</ele><time>2026-05-03T14:25:15.999Z</time></trkpt><trkpt lat="40.6200538056906" lon="9.61106863875386"><ele>61.33333333333333</ele><time>2026-05-03T14:25:16.999Z</time></trkpt><trkpt lat="40.62014719244278" lon="9.611081133230984"><ele>61.5</ele><time>2026-05-03T14:25:17.999Z</time></trkpt><trkpt lat="40.62022930641087" lon="9.611092813876137"><ele>61.66666666666667</ele><time>2026-05-03T14:25:18.999Z</time></trkpt><trkpt lat="40.62030580831846" lon="9.61109080860285"><ele>61.833333333333336</ele><time>2026-05-03T14:25:19.999Z</time></trkpt><trkpt lat="40.620372985869636" lon="9.61106386170832"><ele>62.0</ele><time>2026-05-03T14:25:20.999Z</time></trkpt><trkpt lat="40.62048000126221" lon="9.611040175168505"><ele>60.0</ele><time>2026-05-03T14:25:22.999Z</time></trkpt><trkpt lat="40.62046550721365" lon="9.61120304837067"><ele>58.0</ele><time>2026-05-03T14:25:26.999Z</time></trkpt><trkpt lat="40.62042410767845" lon="9.611318732358322"><ele>56.0</ele><time>2026-05-03T14:25:27.999Z</time></trkpt><trkpt lat="40.620388375820355" lon="9.611483203292629"><ele>54.0</ele><time>2026-05-03T14:25:28.999Z</time></trkpt><trkpt lat="40.6203549405086" lon="9.61168676228448"><ele>54.0</ele><time>2026-05-03T14:25:29.999Z</time></trkpt><trkpt lat="40.62032894867856" lon="9.611907348113498"><ele>54.0</ele><time>2026-05-03T14:25:30.999Z</time></trkpt><trkpt lat="40.620311035771124" lon="9.612146354840686"><ele>54.0</ele><time>2026-05-03T14:25:31.999Z</time></trkpt><trkpt lat="40.620313652387246" lon="9.612385343425393"><ele>56.0</ele><time>2026-05-03T14:25:32.999Z</time></trkpt><trkpt lat="40.620338550626045" lon="9.612626432267716"><ele>58.0</ele><time>2026-05-03T14:25:33.999Z</time></trkpt><trkpt lat="40.62037784621907" lon="9.612871239020453"><ele>60.0</ele><time>2026-05-03T14:25:34.999Z</time></trkpt><trkpt lat="40.62043377853162" lon="9.61311464848841"><ele>62.66666666666667</ele><time>2026-05-03T14:25:35.999Z</time></trkpt><trkpt lat="40.6205086832106" lon="9.613350835933797"><ele>65.33333333333334</ele><time>2026-05-03T14:25:36.999Z</time></trkpt><trkpt lat="40.62059610034948" lon="9.613582162655922"><ele>68.0</ele><time>2026-05-03T14:25:37.999Z</time></trkpt><trkpt lat="40.62068025981047" lon="9.613798124183994"><ele>72.0</ele><time>2026-05-03T14:25:38.999Z</time></trkpt><trkpt lat="40.62074133348177" lon="9.613996398275713"><ele>76.0</ele><time>2026-05-03T14:25:39.999Z</time></trkpt><trkpt lat="40.620818584727324" lon="9.614175202374883"><ele>80.0</ele><time>2026-05-03T14:25:40.999Z</time></trkpt><trkpt lat="40.62090054808485" lon="9.614352989729754"><ele>83.66666666666667</ele><time>2026-05-03T14:25:41.999Z</time></trkpt><trkpt lat="40.62099986796124" lon="9.61452457087608"><ele>87.33333333333333</ele><time>2026-05-03T14:25:42.999Z</time></trkpt><trkpt lat="40.62112401222643" lon="9.614679447997966"><ele>91.0</ele><time>2026-05-03T14:25:43.999Z</time></trkpt><trkpt lat="40.621271514415476" lon="9.614814861528862"><ele>91.33333333333333</ele><time>2026-05-03T14:25:44.999Z</time></trkpt><trkpt lat="40.62142460214478" lon="9.614934049616739"><ele>91.66666666666667</ele><time>2026-05-03T14:25:45.999Z</time></trkpt><trkpt lat="40.62157774008806" lon="9.61504866638824"><ele>92.0</ele><time>2026-05-03T14:25:46.999Z</time></trkpt><trkpt lat="40.621721001019395" lon="9.615165340002706"><ele>92.0</ele><time>2026-05-03T14:25:47.999Z</time></trkpt><trkpt lat="40.62185063318803" lon="9.615286440690737"><ele>92.0</ele><time>2026-05-03T14:25:48.999Z</time></trkpt><trkpt lat="40.621969030525854" lon="9.615424847491834"><ele>92.0</ele><time>2026-05-03T14:25:49.999Z</time></trkpt><trkpt lat="40.62207469898397" lon="9.61557386242928"><ele>94.0</ele><time>2026-05-03T14:25:50.999Z</time></trkpt><trkpt lat="40.622168155771575" lon="9.615735131407975"><ele>96.0</ele><time>2026-05-03T14:25:51.999Z</time></trkpt><trkpt lat="40.62224063321583" lon="9.615914109304429"><ele>98.0</ele><time>2026-05-03T14:25:52.999Z</time></trkpt><trkpt lat="40.622277337274284" lon="9.616109233272834"><ele>97.33333333333333</ele><time>2026-05-03T14:25:53.999Z</time></trkpt><trkpt lat="40.62228442077768" lon="9.616321022395779"><ele>96.66666666666666</ele><time>2026-05-03T14:25:54.999Z</time></trkpt><trkpt lat="40.622269267608445" lon="9.616526740283868"><ele>96.0</ele><time>2026-05-03T14:25:55.999Z</time></trkpt><trkpt lat="40.62223944630478" lon="9.616756543856743"><ele>96.0</ele><time>2026-05-03T14:25:56.999Z</time></trkpt><trkpt lat="40.622213902097556" lon="9.616982468794424"><ele>96.0</ele><time>2026-05-03T14:25:57.999Z</time></trkpt><trkpt lat="40.62219446457829" lon="9.617195760179081"><ele>96.0</ele><time>2026-05-03T14:25:58.999Z</time></trkpt><trkpt lat="40.62217916723637" lon="9.617392940282679"><ele>94.0</ele><time>2026-05-03T14:26:00Z</time></trkpt><trkpt lat="40.62216289882235" lon="9.617581705861062"><ele>92.0</ele><time>2026-05-03T14:26:01Z</time></trkpt><trkpt lat="40.62214768958838" lon="9.617765803257148"><ele>90.0</ele><time>2026-05-03T14:26:02Z</time></trkpt><trkpt lat="40.6221317431536" lon="9.617944000486192"><ele>88.0</ele><time>2026-05-03T14:26:03Z</time></trkpt><trkpt lat="40.6221132741641" lon="9.618123072665938"><ele>87.5</ele><time>2026-05-03T14:26:04Z</time></trkpt><trkpt lat="40.622094864502145" lon="9.618304643997298"><ele>87.0</ele><time>2026-05-03T14:26:05Z</time></trkpt><trkpt lat="40.62207694398103" lon="9.618486590598028"><ele>86.5</ele><time>2026-05-03T14:26:06Z</time></trkpt><trkpt lat="40.62206516324969" lon="9.618668248930888"><ele>86.0</ele><time>2026-05-03T14:26:07Z</time></trkpt><trkpt lat="40.622058112874214" lon="9.6188511493864"><ele>85.0</ele><time>2026-05-03T14:26:08Z</time></trkpt><trkpt lat="40.62205796044625" lon="9.619032610111175"><ele>84.0</ele><time>2026-05-03T14:26:09Z</time></trkpt><trkpt lat="40.62207716152989" lon="9.619214492314391"><ele>83.0</ele><time>2026-05-03T14:26:10Z</time></trkpt><trkpt lat="40.62212432964264" lon="9.619393018970323"><ele>82.0</ele><time>2026-05-03T14:26:11Z</time></trkpt><trkpt lat="40.62219821277312" lon="9.619562459322006"><ele>81.75</ele><time>2026-05-03T14:26:12Z</time></trkpt><trkpt lat="40.62228174556829" lon="9.619719630082459"><ele>81.5</ele><time>2026-05-03T14:26:13Z</time></trkpt><trkpt lat="40.622382057121115" lon="9.61985699556578"><ele>81.25</ele><time>2026-05-03T14:26:14Z</time></trkpt><trkpt lat="40.622489940600204" lon="9.619984237727426"><ele>81.0</ele><time>2026-05-03T14:26:15Z</time></trkpt><trkpt lat="40.62258962743942" lon="9.620113560194469"><ele>81.0</ele><time>2026-05-03T14:26:16Z</time></trkpt><trkpt lat="40.62268581657287" lon="9.620246833933097"><ele>81.0</ele><time>2026-05-03T14:26:17Z</time></trkpt><trkpt lat="40.62278287251191" lon="9.620379284341594"><ele>81.0</ele><time>2026-05-03T14:26:18Z</time></trkpt><trkpt lat="40.6228824321373" lon="9.620511110125223"><ele>81.0</ele><time>2026-05-03T14:26:19Z</time></trkpt><trkpt lat="40.622980384936874" lon="9.620644332156093"><ele>80.75</ele><time>2026-05-03T14:26:20Z</time></trkpt><trkpt lat="40.6230771711702" lon="9.620776373635982"><ele>80.5</ele><time>2026-05-03T14:26:21Z</time></trkpt><trkpt lat="40.623177383287604" lon="9.620912029363133"><ele>80.25</ele><time>2026-05-03T14:26:22Z</time></trkpt><trkpt lat="40.62327606597623" lon="9.621045758809302"><ele>80.0</ele><time>2026-05-03T14:26:23Z</time></trkpt><trkpt lat="40.623374627602836" lon="9.621174778794588"><ele>80.0</ele><time>2026-05-03T14:26:24Z</time></trkpt><trkpt lat="40.623482390309256" lon="9.621293206639539"><ele>80.0</ele><time>2026-05-03T14:26:25Z</time></trkpt><trkpt lat="40.62359634893342" lon="9.621393633001004"><ele>80.0</ele><time>2026-05-03T14:26:26Z</time></trkpt><trkpt lat="40.623720247182206" lon="9.621472588370388"><ele>80.0</ele><time>2026-05-03T14:26:27Z</time></trkpt><trkpt lat="40.623852465513316" lon="9.621510173227357"><ele>80.0</ele><time>2026-05-03T14:26:28Z</time></trkpt><trkpt lat="40.62398888149901" lon="9.62151776681555"><ele>80.0</ele><time>2026-05-03T14:26:29Z</time></trkpt><trkpt lat="40.62412730151536" lon="9.621507704588288"><ele>80.0</ele><time>2026-05-03T14:26:30Z</time></trkpt><trkpt lat="40.62426230105957" lon="9.621453684652902"><ele>80.0</ele><time>2026-05-03T14:26:31Z</time></trkpt><trkpt lat="40.62439859811836" lon="9.621372137137799"><ele>81.0</ele><time>2026-05-03T14:26:32Z</time></trkpt><trkpt lat="40.62451200271811" lon="9.621251960608536"><ele>82.0</ele><time>2026-05-03T14:26:33Z</time></trkpt><trkpt lat="40.62461454276044" lon="9.621107513837995"><ele>83.0</ele><time>2026-05-03T14:26:34Z</time></trkpt><trkpt lat="40.624708193220116" lon="9.620961863351452"><ele>84.0</ele><time>2026-05-03T14:26:35Z</time></trkpt><trkpt lat="40.62479962282462" lon="9.620822408669877"><ele>82.0</ele><time>2026-05-03T14:26:36Z</time></trkpt><trkpt lat="40.62489074197947" lon="9.620696360511664"><ele>80.0</ele><time>2026-05-03T14:26:37Z</time></trkpt><trkpt lat="40.624976128110546" lon="9.62058016506902"><ele>78.0</ele><time>2026-05-03T14:26:38Z</time></trkpt><trkpt lat="40.62505761606299" lon="9.620479038018184"><ele>76.0</ele><time>2026-05-03T14:26:39Z</time></trkpt><trkpt lat="40.625128911599475" lon="9.620404763710699"><ele>76.0</ele><time>2026-05-03T14:26:40Z</time></trkpt><trkpt lat="40.62520282691985" lon="9.620335358261128"><ele>76.0</ele><time>2026-05-03T14:26:42Z</time></trkpt><trkpt lat="40.625010942907835" lon="9.620249096011575"><ele>76.0</ele><time>2026-05-03T14:26:47Z</time></trkpt><trkpt lat="40.62491371674616" lon="9.620219386745681"><ele>76.0</ele><time>2026-05-03T14:26:49Z</time></trkpt><trkpt lat="40.62483648847005" lon="9.620159487395492"><ele>76.0</ele><time>2026-05-03T14:26:51Z</time></trkpt><trkpt lat="40.62477723115939" lon="9.620126021891561"><ele>76.0</ele><time>2026-05-03T14:26:52Z</time></trkpt><trkpt lat="40.62468457809222" lon="9.62005218287024"><ele>76.0</ele><time>2026-05-03T14:26:54Z</time></trkpt><trkpt lat="40.62461563849406" lon="9.619984379494483"><ele>76.0</ele><time>2026-05-03T14:26:55Z</time></trkpt><trkpt lat="40.62453870988322" lon="9.619893498607578"><ele>76.0</ele><time>2026-05-03T14:26:56.999Z</time></trkpt><trkpt lat="40.624575785916676" lon="9.619785319191331"><ele>76.0</ele><time>2026-05-03T14:26:58.999Z</time></trkpt><trkpt lat="40.62467675266702" lon="9.61971000154463"><ele>76.0</ele><time>2026-05-03T14:27:00.999Z</time></trkpt><trkpt lat="40.62472855951688" lon="9.619655573662747"><ele>76.0</ele><time>2026-05-03T14:27:01.999Z</time></trkpt><trkpt lat="40.624756028398" lon="9.61957463908935"><ele>76.0</ele><time>2026-05-03T14:27:02.999Z</time></trkpt><trkpt lat="40.62479033580172" lon="9.619479231490123"><ele>76.0</ele><time>2026-05-03T14:27:03.999Z</time></trkpt><trkpt lat="40.62483101475251" lon="9.61939752448814"><ele>76.0</ele><time>2026-05-03T14:27:04.999Z</time></trkpt><trkpt lat="40.62490062016974" lon="9.619343736293855"><ele>77.0</ele><time>2026-05-03T14:27:05.999Z</time></trkpt><trkpt lat="40.624979779665885" lon="9.619307648273578"><ele>78.0</ele><time>2026-05-03T14:27:06.999Z</time></trkpt><trkpt lat="40.625057653027866" lon="9.619302537645863"><ele>79.0</ele><time>2026-05-03T14:27:07.999Z</time></trkpt><trkpt lat="40.62513963924705" lon="9.619328584889764"><ele>80.0</ele><time>2026-05-03T14:27:08.999Z</time></trkpt><trkpt lat="40.62522261141664" lon="9.619365846914572"><ele>81.0</ele><time>2026-05-03T14:27:09.999Z</time></trkpt><trkpt lat="40.6253091703546" lon="9.619387608724217"><ele>82.0</ele><time>2026-05-03T14:27:10.999Z</time></trkpt><trkpt lat="40.62539701510202" lon="9.619390426389657"><ele>82.0</ele><time>2026-05-03T14:27:11.999Z</time></trkpt><trkpt lat="40.6254811430288" lon="9.619371681751248"><ele>82.0</ele><time>2026-05-03T14:27:12.999Z</time></trkpt><trkpt lat="40.625549018542564" lon="9.619315204948759"><ele>82.0</ele><time>2026-05-03T14:27:13.999Z</time></trkpt><trkpt lat="40.625582323176815" lon="9.619237406248637"><ele>82.0</ele><time>2026-05-03T14:27:14.999Z</time></trkpt><trkpt lat="40.625591059860255" lon="9.619147606747363"><ele>82.0</ele><time>2026-05-03T14:27:15.999Z</time></trkpt><trkpt lat="40.62560607868262" lon="9.619053615541652"><ele>82.0</ele><time>2026-05-03T14:27:16.999Z</time></trkpt><trkpt lat="40.62573907256656" lon="9.619028429941471"><ele>82.0</ele><time>2026-05-03T14:27:18.999Z</time></trkpt><trkpt lat="40.625820615433724" lon="9.619057423364584"><ele>82.0</ele><time>2026-05-03T14:27:19.999Z</time></trkpt><trkpt lat="40.62589081082956" lon="9.619043101880953"><ele>82.0</ele><time>2026-05-03T14:27:20.999Z</time></trkpt><trkpt lat="40.62594605273802" lon="9.618991896689732"><ele>82.0</ele><time>2026-05-03T14:27:21.999Z</time></trkpt><trkpt lat="40.625983648562936" lon="9.618897129588571"><ele>82.0</ele><time>2026-05-03T14:27:22.999Z</time></trkpt><trkpt lat="40.62601553299044" lon="9.618781155113178"><ele>82.0</ele><time>2026-05-03T14:27:23.999Z</time></trkpt><trkpt lat="40.62602881872436" lon="9.618666076700412"><ele>83.66666666666666</ele><time>2026-05-03T14:27:24.999Z</time></trkpt><trkpt lat="40.62602240646643" lon="9.618549340153702"><ele>85.33333333333333</ele><time>2026-05-03T14:27:25.999Z</time></trkpt><trkpt lat="40.6260190714389" lon="9.618437813422174"><ele>87.0</ele><time>2026-05-03T14:27:26.999Z</time></trkpt><trkpt lat="40.62602890386738" lon="9.61835106591165"><ele>88.66666666666667</ele><time>2026-05-03T14:27:27.999Z</time></trkpt><trkpt lat="40.626098883546334" lon="9.618234549531921"><ele>90.33333333333334</ele><time>2026-05-03T14:27:29.999Z</time></trkpt><trkpt lat="40.62617878360144" lon="9.618189382685834"><ele>92.0</ele><time>2026-05-03T14:27:30.999Z</time></trkpt><trkpt lat="40.62629512566319" lon="9.618115088296896"><ele>89.16666666666667</ele><time>2026-05-03T14:27:32.999Z</time></trkpt><trkpt lat="40.62637288706059" lon="9.61802054334263"><ele>86.33333333333334</ele><time>2026-05-03T14:27:33.999Z</time></trkpt><trkpt lat="40.626432564398044" lon="9.617924643239967"><ele>83.5</ele><time>2026-05-03T14:27:34.999Z</time></trkpt><trkpt lat="40.62646830222548" lon="9.617836141449908"><ele>80.66666666666667</ele><time>2026-05-03T14:27:35.999Z</time></trkpt><trkpt lat="40.62651252054058" lon="9.61774779760361"><ele>77.83333333333333</ele><time>2026-05-03T14:27:36.999Z</time></trkpt><trkpt lat="40.62653485690205" lon="9.617642318562195"><ele>75.0</ele><time>2026-05-03T14:27:37.999Z</time></trkpt><trkpt lat="40.62652679720759" lon="9.617538220356783"><ele>75.0</ele><time>2026-05-03T14:27:38.999Z</time></trkpt><trkpt lat="40.626514297201254" lon="9.617422642544064"><ele>75.0</ele><time>2026-05-03T14:27:39.999Z</time></trkpt><trkpt lat="40.62647119120603" lon="9.617321574563075"><ele>75.0</ele><time>2026-05-03T14:27:40.999Z</time></trkpt><trkpt lat="40.62641327547695" lon="9.617230176035408"><ele>75.0</ele><time>2026-05-03T14:27:41.999Z</time></trkpt><trkpt lat="40.62634982583565" lon="9.617138437395"><ele>75.0</ele><time>2026-05-03T14:27:42.999Z</time></trkpt><trkpt lat="40.62630446250572" lon="9.617061224636895"><ele>75.0</ele><time>2026-05-03T14:27:43.999Z</time></trkpt><trkpt lat="40.626302342516986" lon="9.61696223516769"><ele>73.16666666666667</ele><time>2026-05-03T14:27:44.999Z</time></trkpt><trkpt lat="40.626320450437284" lon="9.616864777902569"><ele>71.33333333333333</ele><time>2026-05-03T14:27:45.999Z</time></trkpt><trkpt lat="40.62629492028483" lon="9.616777281509735"><ele>69.5</ele><time>2026-05-03T14:27:46.999Z</time></trkpt><trkpt lat="40.626232726280605" lon="9.616710471688856"><ele>67.66666666666666</ele><time>2026-05-03T14:27:47.999Z</time></trkpt><trkpt lat="40.62617096437588" lon="9.616645262841075"><ele>65.83333333333333</ele><time>2026-05-03T14:27:48.999Z</time></trkpt><trkpt lat="40.626119497060714" lon="9.616570037424486"><ele>64.0</ele><time>2026-05-03T14:27:49.999Z</time></trkpt><trkpt lat="40.62607298869311" lon="9.616500601324065"><ele>68.66666666666666</ele><time>2026-05-03T14:27:50.999Z</time></trkpt><trkpt lat="40.62602687503697" lon="9.616438838566355"><ele>73.33333333333333</ele><time>2026-05-03T14:27:51.999Z</time></trkpt><trkpt lat="40.62593373345258" lon="9.61634708220288"><ele>78.0</ele><time>2026-05-03T14:27:53.999Z</time></trkpt><trkpt lat="40.62584973265896" lon="9.616251096306106"><ele>82.66666666666667</ele><time>2026-05-03T14:27:55.999Z</time></trkpt><trkpt lat="40.62579958799727" lon="9.616189230666073"><ele>87.33333333333334</ele><time>2026-05-03T14:27:56.999Z</time></trkpt><trkpt lat="40.62575120187914" lon="9.616094976914884"><ele>92.0</ele><time>2026-05-03T14:27:57.999Z</time></trkpt><trkpt lat="40.62573170635026" lon="9.616001774317134"><ele>92.0</ele><time>2026-05-03T14:27:58.999Z</time></trkpt><trkpt lat="40.62568631763182" lon="9.615919822558883"><ele>92.0</ele><time>2026-05-03T14:27:59.999Z</time></trkpt><trkpt lat="40.625612936011805" lon="9.61585222851192"><ele>92.0</ele><time>2026-05-03T14:28:00.999Z</time></trkpt><trkpt lat="40.62551679031848" lon="9.615810298925105"><ele>92.0</ele><time>2026-05-03T14:28:01.999Z</time></trkpt><trkpt lat="40.625417376662995" lon="9.615778760525034"><ele>92.0</ele><time>2026-05-03T14:28:02.999Z</time></trkpt><trkpt lat="40.62533540928232" lon="9.61576000484464"><ele>96.66666666666667</ele><time>2026-05-03T14:28:03.999Z</time></trkpt><trkpt lat="40.62525319174636" lon="9.615744139941906"><ele>101.33333333333334</ele><time>2026-05-03T14:28:04.999Z</time></trkpt><trkpt lat="40.62518348529259" lon="9.615715769618697"><ele>106.0</ele><time>2026-05-03T14:28:06Z</time></trkpt><trkpt lat="40.62508658501332" lon="9.615674962131086"><ele>110.66666666666667</ele><time>2026-05-03T14:28:09Z</time></trkpt><trkpt lat="40.62501973550277" lon="9.6156572601002"><ele>115.33333333333333</ele><time>2026-05-03T14:28:10Z</time></trkpt><trkpt lat="40.62494852704924" lon="9.615653784689142"><ele>120.0</ele><time>2026-05-03T14:28:13Z</time></trkpt><trkpt lat="40.624817487973345" lon="9.61563930199551"><ele>120.0</ele><time>2026-05-03T14:28:15Z</time></trkpt><trkpt lat="40.6247253999766" lon="9.615630563151496"><ele>120.0</ele><time>2026-05-03T14:28:17Z</time></trkpt><trkpt lat="40.62463961307757" lon="9.615614557498715"><ele>120.0</ele><time>2026-05-03T14:28:19Z</time></trkpt><trkpt lat="40.62456852773193" lon="9.61561250607504"><ele>120.0</ele><time>2026-05-03T14:28:20Z</time></trkpt><trkpt lat="40.624495042911505" lon="9.615597599683253"><ele>120.0</ele><time>2026-05-03T14:28:21Z</time></trkpt><trkpt lat="40.624431085855534" lon="9.615563590283319"><ele>120.0</ele><time>2026-05-03T14:28:23Z</time></trkpt><trkpt lat="40.62437315741541" lon="9.61547959065443"><ele>120.83333333333333</ele><time>2026-05-03T14:28:25Z</time></trkpt><trkpt lat="40.62434843003308" lon="9.615349399163433"><ele>121.66666666666666</ele><time>2026-05-03T14:28:27Z</time></trkpt><trkpt lat="40.624341905711724" lon="9.615265492887765"><ele>122.5</ele><time>2026-05-03T14:28:28Z</time></trkpt><trkpt lat="40.62431806002409" lon="9.615186790846927"><ele>123.33333333333333</ele><time>2026-05-03T14:28:29Z</time></trkpt><trkpt lat="40.62431360789811" lon="9.61509124944"><ele>124.16666666666666</ele><time>2026-05-03T14:28:30Z</time></trkpt><trkpt lat="40.62433127980133" lon="9.615002121606832"><ele>125.0</ele><time>2026-05-03T14:28:31Z</time></trkpt><trkpt lat="40.62441344812471" lon="9.614871852052554"><ele>125.8</ele><time>2026-05-03T14:28:33Z</time></trkpt><trkpt lat="40.62444070354737" lon="9.614772455671838"><ele>126.6</ele><time>2026-05-03T14:28:34Z</time></trkpt><trkpt lat="40.624465034836675" lon="9.614662555351785"><ele>127.4</ele><time>2026-05-03T14:28:35Z</time></trkpt><trkpt lat="40.62450442781026" lon="9.614540589943756"><ele>128.2</ele><time>2026-05-03T14:28:36Z</time></trkpt><trkpt lat="40.62456087616151" lon="9.61442400817091"><ele>129.0</ele><time>2026-05-03T14:28:37Z</time></trkpt><trkpt lat="40.624621025084174" lon="9.614295078479227"><ele>131.5</ele><time>2026-05-03T14:28:38Z</time></trkpt><trkpt lat="40.62467077620513" lon="9.614139736424233"><ele>134.0</ele><time>2026-05-03T14:28:39Z</time></trkpt><trkpt lat="40.62472760102584" lon="9.613985894748811"><ele>136.5</ele><time>2026-05-03T14:28:40Z</time></trkpt><trkpt lat="40.624785768180146" lon="9.613860631140248"><ele>139.0</ele><time>2026-05-03T14:28:41Z</time></trkpt><trkpt lat="40.62483872160972" lon="9.613740726746446"><ele>138.5</ele><time>2026-05-03T14:28:42Z</time></trkpt><trkpt lat="40.62488020570281" lon="9.613648321091114"><ele>138.0</ele><time>2026-05-03T14:28:43Z</time></trkpt><trkpt lat="40.62491863802451" lon="9.613554579320798"><ele>137.5</ele><time>2026-05-03T14:28:44Z</time></trkpt><trkpt lat="40.62494329024809" lon="9.613453706593141"><ele>137.0</ele><time>2026-05-03T14:28:45Z</time></trkpt><trkpt lat="40.62494748687904" lon="9.613341339598657"><ele>136.5</ele><time>2026-05-03T14:28:46Z</time></trkpt><trkpt lat="40.62492177661618" lon="9.61324668152596"><ele>136.0</ele><time>2026-05-03T14:28:47Z</time></trkpt><trkpt lat="40.62493061451178" lon="9.613145875639365"><ele>136.0</ele><time>2026-05-03T14:28:48Z</time></trkpt><trkpt lat="40.62496173206341" lon="9.613034682643589"><ele>136.0</ele><time>2026-05-03T14:28:49Z</time></trkpt><trkpt lat="40.624986977523925" lon="9.612919592920777"><ele>136.0</ele><time>2026-05-03T14:28:50Z</time></trkpt><trkpt lat="40.62500471292807" lon="9.612801133221554"><ele>136.0</ele><time>2026-05-03T14:28:51Z</time></trkpt><trkpt lat="40.62503813053432" lon="9.612694818046268"><ele>136.0</ele><time>2026-05-03T14:28:52Z</time></trkpt><trkpt lat="40.62508071186359" lon="9.612592928159243"><ele>136.0</ele><time>2026-05-03T14:28:53Z</time></trkpt><trkpt lat="40.62512451829166" lon="9.612481541473622"><ele>135.0</ele><time>2026-05-03T14:28:54Z</time></trkpt><trkpt lat="40.625147935126336" lon="9.612366196665779"><ele>134.0</ele><time>2026-05-03T14:28:55Z</time></trkpt><trkpt lat="40.62517587480403" lon="9.612250709837097"><ele>133.0</ele><time>2026-05-03T14:28:56Z</time></trkpt><trkpt lat="40.62520976576227" lon="9.612129827899405"><ele>132.0</ele><time>2026-05-03T14:28:57Z</time></trkpt><trkpt lat="40.62523817682272" lon="9.612036501506527"><ele>131.0</ele><time>2026-05-03T14:28:58Z</time></trkpt><trkpt lat="40.62524382800288" lon="9.611937391662591"><ele>130.0</ele><time>2026-05-03T14:28:59Z</time></trkpt><trkpt lat="40.625250502355435" lon="9.611835792992286"><ele>128.6</ele><time>2026-05-03T14:29:00Z</time></trkpt><trkpt lat="40.625269125288476" lon="9.611748141627833"><ele>127.2</ele><time>2026-05-03T14:29:01Z</time></trkpt><trkpt lat="40.62535204567992" lon="9.611653593018934"><ele>125.80000000000001</ele><time>2026-05-03T14:29:03Z</time></trkpt><trkpt lat="40.62542682217392" lon="9.611608791857304"><ele>124.4</ele><time>2026-05-03T14:29:03.999Z</time></trkpt><trkpt lat="40.625521902345135" lon="9.611540779335831"><ele>123.0</ele><time>2026-05-03T14:29:04.999Z</time></trkpt><trkpt lat="40.625640658528106" lon="9.611493664363957"><ele>122.25</ele><time>2026-05-03T14:29:05.999Z</time></trkpt><trkpt lat="40.62577946021486" lon="9.611446215517455"><ele>121.5</ele><time>2026-05-03T14:29:06.999Z</time></trkpt><trkpt lat="40.62589816694248" lon="9.611404613741291"><ele>120.75</ele><time>2026-05-03T14:29:07.999Z</time></trkpt><trkpt lat="40.626014826133634" lon="9.61135643761316"><ele>120.0</ele><time>2026-05-03T14:29:08.999Z</time></trkpt><trkpt lat="40.62612715236765" lon="9.611311389619969"><ele>120.2</ele><time>2026-05-03T14:29:09.999Z</time></trkpt><trkpt lat="40.626220551052405" lon="9.611242591041687"><ele>120.4</ele><time>2026-05-03T14:29:10.999Z</time></trkpt><trkpt lat="40.62629750531517" lon="9.611148544543962"><ele>120.6</ele><time>2026-05-03T14:29:11.999Z</time></trkpt><trkpt lat="40.62637501680341" lon="9.611041753335087"><ele>120.8</ele><time>2026-05-03T14:29:12.999Z</time></trkpt><trkpt lat="40.62645522913209" lon="9.61095000377844"><ele>121.0</ele><time>2026-05-03T14:29:13.999Z</time></trkpt><trkpt lat="40.62652971587263" lon="9.61085784450122"><ele>121.0</ele><time>2026-05-03T14:29:14.999Z</time></trkpt><trkpt lat="40.62660248882368" lon="9.61074764610328"><ele>121.0</ele><time>2026-05-03T14:29:15.999Z</time></trkpt><trkpt lat="40.62667502710101" lon="9.610629521234223"><ele>121.0</ele><time>2026-05-03T14:29:16.999Z</time></trkpt><trkpt lat="40.62675428346623" lon="9.610513848184338"><ele>121.0</ele><time>2026-05-03T14:29:17.999Z</time></trkpt><trkpt lat="40.62682247041168" lon="9.610402012816385"><ele>120.0</ele><time>2026-05-03T14:29:18.999Z</time></trkpt><trkpt lat="40.626884615147816" lon="9.610294719084369"><ele>119.0</ele><time>2026-05-03T14:29:19.999Z</time></trkpt><trkpt lat="40.62693473214092" lon="9.610203074552604"><ele>118.0</ele><time>2026-05-03T14:29:20.999Z</time></trkpt><trkpt lat="40.626958839040334" lon="9.610082124099838"><ele>117.0</ele><time>2026-05-03T14:29:21.999Z</time></trkpt><trkpt lat="40.6269914218045" lon="9.609958934067338"><ele>116.0</ele><time>2026-05-03T14:29:22.999Z</time></trkpt><trkpt lat="40.627053790433294" lon="9.609844951832464"><ele>114.25</ele><time>2026-05-03T14:29:23.999Z</time></trkpt><trkpt lat="40.62713375391976" lon="9.609724225617525"><ele>112.5</ele><time>2026-05-03T14:29:24.999Z</time></trkpt><trkpt lat="40.62718696086908" lon="9.609579484847654"><ele>110.75</ele><time>2026-05-03T14:29:25.999Z</time></trkpt><trkpt lat="40.62722123884067" lon="9.60942897252698"><ele>109.0</ele><time>2026-05-03T14:29:26.999Z</time></trkpt><trkpt lat="40.627247697536944" lon="9.60928171768555"><ele>108.83333333333334</ele><time>2026-05-03T14:29:27.999Z</time></trkpt><trkpt lat="40.62725503156163" lon="9.609135570964831"><ele>108.66666666666667</ele><time>2026-05-03T14:29:28.999Z</time></trkpt><trkpt lat="40.6272588739867" lon="9.609016269250478"><ele>108.5</ele><time>2026-05-03T14:29:29.999Z</time></trkpt><trkpt lat="40.627276233582606" lon="9.608911046737992"><ele>108.33333333333334</ele><time>2026-05-03T14:29:30.999Z</time></trkpt><trkpt lat="40.627309401817215" lon="9.608818492529425"><ele>108.16666666666667</ele><time>2026-05-03T14:29:31.999Z</time></trkpt><trkpt lat="40.62735590460564" lon="9.608723325792031"><ele>108.0</ele><time>2026-05-03T14:29:32.999Z</time></trkpt><trkpt lat="40.62740148733174" lon="9.60863012027204"><ele>107.0</ele><time>2026-05-03T14:29:33.999Z</time></trkpt><trkpt lat="40.62744656754691" lon="9.60853537810971"><ele>106.00000000000001</ele><time>2026-05-03T14:29:34.999Z</time></trkpt><trkpt lat="40.62747594246735" lon="9.608452843702757"><ele>105.0</ele><time>2026-05-03T14:29:35.999Z</time></trkpt><trkpt lat="40.627536060013206" lon="9.608392193319164"><ele>104.0</ele><time>2026-05-03T14:29:37.999Z</time></trkpt><trkpt lat="40.62761061073985" lon="9.608492710847473"><ele>103.0</ele><time>2026-05-03T14:29:39.999Z</time></trkpt><trkpt lat="40.627651090948305" lon="9.60864211781193"><ele>103.83333333333334</ele><time>2026-05-03T14:29:41.999Z</time></trkpt><trkpt lat="40.62768690553076" lon="9.608800636678858"><ele>104.66666666666667</ele><time>2026-05-03T14:29:43.999Z</time></trkpt><trkpt lat="40.62773172545136" lon="9.608863355939006"><ele>105.5</ele><time>2026-05-03T14:29:44.999Z</time></trkpt><trkpt lat="40.62778764765743" lon="9.608915375285527"><ele>106.33333333333334</ele><time>2026-05-03T14:29:45.999Z</time></trkpt><trkpt lat="40.62783757508661" lon="9.608972014354581"><ele>107.16666666666667</ele><time>2026-05-03T14:29:46.999Z</time></trkpt><trkpt lat="40.62787485734981" lon="9.609051158479517"><ele>108.0</ele><time>2026-05-03T14:29:47.999Z</time></trkpt><trkpt lat="40.62791373591176" lon="9.609132209540777"><ele>102.66666666666667</ele><time>2026-05-03T14:29:48.999Z</time></trkpt><trkpt lat="40.627948384558" lon="9.609202710050385"><ele>97.33333333333333</ele><time>2026-05-03T14:29:49.999Z</time></trkpt><trkpt lat="40.62797460072673" lon="9.609282293639831"><ele>92.0</ele><time>2026-05-03T14:29:50.999Z</time></trkpt><trkpt lat="40.62797388948712" lon="9.60942857253879"><ele>86.66666666666666</ele><time>2026-05-03T14:29:52.999Z</time></trkpt><trkpt lat="40.62793889534353" lon="9.609498091271684"><ele>81.33333333333333</ele><time>2026-05-03T14:29:53.999Z</time></trkpt><trkpt lat="40.6279036496816" lon="9.609575567404281"><ele>76.0</ele><time>2026-05-03T14:29:54.999Z</time></trkpt><trkpt lat="40.6278607082684" lon="9.609734770087211"><ele>76.0</ele><time>2026-05-03T14:29:56.999Z</time></trkpt><trkpt lat="40.627897095579684" lon="9.60982059850445"><ele>76.0</ele><time>2026-05-03T14:29:57.999Z</time></trkpt><trkpt lat="40.6279420470509" lon="9.609884824452633"><ele>76.0</ele><time>2026-05-03T14:29:58.999Z</time></trkpt><trkpt lat="40.62796198650733" lon="9.609982454633052"><ele>76.0</ele><time>2026-05-03T14:29:59.999Z</time></trkpt><trkpt lat="40.62796739060635" lon="9.61008620439563"><ele>76.0</ele><time>2026-05-03T14:30:00.999Z</time></trkpt><trkpt lat="40.62794273593291" lon="9.610193826075372"><ele>76.0</ele><time>2026-05-03T14:30:01.999Z</time></trkpt><trkpt lat="40.62790619078902" lon="9.610300920779395"><ele>75.6</ele><time>2026-05-03T14:30:02.999Z</time></trkpt><trkpt lat="40.62786524944148" lon="9.610413226649133"><ele>75.19999999999999</ele><time>2026-05-03T14:30:03.999Z</time></trkpt><trkpt lat="40.62783330432396" lon="9.610529092323192"><ele>74.80000000000001</ele><time>2026-05-03T14:30:04.999Z</time></trkpt><trkpt lat="40.627819758400975" lon="9.610654873394036"><ele>74.4</ele><time>2026-05-03T14:30:05.999Z</time></trkpt><trkpt lat="40.62780793249231" lon="9.610775924926662"><ele>74.0</ele><time>2026-05-03T14:30:06.999Z</time></trkpt><trkpt lat="40.62780607672947" lon="9.610888428268586"><ele>78.0</ele><time>2026-05-03T14:30:07.999Z</time></trkpt><trkpt lat="40.627802373785656" lon="9.610992595612117"><ele>82.0</ele><time>2026-05-03T14:30:08.999Z</time></trkpt><trkpt lat="40.62776067975685" lon="9.611095743493738"><ele>86.0</ele><time>2026-05-03T14:30:09.999Z</time></trkpt><trkpt lat="40.627706903391136" lon="9.611193063320092"><ele>90.0</ele><time>2026-05-03T14:30:11Z</time></trkpt><trkpt lat="40.62766222535293" lon="9.611283528586517"><ele>93.99999999999999</ele><time>2026-05-03T14:30:12Z</time></trkpt><trkpt lat="40.627655377823665" lon="9.611398657768861"><ele>98.0</ele><time>2026-05-03T14:30:13Z</time></trkpt><trkpt lat="40.627696854250935" lon="9.611490181225019"><ele>98.0</ele><time>2026-05-03T14:30:14Z</time></trkpt><trkpt lat="40.62775724449225" lon="9.611584553538066"><ele>98.0</ele><time>2026-05-03T14:30:15Z</time></trkpt><trkpt lat="40.6278002475047" lon="9.611669484103828"><ele>98.0</ele><time>2026-05-03T14:30:16Z</time></trkpt><trkpt lat="40.6278225764597" lon="9.611760454965877"><ele>98.0</ele><time>2026-05-03T14:30:17Z</time></trkpt><trkpt lat="40.62780666997421" lon="9.611902750177036"><ele>98.0</ele><time>2026-05-03T14:30:19Z</time></trkpt><trkpt lat="40.627825872296135" lon="9.61205729211522"><ele>95.60000000000001</ele><time>2026-05-03T14:30:21Z</time></trkpt><trkpt lat="40.62786546152108" lon="9.612161098968556"><ele>93.2</ele><time>2026-05-03T14:30:22Z</time></trkpt><trkpt lat="40.62788162263766" lon="9.612272233165804"><ele>90.8</ele><time>2026-05-03T14:30:23Z</time></trkpt><trkpt lat="40.627877719328" lon="9.612383327479213"><ele>88.4</ele><time>2026-05-03T14:30:24Z</time></trkpt><trkpt lat="40.62785634273197" lon="9.612485121027113"><ele>86.0</ele><time>2026-05-03T14:30:25Z</time></trkpt><trkpt lat="40.627765427138755" lon="9.612633013151225"><ele>86.0</ele><time>2026-05-03T14:30:27Z</time></trkpt><trkpt lat="40.62768250290444" lon="9.612678453342054"><ele>86.0</ele><time>2026-05-03T14:30:28Z</time></trkpt><trkpt lat="40.62760167078794" lon="9.612708372315922"><ele>86.0</ele><time>2026-05-03T14:30:29Z</time></trkpt><trkpt lat="40.627521398722436" lon="9.61272554018426"><ele>86.0</ele><time>2026-05-03T14:30:30Z</time></trkpt><trkpt lat="40.62744571009773" lon="9.612763752809972"><ele>86.0</ele><time>2026-05-03T14:30:31Z</time></trkpt><trkpt lat="40.62737472047799" lon="9.612798377025152"><ele>86.0</ele><time>2026-05-03T14:30:32Z</time></trkpt><trkpt lat="40.62726562523066" lon="9.612817223588712"><ele>86.0</ele><time>2026-05-03T14:30:34Z</time></trkpt><trkpt lat="40.627175953058014" lon="9.612773623232508"><ele>86.0</ele><time>2026-05-03T14:30:36Z</time></trkpt><trkpt lat="40.62706700009465" lon="9.612729546197139"><ele>86.0</ele><time>2026-05-03T14:30:38Z</time></trkpt><trkpt lat="40.626991578447324" lon="9.612713620488321"><ele>86.0</ele><time>2026-05-03T14:30:40Z</time></trkpt><trkpt lat="40.626900995376346" lon="9.612697652452082"><ele>86.0</ele><time>2026-05-03T14:30:42Z</time></trkpt><trkpt lat="40.626786207947795" lon="9.612659018200365"><ele>87.0</ele><time>2026-05-03T14:30:44Z</time></trkpt><trkpt lat="40.626690013348515" lon="9.612614827261764"><ele>88.0</ele><time>2026-05-03T14:30:46Z</time></trkpt><trkpt lat="40.62659396399223" lon="9.612586689812069"><ele>89.0</ele><time>2026-05-03T14:30:48Z</time></trkpt><trkpt lat="40.62650568200607" lon="9.61254902886992"><ele>90.0</ele><time>2026-05-03T14:30:50Z</time></trkpt><trkpt lat="40.62643202503601" lon="9.612557961559034"><ele>91.0</ele><time>2026-05-03T14:30:52Z</time></trkpt><trkpt lat="40.62637218399605" lon="9.612462671853141"><ele>91.0</ele><time>2026-05-03T14:30:55Z</time></trkpt><trkpt lat="40.626333085744875" lon="9.612394305369982"><ele>91.0</ele><time>2026-05-03T14:30:56Z</time></trkpt><trkpt lat="40.626199253136235" lon="9.612416806624319"><ele>91.0</ele><time>2026-05-03T14:30:59Z</time></trkpt><trkpt lat="40.6261109554866" lon="9.612373379644087"><ele>91.0</ele><time>2026-05-03T14:31:00Z</time></trkpt><trkpt lat="40.62604999714839" lon="9.612351326086095"><ele>91.0</ele><time>2026-05-03T14:31:01Z</time></trkpt><trkpt lat="40.62597809445322" lon="9.612316763110154"><ele>91.0</ele><time>2026-05-03T14:31:02Z</time></trkpt><trkpt lat="40.62590587884172" lon="9.61230108037699"><ele>95.19999999999999</ele><time>2026-05-03T14:31:03Z</time></trkpt><trkpt lat="40.62580532616295" lon="9.612273648005795"><ele>99.39999999999999</ele><time>2026-05-03T14:31:03.999Z</time></trkpt><trkpt lat="40.62569832605347" lon="9.61224951127024"><ele>103.6</ele><time>2026-05-03T14:31:04.999Z</time></trkpt><trkpt lat="40.62558246592736" lon="9.61223909526632"><ele>107.8</ele><time>2026-05-03T14:31:05.999Z</time></trkpt><trkpt lat="40.6254676685025" lon="9.61222087074609"><ele>112.0</ele><time>2026-05-03T14:31:06.999Z</time></trkpt><trkpt lat="40.62538375170394" lon="9.61217913580066"><ele>112.00000000000001</ele><time>2026-05-03T14:31:07.999Z</time></trkpt><trkpt lat="40.625332737190575" lon="9.612128412502985"><ele>112.0</ele><time>2026-05-03T14:31:09.999Z</time></trkpt><trkpt lat="40.62527555843215" lon="9.61220625536361"><ele>112.0</ele><time>2026-05-03T14:31:11.999Z</time></trkpt><trkpt lat="40.62522908668221" lon="9.61227008128289"><ele>112.0</ele><time>2026-05-03T14:31:12.999Z</time></trkpt><trkpt lat="40.62516087619662" lon="9.61234688921422"><ele>112.00000000000001</ele><time>2026-05-03T14:31:13.999Z</time></trkpt><trkpt lat="40.625101752885705" lon="9.612444199143095"><ele>112.0</ele><time>2026-05-03T14:31:14.999Z</time></trkpt><trkpt lat="40.62507442479803" lon="9.61255194121168"><ele>115.6</ele><time>2026-05-03T14:31:15.999Z</time></trkpt><trkpt lat="40.62504360474929" lon="9.61268752046341"><ele>119.19999999999999</ele><time>2026-05-03T14:31:16.999Z</time></trkpt><trkpt lat="40.62500357741207" lon="9.612805453818153"><ele>122.8</ele><time>2026-05-03T14:31:17.999Z</time></trkpt><trkpt lat="40.62498345993679" lon="9.612887994786497"><ele>126.4</ele><time>2026-05-03T14:31:18.999Z</time></trkpt><trkpt lat="40.62495152041647" lon="9.612984045486174"><ele>130.0</ele><time>2026-05-03T14:31:19.999Z</time></trkpt><trkpt lat="40.624938086536325" lon="9.613151219438011"><ele>131.0</ele><time>2026-05-03T14:31:21.999Z</time></trkpt><trkpt lat="40.62493726742969" lon="9.613242194143341"><ele>132.0</ele><time>2026-05-03T14:31:22.999Z</time></trkpt><trkpt lat="40.624919169112914" lon="9.613344080585184"><ele>133.0</ele><time>2026-05-03T14:31:23.999Z</time></trkpt><trkpt lat="40.624912088514655" lon="9.613443713548513"><ele>134.0</ele><time>2026-05-03T14:31:24.999Z</time></trkpt><trkpt lat="40.62491387179836" lon="9.613552474199617"><ele>135.0</ele><time>2026-05-03T14:31:25.999Z</time></trkpt><trkpt lat="40.62489454469883" lon="9.613669097352457"><ele>136.0</ele><time>2026-05-03T14:31:26.999Z</time></trkpt><trkpt lat="40.62483659852756" lon="9.613793597865177"><ele>136.75</ele><time>2026-05-03T14:31:27.999Z</time></trkpt><trkpt lat="40.62477102620946" lon="9.61391468186428"><ele>137.5</ele><time>2026-05-03T14:31:28.999Z</time></trkpt><trkpt lat="40.624700476050556" lon="9.614050630589187"><ele>138.25</ele><time>2026-05-03T14:31:29.999Z</time></trkpt><trkpt lat="40.624636991689364" lon="9.614197123865477"><ele>139.0</ele><time>2026-05-03T14:31:30.999Z</time></trkpt><trkpt lat="40.624591502432466" lon="9.614346670435145"><ele>139.0</ele><time>2026-05-03T14:31:31.999Z</time></trkpt><trkpt lat="40.62454580951562" lon="9.614486668528153"><ele>139.0</ele><time>2026-05-03T14:31:32.999Z</time></trkpt><trkpt lat="40.624495433924906" lon="9.614613475873755"><ele>139.0</ele><time>2026-05-03T14:31:33.999Z</time></trkpt><trkpt lat="40.62444015192627" lon="9.614730545317869"><ele>139.0</ele><time>2026-05-03T14:31:34.999Z</time></trkpt><trkpt lat="40.62439203683631" lon="9.614842572373824"><ele>139.0</ele><time>2026-05-03T14:31:35.999Z</time></trkpt><trkpt lat="40.624368546820016" lon="9.614949776394079"><ele>137.4</ele><time>2026-05-03T14:31:36.999Z</time></trkpt><trkpt lat="40.624346787296666" lon="9.615062359497546"><ele>135.8</ele><time>2026-05-03T14:31:37.999Z</time></trkpt><trkpt lat="40.6243438067826" lon="9.615176196084379"><ele>134.2</ele><time>2026-05-03T14:31:38.999Z</time></trkpt><trkpt lat="40.624357496164706" lon="9.615292735834947"><ele>132.6</ele><time>2026-05-03T14:31:39.999Z</time></trkpt><trkpt lat="40.6243894496646" lon="9.615422246290077"><ele>131.0</ele><time>2026-05-03T14:31:40.999Z</time></trkpt><trkpt lat="40.624423530169885" lon="9.615564627779154"><ele>129.5</ele><time>2026-05-03T14:31:41.999Z</time></trkpt><trkpt lat="40.62445112420811" lon="9.615735129789915"><ele>128.0</ele><time>2026-05-03T14:31:42.999Z</time></trkpt><trkpt lat="40.62448724521775" lon="9.61591260244693"><ele>126.5</ele><time>2026-05-03T14:31:43.999Z</time></trkpt><trkpt lat="40.624522677691346" lon="9.61610140190147"><ele>125.0</ele><time>2026-05-03T14:31:44.999Z</time></trkpt><trkpt lat="40.624554615092414" lon="9.616268586218192"><ele>123.5</ele><time>2026-05-03T14:31:45.999Z</time></trkpt><trkpt lat="40.62458926586003" lon="9.616442253863152"><ele>122.0</ele><time>2026-05-03T14:31:46.999Z</time></trkpt><trkpt lat="40.6246211525344" lon="9.616598739044885"><ele>120.5</ele><time>2026-05-03T14:31:47.999Z</time></trkpt><trkpt lat="40.62462430632317" lon="9.616728269768956"><ele>119.0</ele><time>2026-05-03T14:31:48.999Z</time></trkpt><trkpt lat="40.624623850313576" lon="9.616850984039726"><ele>119.0</ele><time>2026-05-03T14:31:49.999Z</time></trkpt><trkpt lat="40.62461582115135" lon="9.616991536961788"><ele>119.0</ele><time>2026-05-03T14:31:50.999Z</time></trkpt><trkpt lat="40.62461238452109" lon="9.617135799267425"><ele>119.0</ele><time>2026-05-03T14:31:51.999Z</time></trkpt><trkpt lat="40.62460850239756" lon="9.617259403002501"><ele>119.0</ele><time>2026-05-03T14:31:52.999Z</time></trkpt><trkpt lat="40.624558670210455" lon="9.617362778328417"><ele>119.0</ele><time>2026-05-03T14:31:53.999Z</time></trkpt><trkpt lat="40.62448677769614" lon="9.617464367182405"><ele>118.16666666666666</ele><time>2026-05-03T14:31:54.999Z</time></trkpt><trkpt lat="40.62441325259458" lon="9.617556238583518"><ele>117.33333333333333</ele><time>2026-05-03T14:31:55.999Z</time></trkpt><trkpt lat="40.62434529925151" lon="9.61763994025106"><ele>116.5</ele><time>2026-05-03T14:31:56.999Z</time></trkpt><trkpt lat="40.624288392947946" lon="9.617714096951218"><ele>115.66666666666666</ele><time>2026-05-03T14:31:57.999Z</time></trkpt><trkpt lat="40.62423555231758" lon="9.617792999088639"><ele>114.83333333333333</ele><time>2026-05-03T14:31:58.999Z</time></trkpt><trkpt lat="40.624197569403165" lon="9.617890578844055"><ele>114.0</ele><time>2026-05-03T14:31:59.999Z</time></trkpt><trkpt lat="40.62415956715971" lon="9.617981097202358"><ele>113.0</ele><time>2026-05-03T14:32:00.999Z</time></trkpt><trkpt lat="40.62408502822019" lon="9.618043421132532"><ele>112.0</ele><time>2026-05-03T14:32:01.999Z</time></trkpt><trkpt lat="40.6240013976913" lon="9.618094940089016"><ele>111.0</ele><time>2026-05-03T14:32:02.999Z</time></trkpt><trkpt lat="40.62391001240015" lon="9.618157815864008"><ele>110.0</ele><time>2026-05-03T14:32:03.999Z</time></trkpt><trkpt lat="40.6238348881718" lon="9.61823777594156"><ele>109.0</ele><time>2026-05-03T14:32:04.999Z</time></trkpt><trkpt lat="40.62377202248109" lon="9.618336256821506"><ele>109.0</ele><time>2026-05-03T14:32:05.999Z</time></trkpt><trkpt lat="40.62371807215992" lon="9.61844687108633"><ele>109.0</ele><time>2026-05-03T14:32:06.999Z</time></trkpt><trkpt lat="40.62364607479988" lon="9.618550921047774"><ele>109.0</ele><time>2026-05-03T14:32:07.999Z</time></trkpt><trkpt lat="40.62359162188114" lon="9.61867088503995"><ele>109.0</ele><time>2026-05-03T14:32:08.999Z</time></trkpt><trkpt lat="40.623538896342914" lon="9.618784492181936"><ele>109.0</ele><time>2026-05-03T14:32:09.999Z</time></trkpt><trkpt lat="40.623487281567186" lon="9.618860919255235"><ele>107.16666666666667</ele><time>2026-05-03T14:32:10.999Z</time></trkpt><trkpt lat="40.62345336748444" lon="9.618932299911924"><ele>105.33333333333334</ele><time>2026-05-03T14:32:11.999Z</time></trkpt><trkpt lat="40.623465692577135" lon="9.619044162878673"><ele>103.5</ele><time>2026-05-03T14:32:13.999Z</time></trkpt><trkpt lat="40.6235594590949" lon="9.619142812618286"><ele>101.66666666666666</ele><time>2026-05-03T14:32:15.999Z</time></trkpt><trkpt lat="40.62362571951794" lon="9.61918582025442"><ele>99.83333333333333</ele><time>2026-05-03T14:32:17Z</time></trkpt><trkpt lat="40.62368918597916" lon="9.61923521200916"><ele>98.0</ele><time>2026-05-03T14:32:18Z</time></trkpt><trkpt lat="40.62374406050462" lon="9.619331663130666"><ele>98.0</ele><time>2026-05-03T14:32:19Z</time></trkpt><trkpt lat="40.62379975607286" lon="9.619445474172506"><ele>98.0</ele><time>2026-05-03T14:32:20Z</time></trkpt><trkpt lat="40.62385257615508" lon="9.619522300431958"><ele>98.0</ele><time>2026-05-03T14:32:21Z</time></trkpt><trkpt lat="40.62390675354331" lon="9.61965631203081"><ele>98.0</ele><time>2026-05-03T14:32:23Z</time></trkpt><trkpt lat="40.623906963865714" lon="9.619755561312765"><ele>98.0</ele><time>2026-05-03T14:32:24Z</time></trkpt><trkpt lat="40.62391097558289" lon="9.619858310471"><ele>96.16666666666666</ele><time>2026-05-03T14:32:25Z</time></trkpt><trkpt lat="40.62393276548965" lon="9.619941145275599"><ele>94.33333333333333</ele><time>2026-05-03T14:32:26Z</time></trkpt><trkpt lat="40.62401282511536" lon="9.62001184667783"><ele>92.5</ele><time>2026-05-03T14:32:28Z</time></trkpt><trkpt lat="40.624082153171805" lon="9.620034921287631"><ele>90.66666666666666</ele><time>2026-05-03T14:32:30Z</time></trkpt><trkpt lat="40.62416218955556" lon="9.620083921543388"><ele>88.83333333333333</ele><time>2026-05-03T14:32:33Z</time></trkpt><trkpt lat="40.624229565572634" lon="9.620109694693804"><ele>87.0</ele><time>2026-05-03T14:32:36Z</time></trkpt><trkpt lat="40.62432126309829" lon="9.620116443998533"><ele>87.0</ele><time>2026-05-03T14:32:38Z</time></trkpt><trkpt lat="40.624438839101835" lon="9.62016363316049"><ele>87.0</ele><time>2026-05-03T14:32:40Z</time></trkpt><trkpt lat="40.624510220675184" lon="9.620185336945209"><ele>87.0</ele><time>2026-05-03T14:32:41Z</time></trkpt><trkpt lat="40.62459491988118" lon="9.620219146862988"><ele>87.0</ele><time>2026-05-03T14:32:42Z</time></trkpt><trkpt lat="40.62467112030328" lon="9.62023498443475"><ele>87.0</ele><time>2026-05-03T14:32:43Z</time></trkpt><trkpt lat="40.624778081188886" lon="9.620262400825563"><ele>85.16666666666667</ele><time>2026-05-03T14:32:45Z</time></trkpt><trkpt lat="40.62484069016085" lon="9.620275134223602"><ele>83.33333333333333</ele><time>2026-05-03T14:32:51Z</time></trkpt><trkpt lat="40.624887234683264" lon="9.62019446541562"><ele>81.5</ele><time>2026-05-03T14:33:11.999Z</time></trkpt><trkpt lat="40.624954336807036" lon="9.620213183721729"><ele>79.66666666666666</ele><time>2026-05-03T14:33:13.999Z</time></trkpt><trkpt lat="40.62503547847211" lon="9.620222470145054"><ele>77.83333333333333</ele><time>2026-05-03T14:33:14.999Z</time></trkpt><trkpt lat="40.625125050476285" lon="9.620233293661643"><ele>76.0</ele><time>2026-05-03T14:33:15.999Z</time></trkpt><trkpt lat="40.62519689500938" lon="9.620263305408562"><ele>76.0</ele><time>2026-05-03T14:33:16.999Z</time></trkpt><trkpt lat="40.62527088056269" lon="9.620274838890623"><ele>76.0</ele><time>2026-05-03T14:33:17.999Z</time></trkpt><trkpt lat="40.62538145421135" lon="9.620278271965041"><ele>76.0</ele><time>2026-05-03T14:33:18.999Z</time></trkpt><trkpt lat="40.62555836926594" lon="9.620260831487585"><ele>76.0</ele><time>2026-05-03T14:33:19.999Z</time></trkpt><trkpt lat="40.62578018980103" lon="9.620299171136999"><ele>76.0</ele><time>2026-05-03T14:33:20.999Z</time></trkpt><trkpt lat="40.62601309971545" lon="9.620362222137722"><ele>76.0</ele><time>2026-05-03T14:33:21.999Z</time></trkpt><trkpt lat="40.626257211104715" lon="9.62041748471737"><ele>76.0</ele><time>2026-05-03T14:33:22.999Z</time></trkpt><trkpt lat="40.6264762396926" lon="9.620472724391426"><ele>76.0</ele><time>2026-05-03T14:33:23.999Z</time></trkpt><trkpt lat="40.62666683885891" lon="9.620523000104168"><ele>76.0</ele><time>2026-05-03T14:33:24.999Z</time></trkpt><trkpt lat="40.626828536039746" lon="9.620578876613921"><ele>76.0</ele><time>2026-05-03T14:33:25.999Z</time></trkpt><trkpt lat="40.626960095917916" lon="9.620653589504196"><ele>76.0</ele><time>2026-05-03T14:33:26.999Z</time></trkpt><trkpt lat="40.627087701240285" lon="9.620753849356456"><ele>76.0</ele><time>2026-05-03T14:33:27.999Z</time></trkpt><trkpt lat="40.6272119495789" lon="9.620879020366942"><ele>76.0</ele><time>2026-05-03T14:33:28.999Z</time></trkpt><trkpt lat="40.62733680691017" lon="9.621020615584348"><ele>77.66666666666666</ele><time>2026-05-03T14:33:29.999Z</time></trkpt><trkpt lat="40.62746665674639" lon="9.621165912667642"><ele>79.33333333333333</ele><time>2026-05-03T14:33:30.999Z</time></trkpt><trkpt lat="40.62759219282023" lon="9.621317247550483"><ele>81.0</ele><time>2026-05-03T14:33:31.999Z</time></trkpt><trkpt lat="40.627701786885964" lon="9.621484049950938"><ele>81.0</ele><time>2026-05-03T14:33:32.999Z</time></trkpt><trkpt lat="40.6277875335204" lon="9.62166289407073"><ele>81.0</ele><time>2026-05-03T14:33:33.999Z</time></trkpt><trkpt lat="40.62781466157972" lon="9.621852255007756"><ele>81.0</ele><time>2026-05-03T14:33:34.999Z</time></trkpt><trkpt lat="40.62784717871333" lon="9.622019174913023"><ele>81.0</ele><time>2026-05-03T14:33:35.999Z</time></trkpt><trkpt lat="40.62787113887099" lon="9.622169695686097"><ele>83.6</ele><time>2026-05-03T14:33:36.999Z</time></trkpt><trkpt lat="40.62789480960162" lon="9.62230151077052"><ele>86.19999999999999</ele><time>2026-05-03T14:33:37.999Z</time></trkpt><trkpt lat="40.62791561762355" lon="9.62242594478635"><ele>88.80000000000001</ele><time>2026-05-03T14:33:38.999Z</time></trkpt><trkpt lat="40.62793873277596" lon="9.622567407764173"><ele>91.4</ele><time>2026-05-03T14:33:39.999Z</time></trkpt><trkpt lat="40.62797786586734" lon="9.622722418640986"><ele>94.0</ele><time>2026-05-03T14:33:40.999Z</time></trkpt><trkpt lat="40.627971531099924" lon="9.622890833815301"><ele>95.0</ele><time>2026-05-03T14:33:41.999Z</time></trkpt><trkpt lat="40.62798639218212" lon="9.623055915126214"><ele>96.0</ele><time>2026-05-03T14:33:42.999Z</time></trkpt><trkpt lat="40.62799876425641" lon="9.623216016971607"><ele>97.0</ele><time>2026-05-03T14:33:43.999Z</time></trkpt><trkpt lat="40.628006297571794" lon="9.623374826250618"><ele>98.0</ele><time>2026-05-03T14:33:44.999Z</time></trkpt><trkpt lat="40.62800718864264" lon="9.62353149142341"><ele>96.75</ele><time>2026-05-03T14:33:45.999Z</time></trkpt><trkpt lat="40.628006988036034" lon="9.623695887386814"><ele>95.5</ele><time>2026-05-03T14:33:46.999Z</time></trkpt><trkpt lat="40.6280193529094" lon="9.623881707963035"><ele>94.25</ele><time>2026-05-03T14:33:47.999Z</time></trkpt><trkpt lat="40.628070290244146" lon="9.62410261793031"><ele>93.0</ele><time>2026-05-03T14:33:48.999Z</time></trkpt><trkpt lat="40.62812462455234" lon="9.624372068976665"><ele>83.5</ele><time>2026-05-03T14:33:49.999Z</time></trkpt><trkpt lat="40.628207380826844" lon="9.624652848513303"><ele>74.0</ele><time>2026-05-03T14:33:50.999Z</time></trkpt><trkpt lat="40.62829129902928" lon="9.624949294460366"><ele>74.0</ele><time>2026-05-03T14:33:51.999Z</time></trkpt><trkpt lat="40.62837806486397" lon="9.62525629963025"><ele>74.0</ele><time>2026-05-03T14:33:52.999Z</time></trkpt><trkpt lat="40.6284668209686" lon="9.625565613044138"><ele>67.5</ele><time>2026-05-03T14:33:53.999Z</time></trkpt><trkpt lat="40.62851461089731" lon="9.625876912438995"><ele>61.0</ele><time>2026-05-03T14:33:54.999Z</time></trkpt><trkpt lat="40.62853090933636" lon="9.626171689490867"><ele>59.0</ele><time>2026-05-03T14:33:55.999Z</time></trkpt><trkpt lat="40.628510189849735" lon="9.626466831450212"><ele>57.0</ele><time>2026-05-03T14:33:56.999Z</time></trkpt><trkpt lat="40.62846642487424" lon="9.626748460434845"><ele>55.0</ele><time>2026-05-03T14:33:57.999Z</time></trkpt><trkpt lat="40.62841508328846" lon="9.627005793349579"><ele>53.666666666666664</ele><time>2026-05-03T14:33:58.999Z</time></trkpt><trkpt lat="40.62837776614884" lon="9.62725497706437"><ele>52.33333333333333</ele><time>2026-05-03T14:33:59.999Z</time></trkpt><trkpt lat="40.62836010216112" lon="9.62749764063769"><ele>51.0</ele><time>2026-05-03T14:34:00.999Z</time></trkpt><trkpt lat="40.62837590575259" lon="9.62773819060884"><ele>49.0</ele><time>2026-05-03T14:34:01.999Z</time></trkpt><trkpt lat="40.62839773010581" lon="9.627990501570581"><ele>47.0</ele><time>2026-05-03T14:34:02.999Z</time></trkpt><trkpt lat="40.62841704720426" lon="9.628251286188831"><ele>45.0</ele><time>2026-05-03T14:34:03.999Z</time></trkpt><trkpt lat="40.628441397221856" lon="9.628516659597912"><ele>43.0</ele><time>2026-05-03T14:34:04.999Z</time></trkpt><trkpt lat="40.628479832100105" lon="9.628776919983684"><ele>41.0</ele><time>2026-05-03T14:34:05.999Z</time></trkpt><trkpt lat="40.62853513987516" lon="9.629034402924091"><ele>39.0</ele><time>2026-05-03T14:34:06.999Z</time></trkpt><trkpt lat="40.628592765064454" lon="9.62928496263732"><ele>38.0</ele><time>2026-05-03T14:34:07.999Z</time></trkpt><trkpt lat="40.62864121669431" lon="9.6295157838931"><ele>37.0</ele><time>2026-05-03T14:34:08.999Z</time></trkpt><trkpt lat="40.628686196613465" lon="9.629739179539603"><ele>36.0</ele><time>2026-05-03T14:34:09.999Z</time></trkpt><trkpt lat="40.62873027838226" lon="9.629946823058162"><ele>37.0</ele><time>2026-05-03T14:34:10.999Z</time></trkpt><trkpt lat="40.628767880652646" lon="9.63013576375691"><ele>38.0</ele><time>2026-05-03T14:34:11.999Z</time></trkpt><trkpt lat="40.628783208941584" lon="9.630299591168264"><ele>39.0</ele><time>2026-05-03T14:34:12.999Z</time></trkpt><trkpt lat="40.628767935596585" lon="9.630451075378621"><ele>40.0</ele><time>2026-05-03T14:34:13.999Z</time></trkpt><trkpt lat="40.6287253925674" lon="9.630596652119648"><ele>40.0</ele><time>2026-05-03T14:34:14.999Z</time></trkpt><trkpt lat="40.628664148213794" lon="9.63072865926903"><ele>40.0</ele><time>2026-05-03T14:34:15.999Z</time></trkpt><trkpt lat="40.62868389506558" lon="9.630925366814633"><ele>40.0</ele><time>2026-05-03T14:34:16.999Z</time></trkpt><trkpt lat="40.62870272631929" lon="9.631141370376296"><ele>40.0</ele><time>2026-05-03T14:34:17.999Z</time></trkpt><trkpt lat="40.62866714032948" lon="9.631363768208672"><ele>36.0</ele><time>2026-05-03T14:34:18.999Z</time></trkpt><trkpt lat="40.62862176702395" lon="9.631613144577903"><ele>32.0</ele><time>2026-05-03T14:34:19.999Z</time></trkpt><trkpt lat="40.62859790506167" lon="9.631871353765053"><ele>28.0</ele><time>2026-05-03T14:34:20.999Z</time></trkpt><trkpt lat="40.62857905304276" lon="9.632112803235756"><ele>27.0</ele><time>2026-05-03T14:34:21.999Z</time></trkpt><trkpt lat="40.62856725147713" lon="9.632337045995223"><ele>26.0</ele><time>2026-05-03T14:34:23Z</time></trkpt><trkpt lat="40.628554164119414" lon="9.632541667050042"><ele>25.0</ele><time>2026-05-03T14:34:24Z</time></trkpt><trkpt lat="40.62853770636063" lon="9.632731763010662"><ele>25.0</ele><time>2026-05-03T14:34:25Z</time></trkpt><trkpt lat="40.62853358070026" lon="9.632913620799789"><ele>25.0</ele><time>2026-05-03T14:34:26Z</time></trkpt><trkpt lat="40.62855056518068" lon="9.633093491763754"><ele>25.0</ele><time>2026-05-03T14:34:27Z</time></trkpt><trkpt lat="40.62858062397322" lon="9.633254928395479"><ele>25.0</ele><time>2026-05-03T14:34:28Z</time></trkpt><trkpt lat="40.62862188967027" lon="9.633394346743067"><ele>25.75</ele><time>2026-05-03T14:34:29Z</time></trkpt><trkpt lat="40.628688739269236" lon="9.633513232436485"><ele>26.5</ele><time>2026-05-03T14:34:30Z</time></trkpt><trkpt lat="40.62879074725838" lon="9.633597851602275"><ele>27.25</ele><time>2026-05-03T14:34:31Z</time></trkpt><trkpt lat="40.62889150550089" lon="9.633681994291585"><ele>28.0</ele><time>2026-05-03T14:34:32Z</time></trkpt><trkpt lat="40.62894880139336" lon="9.633802648896058"><ele>28.0</ele><time>2026-05-03T14:34:33Z</time></trkpt><trkpt lat="40.62896499193277" lon="9.633935976417407"><ele>28.0</ele><time>2026-05-03T14:34:34Z</time></trkpt><trkpt lat="40.628951666174125" lon="9.634098235425158"><ele>28.0</ele><time>2026-05-03T14:34:35Z</time></trkpt><trkpt lat="40.628952303187184" lon="9.634278361161936"><ele>28.0</ele><time>2026-05-03T14:34:36Z</time></trkpt><trkpt lat="40.628949614884874" lon="9.634455674887453"><ele>27.0</ele><time>2026-05-03T14:34:37Z</time></trkpt><trkpt lat="40.62898706949109" lon="9.634642426590032"><ele>26.0</ele><time>2026-05-03T14:34:38Z</time></trkpt><trkpt lat="40.62904727543608" lon="9.634841414036474"><ele>25.0</ele><time>2026-05-03T14:34:39Z</time></trkpt><trkpt lat="40.62909823582023" lon="9.635018135682097"><ele>25.0</ele><time>2026-05-03T14:34:40Z</time></trkpt><trkpt lat="40.62914193309605" lon="9.635146856469687"><ele>25.0</ele><time>2026-05-03T14:34:41Z</time></trkpt><trkpt lat="40.629200960585585" lon="9.635243028921474"><ele>25.0</ele><time>2026-05-03T14:34:42Z</time></trkpt><trkpt lat="40.629295191981385" lon="9.635291392998065"><ele>25.0</ele><time>2026-05-03T14:34:43Z</time></trkpt><trkpt lat="40.629409307307135" lon="9.635306097284664"><ele>25.0</ele><time>2026-05-03T14:34:44Z</time></trkpt><trkpt lat="40.62952359235254" lon="9.635298274179565"><ele>26.666666666666668</ele><time>2026-05-03T14:34:45Z</time></trkpt><trkpt lat="40.62961009452211" lon="9.635318397656869"><ele>28.333333333333336</ele><time>2026-05-03T14:34:46Z</time></trkpt><trkpt lat="40.62966662962237" lon="9.635386710297537"><ele>30.0</ele><time>2026-05-03T14:34:47Z</time></trkpt><trkpt lat="40.62969183584081" lon="9.635488396039136"><ele>31.666666666666664</ele><time>2026-05-03T14:34:48Z</time></trkpt><trkpt lat="40.62968393340801" lon="9.635608764995483"><ele>33.33333333333333</ele><time>2026-05-03T14:34:49Z</time></trkpt><trkpt lat="40.629627814368334" lon="9.635723894261341"><ele>35.0</ele><time>2026-05-03T14:34:50Z</time></trkpt><trkpt lat="40.629599401179235" lon="9.635866031234801"><ele>35.0</ele><time>2026-05-03T14:34:51Z</time></trkpt><trkpt lat="40.62955511318542" lon="9.636021554673036"><ele>35.0</ele><time>2026-05-03T14:34:52Z</time></trkpt><trkpt lat="40.62951016313786" lon="9.636187687995681"><ele>35.0</ele><time>2026-05-03T14:34:53Z</time></trkpt><trkpt lat="40.62946675078029" lon="9.636342872459545"><ele>35.0</ele><time>2026-05-03T14:34:54Z</time></trkpt><trkpt lat="40.629435057572984" lon="9.63648606390901"><ele>34.25</ele><time>2026-05-03T14:34:55Z</time></trkpt><trkpt lat="40.62944075123614" lon="9.636625895288368"><ele>33.5</ele><time>2026-05-03T14:34:56Z</time></trkpt><trkpt lat="40.62948872800576" lon="9.63677497442871"><ele>32.75</ele><time>2026-05-03T14:34:57Z</time></trkpt><trkpt lat="40.6295457452023" lon="9.636934267328122"><ele>32.0</ele><time>2026-05-03T14:34:58Z</time></trkpt><trkpt lat="40.62959627869134" lon="9.637095830783707"><ele>30.5</ele><time>2026-05-03T14:34:59Z</time></trkpt><trkpt lat="40.62963972466056" lon="9.63724298538541"><ele>29.0</ele><time>2026-05-03T14:35:00Z</time></trkpt><trkpt lat="40.62970103268416" lon="9.637370829035309"><ele>27.5</ele><time>2026-05-03T14:35:01Z</time></trkpt><trkpt lat="40.62979148835992" lon="9.63747038771502"><ele>26.0</ele><time>2026-05-03T14:35:02Z</time></trkpt><trkpt lat="40.629892294527124" lon="9.63755117114234"><ele>26.0</ele><time>2026-05-03T14:35:03Z</time></trkpt><trkpt lat="40.62995949524722" lon="9.637663362444558"><ele>26.0</ele><time>2026-05-03T14:35:04Z</time></trkpt><trkpt lat="40.62995831383558" lon="9.637815781807122"><ele>26.0</ele><time>2026-05-03T14:35:05Z</time></trkpt><trkpt lat="40.62996692619857" lon="9.63797270464174"><ele>26.0</ele><time>2026-05-03T14:35:06Z</time></trkpt><trkpt lat="40.629980627448724" lon="9.638143937224841"><ele>24.75</ele><time>2026-05-03T14:35:07Z</time></trkpt><trkpt lat="40.62998498719227" lon="9.638314632472248"><ele>23.5</ele><time>2026-05-03T14:35:08Z</time></trkpt><trkpt lat="40.62999185167798" lon="9.63846325158382"><ele>22.25</ele><time>2026-05-03T14:35:09Z</time></trkpt><trkpt lat="40.63002184113281" lon="9.63859166370367"><ele>21.0</ele><time>2026-05-03T14:35:10Z</time></trkpt><trkpt lat="40.63009832267881" lon="9.638706123033243"><ele>20.75</ele><time>2026-05-03T14:35:11Z</time></trkpt><trkpt lat="40.63020662646496" lon="9.638821777285678"><ele>20.5</ele><time>2026-05-03T14:35:12Z</time></trkpt><trkpt lat="40.63029440007869" lon="9.638929421885107"><ele>20.25</ele><time>2026-05-03T14:35:13Z</time></trkpt><trkpt lat="40.6303663560049" lon="9.639045542830702"><ele>20.0</ele><time>2026-05-03T14:35:14Z</time></trkpt><trkpt lat="40.63038915257601" lon="9.639183362249948"><ele>19.75</ele><time>2026-05-03T14:35:14.999Z</time></trkpt><trkpt lat="40.630367745517866" lon="9.63933534187318"><ele>19.5</ele><time>2026-05-03T14:35:15.999Z</time></trkpt><trkpt lat="40.63033510492327" lon="9.639494655854428"><ele>19.25</ele><time>2026-05-03T14:35:16.999Z</time></trkpt><trkpt lat="40.630298533086794" lon="9.639657758458101"><ele>19.0</ele><time>2026-05-03T14:35:17.999Z</time></trkpt><trkpt lat="40.630256397458055" lon="9.639815790265038"><ele>19.0</ele><time>2026-05-03T14:35:18.999Z</time></trkpt><trkpt lat="40.63022817343349" lon="9.639959742375229"><ele>19.0</ele><time>2026-05-03T14:35:19.999Z</time></trkpt><trkpt lat="40.63022512732432" lon="9.640101518917378"><ele>19.0</ele><time>2026-05-03T14:35:20.999Z</time></trkpt><trkpt lat="40.63026500976245" lon="9.640239578358893"><ele>19.0</ele><time>2026-05-03T14:35:21.999Z</time></trkpt><trkpt lat="40.63033170395151" lon="9.64036783641718"><ele>19.0</ele><time>2026-05-03T14:35:22.999Z</time></trkpt><trkpt lat="40.63042618900941" lon="9.64047774349359"><ele>19.0</ele><time>2026-05-03T14:35:23.999Z</time></trkpt><trkpt lat="40.6305598985454" lon="9.640537905322532"><ele>19.0</ele><time>2026-05-03T14:35:24.999Z</time></trkpt><trkpt lat="40.63069466117317" lon="9.640602049843963"><ele>19.0</ele><time>2026-05-03T14:35:25.999Z</time></trkpt><trkpt lat="40.63084834172664" lon="9.640676540877951"><ele>19.0</ele><time>2026-05-03T14:35:26.999Z</time></trkpt><trkpt lat="40.63100837406643" lon="9.640757645004161"><ele>19.0</ele><time>2026-05-03T14:35:27.999Z</time></trkpt><trkpt lat="40.63115488276743" lon="9.64083737367371"><ele>19.0</ele><time>2026-05-03T14:35:28.999Z</time></trkpt><trkpt lat="40.631305052237224" lon="9.640914194059942"><ele>18.75</ele><time>2026-05-03T14:35:29.999Z</time></trkpt><trkpt lat="40.63145145294867" lon="9.640989863522057"><ele>18.5</ele><time>2026-05-03T14:35:30.999Z</time></trkpt><trkpt lat="40.6315859630797" lon="9.641061324377"><ele>18.25</ele><time>2026-05-03T14:35:31.999Z</time></trkpt><trkpt lat="40.63171069756269" lon="9.641137686483065"><ele>18.0</ele><time>2026-05-03T14:35:32.999Z</time></trkpt><trkpt lat="40.63182620406506" lon="9.641235679988322"><ele>18.0</ele><time>2026-05-03T14:35:33.999Z</time></trkpt><trkpt lat="40.63192666945409" lon="9.641355626712944"><ele>18.0</ele><time>2026-05-03T14:35:34.999Z</time></trkpt><trkpt lat="40.63200099003085" lon="9.641502064198663"><ele>18.0</ele><time>2026-05-03T14:35:35.999Z</time></trkpt><trkpt lat="40.63205226476583" lon="9.641668985684623"><ele>18.0</ele><time>2026-05-03T14:35:36.999Z</time></trkpt><trkpt lat="40.63207926984761" lon="9.641855222628754"><ele>19.0</ele><time>2026-05-03T14:35:37.999Z</time></trkpt><trkpt lat="40.632108201389045" lon="9.642048333385599"><ele>20.0</ele><time>2026-05-03T14:35:38.999Z</time></trkpt><trkpt lat="40.63216550376428" lon="9.642238129389082"><ele>21.0</ele><time>2026-05-03T14:35:39.999Z</time></trkpt><trkpt lat="40.63225592193385" lon="9.642418482301984"><ele>21.0</ele><time>2026-05-03T14:35:40.999Z</time></trkpt><trkpt lat="40.63237118323538" lon="9.642588961162556"><ele>21.0</ele><time>2026-05-03T14:35:41.999Z</time></trkpt><trkpt lat="40.63249760097873" lon="9.642747823447037"><ele>21.0</ele><time>2026-05-03T14:35:42.999Z</time></trkpt><trkpt lat="40.632618982682814" lon="9.642900516328508"><ele>19.333333333333332</ele><time>2026-05-03T14:35:43.999Z</time></trkpt><trkpt lat="40.632724285902576" lon="9.643049774197628"><ele>17.666666666666664</ele><time>2026-05-03T14:35:44.999Z</time></trkpt><trkpt lat="40.63280754301529" lon="9.643215392549662"><ele>16.0</ele><time>2026-05-03T14:35:45.999Z</time></trkpt><trkpt lat="40.63287143966618" lon="9.64339659709542"><ele>20.0</ele><time>2026-05-03T14:35:46.999Z</time></trkpt><trkpt lat="40.632926248972865" lon="9.643594861382834"><ele>24.0</ele><time>2026-05-03T14:35:47.999Z</time></trkpt><trkpt lat="40.63297286450466" lon="9.643813191283016"><ele>28.0</ele><time>2026-05-03T14:35:48.999Z</time></trkpt><trkpt lat="40.63301632170013" lon="9.644032355161638"><ele>28.0</ele><time>2026-05-03T14:35:49.999Z</time></trkpt><trkpt lat="40.63306204510046" lon="9.644227562121994"><ele>28.0</ele><time>2026-05-03T14:35:50.999Z</time></trkpt><trkpt lat="40.63310775493242" lon="9.644412821911551"><ele>28.0</ele><time>2026-05-03T14:35:51.999Z</time></trkpt><trkpt lat="40.63315527043696" lon="9.644591439233944"><ele>28.0</ele><time>2026-05-03T14:35:52.999Z</time></trkpt><trkpt lat="40.63320450791438" lon="9.644757606529328"><ele>26.25</ele><time>2026-05-03T14:35:53.999Z</time></trkpt><trkpt lat="40.63326396003057" lon="9.644925747668676"><ele>24.5</ele><time>2026-05-03T14:35:54.999Z</time></trkpt><trkpt lat="40.63333204834077" lon="9.645089453431085"><ele>22.75</ele><time>2026-05-03T14:35:55.999Z</time></trkpt><trkpt lat="40.6334005387149" lon="9.645253076407219"><ele>21.0</ele><time>2026-05-03T14:35:56.999Z</time></trkpt><trkpt lat="40.633464578907684" lon="9.645407918704095"><ele>20.0</ele><time>2026-05-03T14:35:57.999Z</time></trkpt><trkpt lat="40.63352806886852" lon="9.645568174441996"><ele>19.0</ele><time>2026-05-03T14:35:58.999Z</time></trkpt><trkpt lat="40.63359713370054" lon="9.645733238612104"><ele>18.0</ele><time>2026-05-03T14:35:59.999Z</time></trkpt><trkpt lat="40.63367162509606" lon="9.645903284182689"><ele>17.0</ele><time>2026-05-03T14:36:00.999Z</time></trkpt><trkpt lat="40.63374468807822" lon="9.646073874972593"><ele>15.75</ele><time>2026-05-03T14:36:01.999Z</time></trkpt><trkpt lat="40.63380362243433" lon="9.646245429272037"><ele>14.5</ele><time>2026-05-03T14:36:02.999Z</time></trkpt><trkpt lat="40.6338311962433" lon="9.646406257722738"><ele>13.25</ele><time>2026-05-03T14:36:03.999Z</time></trkpt><trkpt lat="40.63382610282317" lon="9.646570134795185"><ele>12.0</ele><time>2026-05-03T14:36:04.999Z</time></trkpt><trkpt lat="40.63384002981487" lon="9.646689995879184"><ele>12.0</ele><time>2026-05-03T14:36:05.999Z</time></trkpt><trkpt lat="40.63383868312195" lon="9.64679080103178"><ele>12.0</ele><time>2026-05-03T14:36:06.999Z</time></trkpt><trkpt lat="40.633838319667916" lon="9.646880678475759"><ele>12.0</ele><time>2026-05-03T14:36:07.999Z</time></trkpt><trkpt lat="40.6338356803291" lon="9.646966567494177"><ele>12.0</ele><time>2026-05-03T14:36:08.999Z</time></trkpt><trkpt lat="40.633831250737444" lon="9.647108528896478"><ele>12.0</ele><time>2026-05-03T14:36:10.999Z</time></trkpt><trkpt lat="40.63383380219437" lon="9.647219893619397"><ele>12.0</ele><time>2026-05-03T14:36:12.999Z</time></trkpt><trkpt lat="40.63382835921606" lon="9.6473106869222"><ele>11.0</ele><time>2026-05-03T14:36:14.999Z</time></trkpt><trkpt lat="40.63383342030681" lon="9.647421141360239"><ele>10.0</ele><time>2026-05-03T14:36:33Z</time></trkpt><trkpt lat="40.63383485631195" lon="9.647572897294031"><ele>9.0</ele><time>2026-05-03T14:36:35Z</time></trkpt><trkpt lat="40.6338351325043" lon="9.647655983890196"><ele>8.0</ele><time>2026-05-03T14:36:36Z</time></trkpt><trkpt lat="40.63383731748157" lon="9.647822644259783"><ele>7.0</ele><time>2026-05-03T14:36:38Z</time></trkpt><trkpt lat="40.63383872941145" lon="9.64790769889933"><ele>7.000000000000001</ele><time>2026-05-03T14:36:39Z</time></trkpt><trkpt lat="40.63384218149161" lon="9.64799492948143"><ele>7.0</ele><time>2026-05-03T14:36:40Z</time></trkpt><trkpt lat="40.633846763439585" lon="9.64808702408598"><ele>7.0</ele><time>2026-05-03T14:36:41Z</time></trkpt><trkpt lat="40.63383114380791" lon="9.648178831871006"><ele>7.0</ele><time>2026-05-03T14:36:42Z</time></trkpt><trkpt lat="40.63383142812969" lon="9.648338606414056"><ele>7.000000000000001</ele><time>2026-05-03T14:36:44Z</time></trkpt><trkpt lat="40.633831702717536" lon="9.648492911012633"><ele>7.0</ele><time>2026-05-03T14:36:46Z</time></trkpt><trkpt lat="40.633847365975704" lon="9.648578986238793"><ele>7.857142857142858</ele><time>2026-05-03T14:36:47Z</time></trkpt><trkpt lat="40.63384573596379" lon="9.648662169554887"><ele>8.714285714285715</ele><time>2026-05-03T14:36:48Z</time></trkpt><trkpt lat="40.63384701692164" lon="9.648777019028394"><ele>9.571428571428571</ele><time>2026-05-03T14:36:50Z</time></trkpt><trkpt lat="40.63384614887058" lon="9.648864886810328"><ele>10.428571428571429</ele><time>2026-05-03T14:36:56Z</time></trkpt><trkpt lat="40.633838732050926" lon="9.648960633836559"><ele>11.285714285714286</ele><time>2026-05-03T14:37:06Z</time></trkpt><trkpt lat="40.633837715888724" lon="9.649057438848248"><ele>12.142857142857142</ele><time>2026-05-03T14:37:12Z</time></trkpt><trkpt lat="40.63383698712003" lon="9.64914247383676"><ele>13.0</ele><time>2026-05-03T14:37:21Z</time></trkpt><trkpt lat="40.6338357406135" lon="9.64922817128199"><ele>13.0</ele><time>2026-05-03T14:37:25.999Z</time></trkpt><trkpt lat="40.633819207544114" lon="9.649314373114484"><ele>13.0</ele><time>2026-05-03T14:37:30.999Z</time></trkpt><trkpt lat="40.63384747444943" lon="9.649416517860347"><ele>13.0</ele><time>2026-05-03T14:39:57.998Z</time></trkpt><trkpt lat="40.63381187784736" lon="9.649565542749025"><ele>13.0</ele><time>2026-05-03T14:39:59.998Z</time></trkpt><trkpt lat="40.633768612496496" lon="9.649655551129277"><ele>13.0</ele><time>2026-05-03T14:40:00.998Z</time></trkpt><trkpt lat="40.633650539725735" lon="9.649717476698854"><ele>14.0</ele><time>2026-05-03T14:40:01.998Z</time></trkpt><trkpt lat="40.63353576431659" lon="9.649815807282602"><ele>15.0</ele><time>2026-05-03T14:40:02.998Z</time></trkpt><trkpt lat="40.63342475309985" lon="9.649920611793897"><ele>16.0</ele><time>2026-05-03T14:40:03.998Z</time></trkpt><trkpt lat="40.63332084199659" lon="9.649999661687962"><ele>17.0</ele><time>2026-05-03T14:40:04.998Z</time></trkpt><trkpt lat="40.63323312561199" lon="9.650078312654042"><ele>17.0</ele><time>2026-05-03T14:40:05.998Z</time></trkpt><trkpt lat="40.63315249971984" lon="9.650150113884434"><ele>17.0</ele><time>2026-05-03T14:40:06.998Z</time></trkpt><trkpt lat="40.633069009546915" lon="9.650228773624377"><ele>17.0</ele><time>2026-05-03T14:40:07.998Z</time></trkpt><trkpt lat="40.63299215151711" lon="9.65032482891731"><ele>17.0</ele><time>2026-05-03T14:40:08.998Z</time></trkpt><trkpt lat="40.63293723227354" lon="9.650448575103653"><ele>17.0</ele><time>2026-05-03T14:40:09.998Z</time></trkpt><trkpt lat="40.63290030796989" lon="9.650580616434272"><ele>16.8</ele><time>2026-05-03T14:40:10.998Z</time></trkpt><trkpt lat="40.63288767367279" lon="9.650718782951717"><ele>16.6</ele><time>2026-05-03T14:40:11.998Z</time></trkpt><trkpt lat="40.632892526149746" lon="9.650839812641811"><ele>16.400000000000002</ele><time>2026-05-03T14:40:12.998Z</time></trkpt><trkpt lat="40.632913953335056" lon="9.6509623652133"><ele>16.2</ele><time>2026-05-03T14:40:13.998Z</time></trkpt><trkpt lat="40.632961340571384" lon="9.651092342456867"><ele>16.0</ele><time>2026-05-03T14:40:14.998Z</time></trkpt><trkpt lat="40.633041310681506" lon="9.651220715428224"><ele>16.0</ele><time>2026-05-03T14:40:15.998Z</time></trkpt><trkpt lat="40.633144597092524" lon="9.651324719591036"><ele>16.0</ele><time>2026-05-03T14:40:16.998Z</time></trkpt><trkpt lat="40.633272272239374" lon="9.65139930961644"><ele>16.0</ele><time>2026-05-03T14:40:17.998Z</time></trkpt><trkpt lat="40.633429481256215" lon="9.651460932186533"><ele>16.0</ele><time>2026-05-03T14:40:18.998Z</time></trkpt><trkpt lat="40.63362239261397" lon="9.651513544565361"><ele>17.0</ele><time>2026-05-03T14:40:19.998Z</time></trkpt><trkpt lat="40.633845171919866" lon="9.651589723217894"><ele>18.0</ele><time>2026-05-03T14:40:20.998Z</time></trkpt><trkpt lat="40.63408611448927" lon="9.651681924147928"><ele>18.0</ele><time>2026-05-03T14:40:21.998Z</time></trkpt><trkpt lat="40.63433570730237" lon="9.651775269942178"><ele>18.0</ele><time>2026-05-03T14:40:22.998Z</time></trkpt><trkpt lat="40.63456563114351" lon="9.651854593388874"><ele>17.0</ele><time>2026-05-03T14:40:23.998Z</time></trkpt><trkpt lat="40.634766004956994" lon="9.651921933910238"><ele>16.0</ele><time>2026-05-03T14:40:24.998Z</time></trkpt><trkpt lat="40.63494960563966" lon="9.65198843249932"><ele>15.0</ele><time>2026-05-03T14:40:25.998Z</time></trkpt><trkpt lat="40.63513184832711" lon="9.652057629089226"><ele>15.666666666666668</ele><time>2026-05-03T14:40:26.998Z</time></trkpt><trkpt lat="40.63531372964647" lon="9.652124784926256"><ele>16.333333333333336</ele><time>2026-05-03T14:40:27.998Z</time></trkpt><trkpt lat="40.63548811681314" lon="9.652212782636695"><ele>17.0</ele><time>2026-05-03T14:40:28.998Z</time></trkpt><trkpt lat="40.63565004540939" lon="9.652274618627233"><ele>17.0</ele><time>2026-05-03T14:40:29.998Z</time></trkpt><trkpt lat="40.635788462096464" lon="9.652316041345335"><ele>17.0</ele><time>2026-05-03T14:40:30.998Z</time></trkpt><trkpt lat="40.63588125369759" lon="9.652377147697727"><ele>17.0</ele><time>2026-05-03T14:40:31.998Z</time></trkpt><trkpt lat="40.63595549698578" lon="9.652432402422923"><ele>17.0</ele><time>2026-05-03T14:40:32.998Z</time></trkpt><trkpt lat="40.63601296843643" lon="9.65253937461083"><ele>17.0</ele><time>2026-05-03T14:40:33.998Z</time></trkpt><trkpt lat="40.63606779879639" lon="9.652708560236398"><ele>18.333333333333336</ele><time>2026-05-03T14:40:34.998Z</time></trkpt><trkpt lat="40.63615431298538" lon="9.652941162645185"><ele>19.666666666666668</ele><time>2026-05-03T14:40:35.998Z</time></trkpt><trkpt lat="40.63626114872688" lon="9.653187328882522"><ele>21.0</ele><time>2026-05-03T14:40:36.998Z</time></trkpt><trkpt lat="40.63636009233164" lon="9.653466818111834"><ele>20.5</ele><time>2026-05-03T14:40:37.998Z</time></trkpt><trkpt lat="40.63647581365241" lon="9.653758700653876"><ele>20.0</ele><time>2026-05-03T14:40:38.999Z</time></trkpt><trkpt lat="40.63657919587561" lon="9.65401588389172"><ele>20.0</ele><time>2026-05-03T14:40:39.999Z</time></trkpt><trkpt lat="40.63667544154726" lon="9.654256428237757"><ele>20.0</ele><time>2026-05-03T14:40:40.999Z</time></trkpt><trkpt lat="40.63677847665978" lon="9.654510558278309"><ele>20.0</ele><time>2026-05-03T14:40:41.999Z</time></trkpt><trkpt lat="40.63687292265554" lon="9.654748942456077"><ele>19.666666666666668</ele><time>2026-05-03T14:40:42.999Z</time></trkpt><trkpt lat="40.63696563978513" lon="9.654975186673079"><ele>19.333333333333332</ele><time>2026-05-03T14:40:43.999Z</time></trkpt><trkpt lat="40.637051336582076" lon="9.655186414176718"><ele>19.0</ele><time>2026-05-03T14:40:44.999Z</time></trkpt><trkpt lat="40.6371299133486" lon="9.655381637712118"><ele>19.0</ele><time>2026-05-03T14:40:45.999Z</time></trkpt><trkpt lat="40.63720361217434" lon="9.65556296951115"><ele>19.0</ele><time>2026-05-03T14:40:46.999Z</time></trkpt><trkpt lat="40.63726820700257" lon="9.655738631459338"><ele>19.0</ele><time>2026-05-03T14:40:47.999Z</time></trkpt><trkpt lat="40.6373156710871" lon="9.65594094545874"><ele>19.0</ele><time>2026-05-03T14:40:48.999Z</time></trkpt><trkpt lat="40.637366909829105" lon="9.656161606441207"><ele>19.0</ele><time>2026-05-03T14:40:49.999Z</time></trkpt><trkpt lat="40.63740303080351" lon="9.65640775502737"><ele>19.0</ele><time>2026-05-03T14:40:51Z</time></trkpt><trkpt lat="40.63743310878337" lon="9.65666914423636"><ele>19.0</ele><time>2026-05-03T14:40:52Z</time></trkpt><trkpt lat="40.63742333014484" lon="9.656946197967999"><ele>19.0</ele><time>2026-05-03T14:40:53Z</time></trkpt><trkpt lat="40.63740519911853" lon="9.657230220415515"><ele>19.0</ele><time>2026-05-03T14:40:54Z</time></trkpt><trkpt lat="40.63739356691604" lon="9.657510578079172"><ele>19.333333333333332</ele><time>2026-05-03T14:40:55Z</time></trkpt><trkpt lat="40.63738433153861" lon="9.657774969174273"><ele>19.666666666666668</ele><time>2026-05-03T14:40:56Z</time></trkpt><trkpt lat="40.63737299286958" lon="9.658029085418951"><ele>20.0</ele><time>2026-05-03T14:40:57Z</time></trkpt><trkpt lat="40.637362616083564" lon="9.658279612178038"><ele>20.0</ele><time>2026-05-03T14:40:58Z</time></trkpt><trkpt lat="40.63735171456893" lon="9.658528288925433"><ele>20.0</ele><time>2026-05-03T14:40:59Z</time></trkpt><trkpt lat="40.63734017517369" lon="9.658769211205618"><ele>20.0</ele><time>2026-05-03T14:41:00Z</time></trkpt><trkpt lat="40.637328592984204" lon="9.659005536146285"><ele>19.666666666666668</ele><time>2026-05-03T14:41:01Z</time></trkpt><trkpt lat="40.63731720080532" lon="9.65924216671057"><ele>19.333333333333332</ele><time>2026-05-03T14:41:02Z</time></trkpt><trkpt lat="40.63730529013026" lon="9.659478699283103"><ele>19.0</ele><time>2026-05-03T14:41:03Z</time></trkpt><trkpt lat="40.63729527226912" lon="9.659716827493588"><ele>18.666666666666664</ele><time>2026-05-03T14:41:04Z</time></trkpt><trkpt lat="40.6372818977675" lon="9.659954426180054"><ele>18.333333333333332</ele><time>2026-05-03T14:41:05Z</time></trkpt><trkpt lat="40.637269333299976" lon="9.660192533883187"><ele>18.0</ele><time>2026-05-03T14:41:06Z</time></trkpt><trkpt lat="40.63725829196017" lon="9.6604330973557"><ele>18.0</ele><time>2026-05-03T14:41:07Z</time></trkpt><trkpt lat="40.63724985347161" lon="9.660670826084822"><ele>18.0</ele><time>2026-05-03T14:41:08Z</time></trkpt><trkpt lat="40.637242491409374" lon="9.660906440245041"><ele>18.0</ele><time>2026-05-03T14:41:09Z</time></trkpt><trkpt lat="40.63723460822991" lon="9.661142393750776"><ele>17.666666666666668</ele><time>2026-05-03T14:41:10Z</time></trkpt><trkpt lat="40.637224581523135" lon="9.661375219421931"><ele>17.333333333333336</ele><time>2026-05-03T14:41:11Z</time></trkpt><trkpt lat="40.63721307889124" lon="9.661609861118675"><ele>17.0</ele><time>2026-05-03T14:41:12Z</time></trkpt><trkpt lat="40.63720140358453" lon="9.661840816293326"><ele>16.666666666666668</ele><time>2026-05-03T14:41:13Z</time></trkpt><trkpt lat="40.637192416437536" lon="9.662067059125128"><ele>16.333333333333332</ele><time>2026-05-03T14:41:14Z</time></trkpt><trkpt lat="40.637183591571706" lon="9.662295669977917"><ele>16.0</ele><time>2026-05-03T14:41:15Z</time></trkpt><trkpt lat="40.637172441674984" lon="9.662530084008264"><ele>16.0</ele><time>2026-05-03T14:41:16Z</time></trkpt><trkpt lat="40.6371615286566" lon="9.662767120901403"><ele>16.0</ele><time>2026-05-03T14:41:17Z</time></trkpt><trkpt lat="40.63715033785002" lon="9.663004521585425"><ele>16.0</ele><time>2026-05-03T14:41:18Z</time></trkpt><trkpt lat="40.63714245044095" lon="9.663248691898326"><ele>16.0</ele><time>2026-05-03T14:41:19Z</time></trkpt><trkpt lat="40.63713198409232" lon="9.663490343691052"><ele>16.0</ele><time>2026-05-03T14:41:20Z</time></trkpt><trkpt lat="40.63712193187779" lon="9.663749772892732"><ele>16.0</ele><time>2026-05-03T14:41:21Z</time></trkpt><trkpt lat="40.63710904814325" lon="9.663990286468161"><ele>15.666666666666666</ele><time>2026-05-03T14:41:22Z</time></trkpt><trkpt lat="40.63709979547308" lon="9.664229737031656"><ele>15.333333333333332</ele><time>2026-05-03T14:41:23Z</time></trkpt><trkpt lat="40.63709296836565" lon="9.66447390092132"><ele>15.0</ele><time>2026-05-03T14:41:24Z</time></trkpt><trkpt lat="40.63708394540006" lon="9.664718469521159"><ele>15.0</ele><time>2026-05-03T14:41:25Z</time></trkpt><trkpt lat="40.63706852299449" lon="9.664965274143931"><ele>15.0</ele><time>2026-05-03T14:41:26Z</time></trkpt><trkpt lat="40.63704590955258" lon="9.665209172759932"><ele>15.0</ele><time>2026-05-03T14:41:27Z</time></trkpt><trkpt lat="40.63701964595966" lon="9.665446734869676"><ele>15.0</ele><time>2026-05-03T14:41:28Z</time></trkpt><trkpt lat="40.63699073590999" lon="9.665691489500318"><ele>15.0</ele><time>2026-05-03T14:41:29Z</time></trkpt><trkpt lat="40.63696344714524" lon="9.66592886354225"><ele>15.0</ele><time>2026-05-03T14:41:30Z</time></trkpt><trkpt lat="40.63694010139844" lon="9.666168679055415"><ele>15.0</ele><time>2026-05-03T14:41:31Z</time></trkpt><trkpt lat="40.63691422880041" lon="9.666406400335935"><ele>15.0</ele><time>2026-05-03T14:41:32Z</time></trkpt><trkpt lat="40.63688493374079" lon="9.666644288558322"><ele>15.0</ele><time>2026-05-03T14:41:33Z</time></trkpt><trkpt lat="40.63685565392643" lon="9.666878995340882"><ele>15.333333333333332</ele><time>2026-05-03T14:41:34Z</time></trkpt><trkpt lat="40.63683475373931" lon="9.667112004400455"><ele>15.666666666666666</ele><time>2026-05-03T14:41:35Z</time></trkpt><trkpt lat="40.6368307283225" lon="9.667346948677734"><ele>16.0</ele><time>2026-05-03T14:41:36Z</time></trkpt><trkpt lat="40.636856569842955" lon="9.667589816304414"><ele>16.333333333333332</ele><time>2026-05-03T14:41:37Z</time></trkpt><trkpt lat="40.63690912587892" lon="9.66783078040542"><ele>16.666666666666668</ele><time>2026-05-03T14:41:38Z</time></trkpt><trkpt lat="40.63697402430913" lon="9.66806903371612"><ele>17.0</ele><time>2026-05-03T14:41:39Z</time></trkpt><trkpt lat="40.63704278064098" lon="9.668301303339351"><ele>16.666666666666668</ele><time>2026-05-03T14:41:40Z</time></trkpt><trkpt lat="40.63710748138489" lon="9.668536813211627"><ele>16.333333333333332</ele><time>2026-05-03T14:41:41Z</time></trkpt><trkpt lat="40.63716747571993" lon="9.668770966401445"><ele>16.0</ele><time>2026-05-03T14:41:42Z</time></trkpt><trkpt lat="40.637225310617694" lon="9.669000162086634"><ele>16.0</ele><time>2026-05-03T14:41:43Z</time></trkpt><trkpt lat="40.63728773674075" lon="9.669229145420845"><ele>16.0</ele><time>2026-05-03T14:41:43.999Z</time></trkpt><trkpt lat="40.63735160455496" lon="9.669458163356635"><ele>16.0</ele><time>2026-05-03T14:41:44.999Z</time></trkpt><trkpt lat="40.63740971716288" lon="9.66968924259163"><ele>14.333333333333332</ele><time>2026-05-03T14:41:45.999Z</time></trkpt><trkpt lat="40.63745856787664" lon="9.669921371250414"><ele>12.666666666666666</ele><time>2026-05-03T14:41:46.999Z</time></trkpt><trkpt lat="40.637496380227596" lon="9.670163841863943"><ele>11.0</ele><time>2026-05-03T14:41:47.999Z</time></trkpt><trkpt lat="40.63751359937249" lon="9.670406085049017"><ele>10.0</ele><time>2026-05-03T14:41:48.999Z</time></trkpt><trkpt lat="40.63750857597309" lon="9.67064286959437"><ele>9.0</ele><time>2026-05-03T14:41:49.999Z</time></trkpt><trkpt lat="40.63747396980654" lon="9.670872109137646"><ele>8.0</ele><time>2026-05-03T14:41:50.999Z</time></trkpt><trkpt lat="40.637408879807424" lon="9.671090332423976"><ele>7.333333333333333</ele><time>2026-05-03T14:41:51.999Z</time></trkpt><trkpt lat="40.63732139122938" lon="9.671298279201928"><ele>6.666666666666666</ele><time>2026-05-03T14:41:52.999Z</time></trkpt><trkpt lat="40.63721821375739" lon="9.671497657571264"><ele>6.0</ele><time>2026-05-03T14:41:53.999Z</time></trkpt><trkpt lat="40.63710750453996" lon="9.671693400012176"><ele>6.0</ele><time>2026-05-03T14:41:54.999Z</time></trkpt><trkpt lat="40.636999012619626" lon="9.671881052212978"><ele>6.0</ele><time>2026-05-03T14:41:55.999Z</time></trkpt><trkpt lat="40.636893809181906" lon="9.672071827060163"><ele>6.0</ele><time>2026-05-03T14:41:56.999Z</time></trkpt><trkpt lat="40.63678478208159" lon="9.672264359431926"><ele>5.666666666666667</ele><time>2026-05-03T14:41:57.999Z</time></trkpt><trkpt lat="40.636676511951464" lon="9.672460640608826"><ele>5.333333333333334</ele><time>2026-05-03T14:41:58.999Z</time></trkpt><trkpt lat="40.63657320328278" lon="9.672652124219185"><ele>5.0</ele><time>2026-05-03T14:41:59.999Z</time></trkpt><trkpt lat="40.63647299423296" lon="9.672843543352224"><ele>5.0</ele><time>2026-05-03T14:42:00.999Z</time></trkpt><trkpt lat="40.636383984368734" lon="9.673037421078465"><ele>5.0</ele><time>2026-05-03T14:42:01.999Z</time></trkpt><trkpt lat="40.63631274837911" lon="9.673237952014329"><ele>5.0</ele><time>2026-05-03T14:42:02.999Z</time></trkpt><trkpt lat="40.63624739627228" lon="9.673464389090508"><ele>5.0</ele><time>2026-05-03T14:42:03.999Z</time></trkpt><trkpt lat="40.63618108894017" lon="9.67370216785967"><ele>5.0</ele><time>2026-05-03T14:42:04.999Z</time></trkpt><trkpt lat="40.63611132514971" lon="9.673931869321944"><ele>5.0</ele><time>2026-05-03T14:42:05.999Z</time></trkpt><trkpt lat="40.63603777040372" lon="9.674157973390175"><ele>5.0</ele><time>2026-05-03T14:42:06.999Z</time></trkpt><trkpt lat="40.63596379964076" lon="9.674377627039336"><ele>5.0</ele><time>2026-05-03T14:42:07.999Z</time></trkpt><trkpt lat="40.635897176223324" lon="9.674581635281289"><ele>5.0</ele><time>2026-05-03T14:42:08.999Z</time></trkpt><trkpt lat="40.63583560439117" lon="9.674768625376004"><ele>5.0</ele><time>2026-05-03T14:42:09.999Z</time></trkpt><trkpt lat="40.63578289123183" lon="9.67493792140702"><ele>5.0</ele><time>2026-05-03T14:42:10.999Z</time></trkpt><trkpt lat="40.63573785947107" lon="9.675073349221206"><ele>5.0</ele><time>2026-05-03T14:42:11.999Z</time></trkpt><trkpt lat="40.63568987963205" lon="9.675160359950414"><ele>5.0</ele><time>2026-05-03T14:42:12.999Z</time></trkpt><trkpt lat="40.635676336660836" lon="9.675243597399847"><ele>5.0</ele><time>2026-05-03T14:42:13.999Z</time></trkpt><trkpt lat="40.635517422709846" lon="9.67530355343247"><ele>4.8</ele><time>2026-05-03T14:42:15.999Z</time></trkpt><trkpt lat="40.635488161353074" lon="9.675383937838392"><ele>4.6</ele><time>2026-05-03T14:42:16.999Z</time></trkpt><trkpt lat="40.635506441242754" lon="9.675521733249393"><ele>4.4</ele><time>2026-05-03T14:42:17.999Z</time></trkpt><trkpt lat="40.63549409996059" lon="9.675672776948312"><ele>4.2</ele><time>2026-05-03T14:42:18.999Z</time></trkpt><trkpt lat="40.63549323865113" lon="9.675816680727593"><ele>4.0</ele><time>2026-05-03T14:42:19.999Z</time></trkpt><trkpt lat="40.63543904659394" lon="9.675959332560767"><ele>4.0</ele><time>2026-05-03T14:42:20.999Z</time></trkpt><trkpt lat="40.63535885954742" lon="9.676100386579094"><ele>4.0</ele><time>2026-05-03T14:42:21.999Z</time></trkpt><trkpt lat="40.63526685881737" lon="9.676249106833573"><ele>4.0</ele><time>2026-05-03T14:42:22.999Z</time></trkpt><trkpt lat="40.63516472762198" lon="9.676426343579326"><ele>4.0</ele><time>2026-05-03T14:42:23.999Z</time></trkpt><trkpt lat="40.63506541651897" lon="9.676625167323357"><ele>3.333333333333333</ele><time>2026-05-03T14:42:24.999Z</time></trkpt><trkpt lat="40.63497377646693" lon="9.676807444902316"><ele>2.6666666666666665</ele><time>2026-05-03T14:42:25.999Z</time></trkpt><trkpt lat="40.63487939666834" lon="9.676957942507691"><ele>2.0</ele><time>2026-05-03T14:42:26.999Z</time></trkpt><trkpt lat="40.63479069307579" lon="9.677098693641055"><ele>1.75</ele><time>2026-05-03T14:42:27.999Z</time></trkpt><trkpt lat="40.63469710308881" lon="9.677233600695965"><ele>1.5</ele><time>2026-05-03T14:42:28.999Z</time></trkpt><trkpt lat="40.634586255808195" lon="9.677366631095962"><ele>1.25</ele><time>2026-05-03T14:42:29.999Z</time></trkpt><trkpt lat="40.63448320781029" lon="9.677475143943955"><ele>1.0</ele><time>2026-05-03T14:42:30.999Z</time></trkpt><trkpt lat="40.634379406327085" lon="9.677568975718128"><ele>1.4</ele><time>2026-05-03T14:42:31.999Z</time></trkpt><trkpt lat="40.634267705325755" lon="9.677647547916996"><ele>1.8</ele><time>2026-05-03T14:42:32.999Z</time></trkpt><trkpt lat="40.63415948883708" lon="9.677700371862104"><ele>2.1999999999999997</ele><time>2026-05-03T14:42:33.999Z</time></trkpt><trkpt lat="40.63406466348476" lon="9.677726263303617"><ele>2.6</ele><time>2026-05-03T14:42:34.999Z</time></trkpt><trkpt lat="40.6339868360131" lon="9.677733671402518"><ele>3.0</ele><time>2026-05-03T14:42:35.999Z</time></trkpt><trkpt lat="40.63392473750771" lon="9.677717493098223"><ele>3.0</ele><time>2026-05-03T14:42:36.999Z</time></trkpt><trkpt lat="40.63386580022778" lon="9.677583466261042"><ele>3.0</ele><time>2026-05-03T14:42:38.999Z</time></trkpt><trkpt lat="40.633839232143316" lon="9.677430378630449"><ele>3.0</ele><time>2026-05-03T14:42:40.999Z</time></trkpt><trkpt lat="40.63380381732023" lon="9.677280721589367"><ele>3.0</ele><time>2026-05-03T14:42:42.999Z</time></trkpt><trkpt lat="40.63376493126109" lon="9.677143750981102"><ele>3.0</ele><time>2026-05-03T14:42:45Z</time></trkpt><trkpt lat="40.633736309026915" lon="9.677024912621627"><ele>3.0</ele><time>2026-05-03T14:42:47Z</time></trkpt><trkpt lat="40.63366977959461" lon="9.676931145511285"><ele>3.0</ele><time>2026-05-03T14:42:49Z</time></trkpt><trkpt lat="40.633580034697765" lon="9.676903122445054"><ele>3.0</ele><time>2026-05-03T14:42:51Z</time></trkpt><trkpt lat="40.63351355794954" lon="9.676902496021809"><ele>3.0</ele><time>2026-05-03T14:42:52Z</time></trkpt><trkpt lat="40.63341985219855" lon="9.676934600156867"><ele>3.0</ele><time>2026-05-03T14:42:53Z</time></trkpt><trkpt lat="40.633307214033685" lon="9.676960391227128"><ele>3.5</ele><time>2026-05-03T14:42:54Z</time></trkpt><trkpt lat="40.633165496446054" lon="9.676973012780808"><ele>4.0</ele><time>2026-05-03T14:42:55Z</time></trkpt><trkpt lat="40.63302680225451" lon="9.677003316677402"><ele>4.5</ele><time>2026-05-03T14:42:56Z</time></trkpt><trkpt lat="40.63289460800531" lon="9.67701037170809"><ele>5.0</ele><time>2026-05-03T14:42:57Z</time></trkpt><trkpt lat="40.63277065045767" lon="9.67699710587005"><ele>5.0</ele><time>2026-05-03T14:42:58Z</time></trkpt><trkpt lat="40.63263509010903" lon="9.676969724204525"><ele>5.0</ele><time>2026-05-03T14:42:59Z</time></trkpt><trkpt lat="40.632497046904696" lon="9.676942257208315"><ele>5.0</ele><time>2026-05-03T14:43:00Z</time></trkpt><trkpt lat="40.632354624232335" lon="9.676911374990448"><ele>5.0</ele><time>2026-05-03T14:43:01Z</time></trkpt><trkpt lat="40.63221071177363" lon="9.676879421938276"><ele>5.5</ele><time>2026-05-03T14:43:02Z</time></trkpt><trkpt lat="40.6320655181789" lon="9.676843694602761"><ele>6.0</ele><time>2026-05-03T14:43:03Z</time></trkpt><trkpt lat="40.63192615610238" lon="9.67677133320721"><ele>6.5</ele><time>2026-05-03T14:43:04Z</time></trkpt><trkpt lat="40.631783077393685" lon="9.676718382426769"><ele>7.0</ele><time>2026-05-03T14:43:05Z</time></trkpt><trkpt lat="40.6316353015455" lon="9.676688732965793"><ele>7.25</ele><time>2026-05-03T14:43:06Z</time></trkpt><trkpt lat="40.63149884952755" lon="9.676620558764343"><ele>7.5</ele><time>2026-05-03T14:43:07Z</time></trkpt><trkpt lat="40.63136534656319" lon="9.676579128417464"><ele>7.75</ele><time>2026-05-03T14:43:08Z</time></trkpt><trkpt lat="40.631235171456716" lon="9.67654797707176"><ele>8.0</ele><time>2026-05-03T14:43:09Z</time></trkpt><trkpt lat="40.63111641816315" lon="9.676551988346578"><ele>8.4</ele><time>2026-05-03T14:43:10Z</time></trkpt><trkpt lat="40.63100764749073" lon="9.676535333228921"><ele>8.8</ele><time>2026-05-03T14:43:11Z</time></trkpt><trkpt lat="40.63091139949263" lon="9.676544865336407"><ele>9.2</ele><time>2026-05-03T14:43:12Z</time></trkpt><trkpt lat="40.63082700698227" lon="9.67658880168425"><ele>9.6</ele><time>2026-05-03T14:43:13Z</time></trkpt><trkpt lat="40.63075063262081" lon="9.67666850952402"><ele>10.0</ele><time>2026-05-03T14:43:14Z</time></trkpt><trkpt lat="40.63067695594736" lon="9.676770605452138"><ele>10.0</ele><time>2026-05-03T14:43:15Z</time></trkpt><trkpt lat="40.630607248982116" lon="9.676871883243209"><ele>10.0</ele><time>2026-05-03T14:43:16Z</time></trkpt><trkpt lat="40.63054412281876" lon="9.676953300600347"><ele>10.0</ele><time>2026-05-03T14:43:17Z</time></trkpt><trkpt lat="40.63047529319706" lon="9.677034907460161"><ele>10.0</ele><time>2026-05-03T14:43:18Z</time></trkpt><trkpt lat="40.63039813423079" lon="9.67712524991245"><ele>10.0</ele><time>2026-05-03T14:43:19Z</time></trkpt><trkpt lat="40.63032538739407" lon="9.677221846704448"><ele>10.2</ele><time>2026-05-03T14:43:20Z</time></trkpt><trkpt lat="40.6302340233917" lon="9.67730425936304"><ele>10.4</ele><time>2026-05-03T14:43:21Z</time></trkpt><trkpt lat="40.63015334388593" lon="9.677402933025787"><ele>10.600000000000001</ele><time>2026-05-03T14:43:22Z</time></trkpt><trkpt lat="40.630084922682755" lon="9.67751588744784"><ele>10.8</ele><time>2026-05-03T14:43:23Z</time></trkpt><trkpt lat="40.63000544228027" lon="9.677611880214727"><ele>11.0</ele><time>2026-05-03T14:43:24Z</time></trkpt><trkpt lat="40.62992307678853" lon="9.677707562093845"><ele>10.8</ele><time>2026-05-03T14:43:25Z</time></trkpt><trkpt lat="40.629839393665655" lon="9.677802284002581"><ele>10.600000000000001</ele><time>2026-05-03T14:43:26Z</time></trkpt><trkpt lat="40.629756879428946" lon="9.677901134944168"><ele>10.4</ele><time>2026-05-03T14:43:27Z</time></trkpt><trkpt lat="40.629676962554264" lon="9.678000444686"><ele>10.2</ele><time>2026-05-03T14:43:28Z</time></trkpt><trkpt lat="40.62959822457528" lon="9.678097930010676"><ele>10.0</ele><time>2026-05-03T14:43:29Z</time></trkpt><trkpt lat="40.62952406313216" lon="9.67819204754199"><ele>10.0</ele><time>2026-05-03T14:43:30Z</time></trkpt><trkpt lat="40.62945693003746" lon="9.678266357426676"><ele>10.0</ele><time>2026-05-03T14:43:31Z</time></trkpt><trkpt lat="40.62940763795102" lon="9.67832913669502"><ele>10.0</ele><time>2026-05-03T14:43:32Z</time></trkpt><trkpt lat="40.62935335730511" lon="9.678373226261368"><ele>10.0</ele><time>2026-05-03T14:43:34Z</time></trkpt><trkpt lat="40.62928475185647" lon="9.678404381256204"><ele>10.0</ele><time>2026-05-03T14:43:37Z</time></trkpt><trkpt lat="40.6292583840601" lon="9.67848766903154"><ele>10.0</ele><time>2026-05-03T14:43:41Z</time></trkpt><trkpt lat="40.62919015025569" lon="9.678560141364008"><ele>10.0</ele><time>2026-05-03T14:43:44Z</time></trkpt><trkpt lat="40.62907304055456" lon="9.678627995088586"><ele>10.0</ele><time>2026-05-03T14:43:45.999Z</time></trkpt><trkpt lat="40.628999787728276" lon="9.678686893819274"><ele>10.0</ele><time>2026-05-03T14:43:46.999Z</time></trkpt><trkpt lat="40.62902821979921" lon="9.678513951713153"><ele>10.0</ele><time>2026-05-03T14:43:47.999Z</time></trkpt><trkpt lat="40.62898389920242" lon="9.678437611826867"><ele>10.0</ele><time>2026-05-03T14:43:48.999Z</time></trkpt><trkpt lat="40.62892107969804" lon="9.678372936401743"><ele>10.0</ele><time>2026-05-03T14:43:49.999Z</time></trkpt><trkpt lat="40.62864344980749" lon="9.678669357226184"><ele>10.333333333333334</ele><time>2026-05-03T14:43:50.999Z</time></trkpt><trkpt lat="40.62854713014173" lon="9.678651913223202"><ele>10.666666666666668</ele><time>2026-05-03T14:43:51.999Z</time></trkpt><trkpt lat="40.62845876396166" lon="9.678631369347631"><ele>11.0</ele><time>2026-05-03T14:43:52.999Z</time></trkpt><trkpt lat="40.628378487521644" lon="9.678588214301328"><ele>11.333333333333334</ele><time>2026-05-03T14:43:53.999Z</time></trkpt><trkpt lat="40.62830853173637" lon="9.67854276399982"><ele>11.666666666666666</ele><time>2026-05-03T14:43:54.999Z</time></trkpt><trkpt lat="40.62821915495228" lon="9.678502691553756"><ele>12.0</ele><time>2026-05-03T14:43:55.999Z</time></trkpt><trkpt lat="40.62812644171082" lon="9.678472754661293"><ele>12.5</ele><time>2026-05-03T14:43:56.999Z</time></trkpt><trkpt lat="40.62804161222076" lon="9.67843617990617"><ele>13.0</ele><time>2026-05-03T14:43:57.999Z</time></trkpt><trkpt lat="40.627966178486254" lon="9.678377432699692"><ele>13.5</ele><time>2026-05-03T14:43:58.999Z</time></trkpt><trkpt lat="40.62790351557089" lon="9.67832168347362"><ele>14.0</ele><time>2026-05-03T14:43:59.999Z</time></trkpt><trkpt lat="40.6278281527365" lon="9.6782955713145"><ele>14.5</ele><time>2026-05-03T14:44:00.999Z</time></trkpt><trkpt lat="40.62780806503308" lon="9.67818245228742"><ele>15.0</ele><time>2026-05-03T14:44:01.999Z</time></trkpt><trkpt lat="40.627761169180026" lon="9.678102558258724"><ele>15.666666666666666</ele><time>2026-05-03T14:44:02.999Z</time></trkpt><trkpt lat="40.62769184772235" lon="9.678050025678933"><ele>16.333333333333332</ele><time>2026-05-03T14:44:03.999Z</time></trkpt><trkpt lat="40.62761221490486" lon="9.678013813231894"><ele>17.0</ele><time>2026-05-03T14:44:04.999Z</time></trkpt><trkpt lat="40.62754398799819" lon="9.677979174970815"><ele>17.666666666666664</ele><time>2026-05-03T14:44:05.999Z</time></trkpt><trkpt lat="40.62749015441346" lon="9.67791884250029"><ele>18.333333333333332</ele><time>2026-05-03T14:44:07.999Z</time></trkpt><trkpt lat="40.6275261062447" lon="9.677841965955473"><ele>19.0</ele><time>2026-05-03T14:44:09.999Z</time></trkpt><trkpt lat="40.62762222874429" lon="9.677837574823634"><ele>19.0</ele><time>2026-05-03T14:44:10.999Z</time></trkpt><trkpt lat="40.6277157479088" lon="9.677840474135627"><ele>19.0</ele><time>2026-05-03T14:44:11.999Z</time></trkpt><trkpt lat="40.62780391235853" lon="9.677845434769171"><ele>19.0</ele><time>2026-05-03T14:44:12.999Z</time></trkpt><trkpt lat="40.6278855370445" lon="9.677852135726724"><ele>19.0</ele><time>2026-05-03T14:44:13.999Z</time></trkpt><trkpt lat="40.627957734897464" lon="9.677878051663638"><ele>19.0</ele><time>2026-05-03T14:44:14.999Z</time></trkpt><trkpt lat="40.62803004501778" lon="9.677890802574446"><ele>19.0</ele><time>2026-05-03T14:44:15.999Z</time></trkpt><trkpt lat="40.628110857093425" lon="9.677901282075537"><ele>18.4</ele><time>2026-05-03T14:44:16.999Z</time></trkpt><trkpt lat="40.62818774979236" lon="9.677884618893037"><ele>17.799999999999997</ele><time>2026-05-03T14:44:17.999Z</time></trkpt><trkpt lat="40.62825277944802" lon="9.677868192590413"><ele>17.200000000000003</ele><time>2026-05-03T14:44:18.999Z</time></trkpt><trkpt lat="40.62829960103425" lon="9.677799360837234"><ele>16.6</ele><time>2026-05-03T14:44:21.999Z</time></trkpt><trkpt lat="40.62823392915186" lon="9.67761315405701"><ele>16.0</ele><time>2026-05-03T14:44:23.999Z</time></trkpt><trkpt lat="40.62815343109846" lon="9.67751240311102"><ele>16.0</ele><time>2026-05-03T14:44:24.999Z</time></trkpt><trkpt lat="40.62807661136669" lon="9.67741747234893"><ele>16.0</ele><time>2026-05-03T14:44:25.999Z</time></trkpt><trkpt lat="40.62803049090942" lon="9.677343935706014"><ele>16.0</ele><time>2026-05-03T14:44:26.999Z</time></trkpt><trkpt lat="40.62792618482838" lon="9.677280851689984"><ele>16.0</ele><time>2026-05-03T14:44:28.999Z</time></trkpt><trkpt lat="40.627797573393444" lon="9.677286681418193"><ele>16.0</ele><time>2026-05-03T14:44:30.999Z</time></trkpt><trkpt lat="40.627730925525384" lon="9.677268704655877"><ele>16.666666666666664</ele><time>2026-05-03T14:44:31.999Z</time></trkpt><trkpt lat="40.62765707153615" lon="9.677280725089304"><ele>17.333333333333332</ele><time>2026-05-03T14:44:32.999Z</time></trkpt><trkpt lat="40.6275849474058" lon="9.677279543363474"><ele>18.0</ele><time>2026-05-03T14:44:33.999Z</time></trkpt><trkpt lat="40.62751215757007" lon="9.677280568572503"><ele>18.666666666666668</ele><time>2026-05-03T14:44:34.999Z</time></trkpt><trkpt lat="40.62743810742423" lon="9.677280781994243"><ele>19.333333333333336</ele><time>2026-05-03T14:44:35.999Z</time></trkpt><trkpt lat="40.62735896078037" lon="9.677280068966594"><ele>20.0</ele><time>2026-05-03T14:44:36.999Z</time></trkpt><trkpt lat="40.62727992475132" lon="9.67728279556319"><ele>20.0</ele><time>2026-05-03T14:44:37.999Z</time></trkpt><trkpt lat="40.62719802704149" lon="9.677283114952683"><ele>20.0</ele><time>2026-05-03T14:44:38.999Z</time></trkpt><trkpt lat="40.62711875787865" lon="9.677282365513111"><ele>20.0</ele><time>2026-05-03T14:44:39.999Z</time></trkpt><trkpt lat="40.62704470415042" lon="9.677258000194156"><ele>20.0</ele><time>2026-05-03T14:44:40.999Z</time></trkpt><trkpt lat="40.62693358252778" lon="9.677251946214408"><ele>20.0</ele><time>2026-05-03T14:44:42.999Z</time></trkpt><trkpt lat="40.626910215237906" lon="9.677143782159733"><ele>20.0</ele><time>2026-05-03T14:44:45.999Z</time></trkpt><trkpt lat="40.62690192110604" lon="9.677036725009797"><ele>21.0</ele><time>2026-05-03T14:44:46.999Z</time></trkpt><trkpt lat="40.62687681282538" lon="9.67689736930183"><ele>22.0</ele><time>2026-05-03T14:44:47.999Z</time></trkpt><trkpt lat="40.626863434559" lon="9.676733817361303"><ele>23.0</ele><time>2026-05-03T14:44:48.999Z</time></trkpt><trkpt lat="40.62686817694427" lon="9.676560653854803"><ele>24.0</ele><time>2026-05-03T14:44:49.999Z</time></trkpt><trkpt lat="40.62685412133106" lon="9.676465839967355"><ele>25.0</ele><time>2026-05-03T14:44:53Z</time></trkpt><trkpt lat="40.62670558377352" lon="9.676468384713218"><ele>25.0</ele><time>2026-05-03T14:44:54Z</time></trkpt><trkpt lat="40.62684475142652" lon="9.676123139077086"><ele>25.0</ele><time>2026-05-03T14:44:58Z</time></trkpt><trkpt lat="40.626839566491526" lon="9.676026300403514"><ele>25.0</ele><time>2026-05-03T14:44:59Z</time></trkpt><trkpt lat="40.62669691961803" lon="9.675964863618706"><ele>25.0</ele><time>2026-05-03T14:45:00Z</time></trkpt><trkpt lat="40.62672441802578" lon="9.675822699871118"><ele>25.0</ele><time>2026-05-03T14:45:02Z</time></trkpt><trkpt lat="40.6266948373838" lon="9.675724875241496"><ele>25.0</ele><time>2026-05-03T14:45:06Z</time></trkpt><trkpt lat="40.62658299802075" lon="9.675763543944996"><ele>25.0</ele><time>2026-05-03T14:45:08Z</time></trkpt><trkpt lat="40.626478637067414" lon="9.675763120877038"><ele>25.0</ele><time>2026-05-03T14:45:09Z</time></trkpt><trkpt lat="40.626361558755136" lon="9.675788572754591"><ele>25.0</ele><time>2026-05-03T14:45:10Z</time></trkpt><trkpt lat="40.62625407587476" lon="9.675812213384985"><ele>25.0</ele><time>2026-05-03T14:45:11Z</time></trkpt><trkpt lat="40.62617105536667" lon="9.67582971619525"><ele>25.0</ele><time>2026-05-03T14:45:12Z</time></trkpt><trkpt lat="40.62609476672065" lon="9.675843784089038"><ele>25.0</ele><time>2026-05-03T14:45:13Z</time></trkpt><trkpt lat="40.62603071839828" lon="9.675857426118807"><ele>25.0</ele><time>2026-05-03T14:45:14Z</time></trkpt><trkpt lat="40.62590050941365" lon="9.67583400790325"><ele>26.666666666666668</ele><time>2026-05-03T14:45:16Z</time></trkpt><trkpt lat="40.62581593947424" lon="9.675830734543053"><ele>28.333333333333336</ele><time>2026-05-03T14:45:17Z</time></trkpt><trkpt lat="40.625735183554966" lon="9.675827608803267"><ele>30.0</ele><time>2026-05-03T14:45:18Z</time></trkpt><trkpt lat="40.62570454484024" lon="9.675440914706856"><ele>30.0</ele><time>2026-05-03T14:45:20Z</time></trkpt><trkpt lat="40.6255843648136" lon="9.6753997349742"><ele>30.0</ele><time>2026-05-03T14:45:21Z</time></trkpt><trkpt lat="40.62549993839562" lon="9.675405374121897"><ele>30.0</ele><time>2026-05-03T14:45:22Z</time></trkpt><trkpt lat="40.625436832815836" lon="9.675376718244836"><ele>30.0</ele><time>2026-05-03T14:45:23Z</time></trkpt><trkpt lat="40.62532889075898" lon="9.675362758573211"><ele>30.0</ele><time>2026-05-03T14:45:25Z</time></trkpt><trkpt lat="40.625220792993325" lon="9.67533302181143"><ele>30.25</ele><time>2026-05-03T14:45:27Z</time></trkpt><trkpt lat="40.62512929407531" lon="9.67527114983666"><ele>30.5</ele><time>2026-05-03T14:45:29Z</time></trkpt><trkpt lat="40.62506894992548" lon="9.675305385102757"><ele>30.75</ele><time>2026-05-03T14:45:31Z</time></trkpt><trkpt lat="40.625085963783924" lon="9.674948054334369"><ele>31.0</ele><time>2026-05-03T14:45:32Z</time></trkpt><trkpt lat="40.62507773339861" lon="9.675402739433915"><ele>32.0</ele><time>2026-05-03T14:45:34Z</time></trkpt><trkpt lat="40.62514099046224" lon="9.675405549620518"><ele>32.0</ele><time>2026-05-03T14:46:07.999Z</time></trkpt></trkseg></trk></gpx>